.

MPMG - Transparência

Contracheque - Remuneração de todos os servidores ativos - Pós Resolução CNMP 200/2019

Período: 2024 - Março

Ordem Matrícula Nome Cargo Efetivo Lotação Rendimentos Descontos Rendimento Líquido Total *14 Data de Referência
Remuneração básica Remuneração eventual ou Temporária Outras Remunerações Temporárias *7 Verbas Indenizatórias *8 Total de Rendimentos Brutos *9 Obrigatórios Legais Outros Descontos Eventuais Total de descontos *13
Remuneração do Cargo Efetivo *1 Outras Verbas Remuneratórias *2 Função de Confiança ou Cargo em Comissão *3 Gratificação Natalina *4 Férias 1/3 Constitucional *5 Abono de Permanência *6 Contribuição Previdenciária *10 Imposto de Renda *11 Retenção por Teto Constitucional *12
1 498900 ABDON MARCIO BARBOSA DA SILVA OFICIAL DO MP ABRE CAMPO - COMARCA; ABRE CAMPO-PJ-01PJ 7.506,70 1.501,34 0,00 0,00 0,00 0,00 0,00 2.583,00 11.591,04 1.214,11 1.195,19 0,00 0,00 2.409,30 9.181,74 31/03/2024
2 177800 ADALBERTO MENEZES FARIA SAMORA OFICIAL DO MP BELO HORIZONTE - COMARCA; DIRET DE PLANOS PROJETOS E PROGRAMAS INST 22.191,68 8.876,67 0,00 0,00 0,00 0,00 0,00 8.796,67 39.865,02 4.743,76 6.238,99 0,00 0,00 10.982,75 28.882,27 31/03/2024
3 306400 ADALBERTO MOREIRA GONCALVES ANALISTA DO MP BELO HORIZONTE - COMARCA; BH-24PJ JUIZO REG BARREIRO-SECRETARIA 23.070,31 6.921,09 0,00 0,00 0,00 0,00 0,00 8.581,28 38.572,68 4.571,45 6.094,49 0,00 0,00 10.665,94 27.906,74 31/03/2024
4 179300 ADENISE AUXILIADORA SOUZA SAD OFICIAL DO MP BARBACENA - COMARCA; BARBACENA-PJ-06PJ 21.346,53 8.538,61 0,00 0,00 0,00 0,00 0,00 8.560,03 38.445,17 4.554,44 5.965,67 0,00 0,00 10.520,11 27.925,06 31/03/2024
5 272200 ADILSON BATISTA ORNELAS OFICIAL DO MP LAVRAS - COMARCA; LAVRAS-PJ-SECRETARIA 7.506,70 2.252,01 0,00 0,00 0,00 0,00 0,00 2.583,00 12.341,71 1.334,22 1.368,60 0,00 0,00 2.702,82 9.638,89 31/03/2024
6 380100 ADILSON GONCALVES DE MELO JUNIOR ANALISTA DO MP ARAXÁ - COMARCA; ARAXA-PJ-05PJ 17.005,40 5.101,62 0,00 0,00 0,00 0,00 0,00 8.772,97 30.879,99 3.309,94 4.168,92 0,00 0,00 7.478,86 23.401,13 31/03/2024
7 148800 ADILSON JANUARIO OFICIAL DO MP BELO HORIZONTE - COMARCA; BH-22PJ PES COM DEF E IDOSOS-SECRETARIA 23.070,31 18.456,25 0,00 0,00 0,00 6.127,65 0,00 8.084,45 55.738,66 6.127,65 9.974,23 1.808,87 0,00 17.910,75 37.827,91 31/03/2024
8 322601 ADMILSON SILVEIRA ANALISTA DO MP SAO JOAO DO PARAISO COMARCA; SAO JOAO DO PARAISO-PJ-UNPJ 12.343,61 2.468,72 0,00 0,00 0,00 0,00 0,00 6.692,05 21.504,38 2.142,79 2.588,12 0,00 0,00 4.730,91 16.773,47 31/03/2024
9 333700 ADRIANA ABRITTA TEIXEIRA OFICIAL DO MP BELO HORIZONTE - COMARCA; DIRET DE PESSOAL DO MINISTERIO PUBLICO - DPMP 12.343,61 3.703,08 0,00 0,00 0,00 0,00 0,00 7.076,07 23.122,76 2.340,29 2.873,26 0,00 0,00 5.213,55 17.909,21 31/03/2024
10 468500 ADRIANA APARECIDA FIRMINO ANALISTA DO MP CARATINGA - COMARCA; CARATINGA-PJ-04PJ 12.343,61 2.468,72 0,00 0,00 0,00 0,00 0,00 5.545,47 20.357,80 2.142,79 2.535,99 0,00 0,00 4.678,78 15.679,02 31/03/2024
11 326100 ADRIANA AUGUSTA AMARAL BELO OFICIAL DO MP BARBACENA - COMARCA; BARBACENA-PJ-05PJ 12.343,61 3.703,08 0,00 0,00 0,00 0,00 0,00 7.076,07 23.122,76 2.340,29 2.768,99 0,00 0,00 5.109,28 18.013,48 31/03/2024
12 605700 ADRIANA COSTA LIRA OFICIAL DO MP BELO HORIZONTE - COMARCA; CAO-EDUCACAO 7.506,70 1.501,34 4.020,58 0,00 0,00 0,00 0,00 3.104,14 16.132,76 1.214,11 2.352,99 0,00 0,00 3.567,10 12.565,66 31/03/2024
13 541100 ADRIANA CRISTINA DE OLIVEIRA OFICIAL DO MP EXTREMA - COMARCA; EXTREMA-PJ-01PJ 7.506,70 1.501,34 0,00 0,00 0,00 0,00 0,00 2.583,00 11.591,04 1.214,11 1.195,19 0,00 0,00 2.409,30 9.181,74 31/03/2024
14 254800 ADRIANA DAS GRACAS FERNANDES ANALISTA DO MP UBERABA - COMARCA; UBERABA-PJ-07PJ 23.070,31 18.456,25 0,00 0,00 0,00 0,00 0,00 7.349,13 48.875,69 6.127,65 8.341,26 1.808,87 0,00 16.277,78 32.597,91 31/03/2024
15 217400 ADRIANA DE CARVALHO CATAO BRAGA ASSESSOR ADMINISTRATIVO III BELO HORIZONTE - COMARCA; DIV FISCAL ADM CONT TERCEIRIZACAO 0,00 4.343,56 10.858,90 0,00 0,00 0,00 0,00 2.583,00 17.785,46 908,85 3.578,69 0,00 0,00 4.487,54 13.297,92 31/03/2024
16 434600 ADRIANA FERREIRA DA SILVA ANALISTA DO MP BELO HORIZONTE - COMARCA; BH-14PJ DEFESA CONSUMIDOR-GAB 112PJ 18.130,77 3.626,15 0,00 0,00 0,00 0,00 0,00 8.674,94 30.431,86 3.253,93 4.192,32 0,00 0,00 7.446,25 22.985,61 31/03/2024
17 499800 ADRIANA FERREIRA TIAGO OFICIAL DO MP SALINAS - COMARCA; SALINAS-PJ-02PJ 10.516,49 2.103,30 0,00 0,00 0,00 0,00 0,00 3.729,58 16.349,37 1.791,99 1.977,37 0,00 0,00 3.769,36 12.580,01 31/03/2024
18 543400 ADRIANA GUIMARAES NUNES DE PAULA ANALISTA DO MP PATROCÍNIO - COMARCA; PATROCINIO-PJ-01PJ 12.343,61 2.468,72 0,00 0,00 0,00 0,00 0,00 4.876,16 19.688,49 1.018,60 2.700,22 0,00 0,00 3.718,82 15.969,67 31/03/2024
19 471500 ADRIANA HORTA DE CARVALHO RODRIGUES DE SOUSA ANALISTA DO MP BELO HORIZONTE - COMARCA; CAO-FUNDACOES-ASSESSORIA JURIDICA 12.343,61 2.468,72 0,00 0,00 0,00 0,00 0,00 2.583,00 17.395,33 2.142,79 2.535,99 0,00 0,00 4.678,78 12.716,55 31/03/2024
20 480700 ADRIANA MOREIRA DE AVELLAR CEZILIO OFICIAL DO MP BELO HORIZONTE - COMARCA; BH-12PJ JUIZO CRIMINAL-SECRETARIA 7.506,70 1.501,34 4.020,58 0,00 0,00 0,00 0,00 3.104,14 16.132,76 1.214,11 2.248,72 0,00 0,00 3.462,83 12.669,93 31/03/2024
21 326000 ADRIANA PEREIRA CARNEIRO RESENDE OFICIAL DO MP BELO HORIZONTE - COMARCA; BH-25PJ DEFESA DA EDUCACAO-SECRETARIA 12.343,61 3.703,08 0,00 0,00 0,00 0,00 0,00 2.583,00 18.629,69 2.340,29 2.873,26 0,00 0,00 5.213,55 13.416,14 31/03/2024
22 502200 ADRIANA PETRUCCI DAVINA OFICIAL DO MP PATROCÍNIO - COMARCA; PATROCINIO-PJ-01PJ 10.858,90 2.171,78 0,00 0,00 0,00 0,00 0,00 4.250,81 17.281,49 1.857,73 2.176,56 0,00 0,00 4.034,29 13.247,20 31/03/2024
23 201900 ADRIANA REIS PIMENTA OFICIAL DO MP TEÓFILO OTONI - COMARCA; TEOFILO OTONI-PJ-03PJ 21.346,53 10.673,27 0,00 0,00 0,00 0,00 0,00 7.706,17 39.725,97 4.895,99 6.563,05 0,00 0,00 11.459,04 28.266,93 31/03/2024
24 278700 ADRIANA RODRIGUES PINTO COELHO AMARAL ANALISTA DO MP BELO HORIZONTE - COMARCA; CGMP-DIR ESTAGIO PROBATORIO E ORIENT 23.070,31 9.228,12 0,00 0,00 0,00 0,00 0,00 7.750,75 40.049,18 4.940,57 6.627,41 0,00 0,00 11.567,98 28.481,20 31/03/2024
25 468000 ADRIANA SANTOS DE SANTANA MOREIRA ANALISTA DO MP GOVERNADOR VALADARES - COMARCA; GAECO REGIONAL DE GOVERNADOR VALADARES 12.343,61 4.937,44 0,00 0,00 0,00 0,00 0,00 7.421,69 24.702,74 2.537,79 3.054,12 0,00 0,00 5.591,91 19.110,83 31/03/2024
26 194700 ADRIANA TSUKIDE OFICIAL DO MP UBERABA - COMARCA; COORD REG BACIAS PARANAIBA BAIXO RIO GRANDE 21.346,53 8.538,61 0,00 0,00 0,00 0,00 0,00 8.560,03 38.445,17 4.554,44 6.069,94 0,00 0,00 10.624,38 27.820,79 31/03/2024
27 465500 ADRIANO CASSIANO MATOS ANALISTA DO MP ARAXÁ - COMARCA; ARAXA-PJ-02PJ 12.343,61 2.468,72 0,00 0,00 0,00 0,00 0,00 5.545,47 20.357,80 2.142,79 2.588,12 0,00 0,00 4.730,91 15.626,89 31/03/2024
28 500500 ADRIANO DE ALMEIDA SILVA OFICIAL DO MP UBERABA - COMARCA; UBERABA-PJ-12PJ 10.858,90 2.171,78 0,00 0,00 0,00 0,00 0,00 4.250,81 17.281,49 1.857,73 1.594,11 0,00 0,00 3.451,84 13.829,65 31/03/2024
29 187200 ADRIANO DE FREITAS MARON OFICIAL DO MP PONTE NOVA - COMARCA; PONTE NOVA-PJ-03PJ 18.130,77 16.317,70 0,00 0,00 0,00 5.284,58 0,00 7.350,97 47.084,02 5.284,58 8.577,33 0,00 0,00 13.861,91 33.222,11 31/03/2024
30 477900 ADRIANO FERREIRA DE ALMEIDA OFICIAL DO MP TAIOBEIRAS - COMARCA; TAIOBEIRAS-PJ-UNPJ 10.858,90 3.257,67 0,00 0,00 0,00 0,00 0,00 5.058,95 19.175,52 2.031,47 2.323,13 0,00 0,00 4.354,60 14.820,92 31/03/2024
31 269101 ADRIANO PEREIRA SILVA ANALISTA DO MP BELO HORIZONTE - COMARCA; GABINETE DE PROCURADOR DE JUSTIÇA - SALA 913 12.343,61 3.703,08 0,00 0,00 0,00 0,00 0,00 7.076,07 23.122,76 2.340,29 2.716,85 0,00 0,00 5.057,14 18.065,62 31/03/2024
32 414200 ADRIANO RODRIGUES FERNANDES ANALISTA DO MP CARANDAÍ - COMARCA; CARANDAI-PJ-UNPJ 12.343,61 3.703,08 0,00 0,00 0,00 0,00 0,00 7.076,07 23.122,76 2.340,29 2.768,99 0,00 0,00 5.109,28 18.013,48 31/03/2024
33 759700 ADRIANO SIQUEIRA DA FONSECA ASSESSOR PROCURADOR JUSTICA BELO HORIZONTE - COMARCA; GABINETE DE PROCURADOR DE JUSTIÇA - SALA 407 0,00 0,00 8.810,89 0,00 0,00 0,00 0,00 2.583,00 11.393,89 908,85 1.821,01 0,00 0,00 2.729,86 8.664,03 31/03/2024
34 536700 ADRIELLE COSTA MARIA MOURAO FIGUEIREDO OFICIAL DO MP MONTES CLAROS - COMARCA; MONTES CLAROS-PJ-06PJ 7.506,70 1.501,34 0,00 0,00 0,00 0,00 0,00 3.729,58 12.737,62 1.214,11 1.247,33 0,00 0,00 2.461,44 10.276,18 31/03/2024
35 514300 ADRIENE DAMASCENO BRAGA ANALISTA DO MP ALFENAS - COMARCA; ALFENAS-PJ-03PJ 12.343,61 2.468,72 0,00 0,00 0,00 0,00 0,00 5.545,47 20.357,80 2.142,79 2.588,12 0,00 0,00 4.730,91 15.626,89 31/03/2024
36 254600 ADRIENE DOMINGUES COSTA ANALISTA DO MP BELO HORIZONTE - COMARCA; SUPER DE GESTAO DE PESSOAS-LOTACAO TEMPORARIA 23.070,31 9.228,12 0,00 0,00 0,00 0,00 0,00 0,00 32.298,43 4.940,57 6.627,41 0,00 0,00 11.567,98 20.730,45 31/03/2024
37 252001 ADRIENE GOMES BARRETO ANALISTA DO MP BELO HORIZONTE - COMARCA; BH-19PJ SAUDE-SECRETARIA 047PJ 20.533,67 10.266,84 0,00 0,00 0,00 0,00 0,00 8.743,10 39.543,61 4.700,90 6.281,39 0,00 0,00 10.982,29 28.561,32 31/03/2024
38 714800 ADSON GUSTAVO DE OLIVEIRA ASSESSOR PROCURADOR JUSTICA BELO HORIZONTE - COMARCA; GABINETE DE PROCURADOR DE JUSTIÇA - SALA 803 0,00 0,00 8.810,89 0,00 0,00 0,00 0,00 2.583,00 11.393,89 908,85 1.821,01 0,00 0,00 2.729,86 8.664,03 31/03/2024
39 724600 AECIO BRAS SILVA JUNIOR ASSESSOR PROMOTOR JUSTICA BAMBUÍ - COMARCA; BAMBUI-PJ-UNPJ 0,00 0,00 8.810,89 0,00 0,00 0,00 0,00 2.583,00 11.393,89 908,85 1.821,01 0,00 0,00 2.729,86 8.664,03 31/03/2024
40 302500 AGENOR JOSE DA SILVA JUNIOR ANALISTA DO MP JUIZ DE FORA - COMARCA; JUIZ DE FORA-PJ-07PJ 23.070,31 6.921,09 0,00 0,00 0,00 0,00 0,00 9.727,86 39.719,26 4.571,45 5.938,07 0,00 0,00 10.509,52 29.209,74 31/03/2024
41 357500 AILSON WAGNER DE ALENCAR SILVA OFICIAL DO MP BELO HORIZONTE - COMARCA; BH-12PJ JUIZO CRIMINAL-SECRETARIA 15.447,01 7.723,51 0,00 0,00 0,00 0,00 0,00 8.143,92 31.314,44 3.480,10 4.414,59 0,00 0,00 7.894,69 23.419,75 31/03/2024
42 366400 AILTON ALEXSSANDRO ALVES OFICIAL DO MP PARÁ DE MINAS - COMARCA; PARA DE MINAS-PJ-05PJ 12.343,61 4.937,44 0,00 0,00 0,00 0,00 0,00 2.583,00 19.864,05 2.537,79 3.158,40 0,00 0,00 5.696,19 14.167,86 31/03/2024
43 318900 AILTON DE CASTRO RIBEIRO JUNIOR OFICIAL DO MP CANDEIAS - COMARCA; CANDEIAS-PJ-UNPJ 12.343,61 3.703,08 0,00 0,00 0,00 0,00 0,00 7.076,07 23.122,76 2.340,29 2.716,85 0,00 0,00 5.057,14 18.065,62 31/03/2024
44 464400 ALAN MONTEIRO GASPAR ANALISTA DO MP SETE LAGOAS - COMARCA; SETE LAGOAS-PJ-08PJ 12.343,61 2.468,72 0,00 0,00 0,00 0,00 543,12 8.507,93 23.863,38 2.142,79 2.588,12 0,00 0,00 4.730,91 19.132,47 31/03/2024
45 492000 ALANA DE CASTRO FREITAS OFICIAL DO MP BELO HORIZONTE - COMARCA; SECRETARIA DO PROCON-MG 8.264,07 1.652,81 0,00 0,00 0,00 0,00 0,00 2.583,00 12.499,88 1.359,52 1.457,27 0,00 0,00 2.816,79 9.683,09 31/03/2024
46 306700 ALANA MARCIA DE OLIVEIRA OFICIAL DO MP BELO HORIZONTE - COMARCA; DIRETORIA DE ADMINISTRACAO FINANCEIRA 12.343,61 3.703,08 0,00 0,00 0,00 0,00 0,00 7.076,07 23.122,76 2.340,29 2.873,26 0,00 0,00 5.213,55 17.909,21 31/03/2024
47 324500 ALANMAR COUTINHO COSTA OFICIAL DO MP LEOPOLDINA - COMARCA; LEOPOLDINA-PJ-02PJ 12.343,61 3.703,08 0,00 0,00 0,00 0,00 0,00 7.076,07 23.122,76 2.340,29 2.768,99 0,00 0,00 5.109,28 18.013,48 31/03/2024
48 407300 ALBERTO LUIZ SOARES DE OLIVEIRA ANALISTA DO MP BELO HORIZONTE - COMARCA; DIRETORIA DE PROJETOS DE EDIFICACOES 18.130,77 5.439,23 0,00 0,00 0,00 0,00 0,00 2.583,00 26.153,00 3.544,02 4.611,14 0,00 0,00 8.155,16 17.997,84 31/03/2024
49 118200 ALBERTO PEREIRA DA COSTA OFICIAL DO MP DORES DO INDAIÁ - COMARCA; DORES DO INDAIA-PJ-UNPJ 23.070,31 20.763,28 0,00 0,00 0,00 6.127,65 0,00 8.084,44 58.045,68 6.127,65 9.974,23 4.115,90 0,00 20.217,78 37.827,90 31/03/2024
50 282400 ALCILENE MARISE DE ARAUJO ANALISTA DO MP BELO HORIZONTE - COMARCA; BH-23PJ INF-FISC MED SOC FEC 23.070,31 9.228,12 0,00 0,00 0,00 0,00 473,71 7.750,75 40.522,89 4.940,57 6.575,27 0,00 0,00 11.515,84 29.007,05 31/03/2024
51 396400 ALCIONE DE FREITAS E SILVA ANALISTA DO MP BELO HORIZONTE - COMARCA; ASSESS JUR DO CONS SUPERIOR DO MINISTERIO PUB 20.533,67 10.266,84 0,00 0,00 0,00 0,00 0,00 2.583,00 33.383,51 4.700,90 6.281,39 0,00 0,00 10.982,29 22.401,22 31/03/2024
52 657400 ALCIONE MARIA FERREIRA ASSESSOR PROCURADOR JUSTICA BELO HORIZONTE - COMARCA; GABINETE DE PROCURADOR DE JUSTICA - SALA 313 0,00 0,00 8.810,89 0,00 0,00 0,00 0,00 3.729,58 12.540,47 908,85 1.821,01 0,00 0,00 2.729,86 9.810,61 31/03/2024
53 161600 ALCIONE NERY SOUZA ASSESSOR ADMINISTRATIVO III BELO HORIZONTE - COMARCA; BH-18PJ DIREITOS HUMANOS-SECRETARIA 0,00 5.429,45 10.858,90 0,00 0,00 0,00 0,00 2.583,00 18.871,35 908,85 3.877,31 0,00 0,00 4.786,16 14.085,19 31/03/2024
54 376000 ALDA GOMES LANA OFICIAL DO MP BELO HORIZONTE - COMARCA; BH-18PJ VIOLENCIA DOMESTICA-SECRETARIA 12.343,61 3.703,08 0,00 0,00 0,00 0,00 0,00 7.076,07 23.122,76 2.340,29 2.821,12 0,00 0,00 5.161,41 17.961,35 31/03/2024
55 148000 ALDA MARTINS SIMOES OFICIAL DO MP BELO HORIZONTE - COMARCA; BH-23PJ CIVEL- FISC ENT AB POL 23.070,31 16.149,22 0,00 0,00 0,00 0,00 431,41 7.289,34 46.940,28 6.047,95 8.226,18 0,00 0,00 14.274,13 32.666,15 31/03/2024
56 318400 ALDO CREPALDI JUNIOR OFICIAL DO MP BELO HORIZONTE - COMARCA; DIVISAO DE MATERIAIS 12.343,61 3.703,08 0,00 0,00 0,00 0,00 0,00 7.076,07 23.122,76 2.340,29 2.821,12 0,00 0,00 5.161,41 17.961,35 31/03/2024
57 604500 ALENIZE APARECIDA RODRIGUES HENRIQUE OFICIAL DO MP RIO NOVO - COMARCA; RIO NOVO-PJ-SECRETARIA 7.506,70 1.501,34 0,00 0,00 0,00 0,00 0,00 2.583,00 11.591,04 1.214,11 1.247,33 0,00 0,00 2.461,44 9.129,60 31/03/2024
58 197900 ALESSA DE SOUSA E SILVA OFICIAL DO MP OLIVEIRA - COMARCA; OLIVEIRA-PJ-02PJ 22.191,68 8.876,67 0,00 0,00 0,00 0,00 0,00 8.983,84 40.052,19 4.743,76 6.238,99 0,00 0,00 10.982,75 29.069,44 31/03/2024
59 428500 ALESSANDRA ALVES DINIZ OFICIAL DO MP BELO HORIZONTE - COMARCA; CENTRAL DE APOIO TECNICO-SECRETARIA 10.858,90 7.601,23 0,00 0,00 0,00 0,00 2.171,78 9.315,52 29.947,43 3.073,93 3.932,44 0,00 0,00 7.006,37 22.941,06 31/03/2024
60 286801 ALESSANDRA BOTELHO JUNQUEIRA DE MENEZES ANALISTA DO MP PASSOS - COMARCA; PASSOS-PJ-05PJ 18.720,84 7.488,34 0,00 0,00 0,00 0,00 0,00 3.729,58 29.938,76 3.966,29 5.012,25 0,00 0,00 8.978,54 20.960,22 31/03/2024
61 307000 ALESSANDRA CRISTINA SANTOS MENDES ANALISTA DO MP BELO HORIZONTE - COMARCA; BH-18PJ VIOLENCIA DOMESTICA-SECRETARIA 21.346,53 6.403,96 0,00 0,00 0,00 0,00 0,00 8.133,10 35.883,59 4.212,90 5.524,70 0,00 0,00 9.737,60 26.145,99 31/03/2024
62 264400 ALESSANDRA DE SOUZA SANTOS ANALISTA DO MP BELO HORIZONTE - COMARCA; SECRETARIA DE ASSUNTOS INTERNACIONAIS 23.070,31 11.535,16 0,00 0,00 0,00 0,00 0,00 2.583,00 37.188,47 5.309,70 7.160,34 0,00 0,00 12.470,04 24.718,43 31/03/2024
63 441500 ALESSANDRA DRUMMOND DE FIGUEIREDO ROSSI ANALISTA DO MP BELO HORIZONTE - COMARCA; DIRETORIA DE PROJETOS DE EDIFICACOES 12.343,61 2.468,72 0,00 0,00 0,00 0,00 0,00 2.583,00 17.395,33 2.142,79 2.588,12 0,00 0,00 4.730,91 12.664,42 31/03/2024
64 524000 ALESSANDRA LUCIOLI DE BARROS ANALISTA DO MP BELO HORIZONTE - COMARCA; BH-19PJ SAUDE--SECRETARIA 12.343,61 2.468,72 0,00 0,00 0,00 0,00 0,00 5.545,47 20.357,80 2.142,79 2.535,99 0,00 0,00 4.678,78 15.679,02 31/03/2024
65 479900 ALESSANDRA MARA ANDRADE DE FARIA OFICIAL DO MP UBERABA - COMARCA; UBERABA-PJ-09PJ 10.858,90 2.171,78 0,00 0,00 0,00 0,00 0,00 3.104,23 16.134,91 1.857,73 2.176,56 0,00 0,00 4.034,29 12.100,62 31/03/2024
66 226700 ALESSANDRA MARA VASCONCELOS REZENDE OFICIAL DO MP CONSELHEIRO LAFAIETE - COMARCA; CONSELHEIRO LAFAIETE-PJ-07PJ 18.130,77 7.252,31 0,00 0,00 0,00 0,00 0,00 8.674,94 34.058,02 3.834,11 5.029,97 0,00 0,00 8.864,08 25.193,94 31/03/2024
67 196500 ALESSANDRA MARIA RIBEIRO LUCIANO OFICIAL DO MP RIO PARANAÍBA - COMARCA; RIO PARANAIBA-PJ-UNPJ 22.191,68 11.095,84 0,00 0,00 0,00 0,00 0,00 2.583,00 35.870,52 5.098,82 6.751,62 0,00 0,00 11.850,44 24.020,08 31/03/2024
68 651700 ALESSANDRA PROFIRIO SOUZA OFICIAL DO MP NOVA ERA - COMARCA; NOVA ERA-PJ-UNPJ 6.603,76 660,38 0,00 0,00 0,00 0,00 0,00 2.583,00 9.847,14 937,69 791,64 0,00 0,00 1.729,33 8.117,81 31/03/2024
69 384900 ALESSANDRA RODRIGUES ANALISTA DO MP VISCONDE DO RIO BRANCO - COMARCA; VISCONDE DO RIO BRANCO-PJ-03PJ 20.533,67 6.160,10 0,00 0,00 0,00 0,00 0,00 9.068,33 35.762,10 4.043,82 5.228,46 0,00 0,00 9.272,28 26.489,82 31/03/2024
70 390000 ALESSANDRA SPADANO MASSARA VASCONCELOS OFICIAL DO MP BETIM - COMARCA; BETIM-PJ-10PJ 12.343,61 3.703,08 0,00 0,00 0,00 0,00 0,00 2.583,00 18.629,69 2.340,29 2.873,26 0,00 0,00 5.213,55 13.416,14 31/03/2024
71 426500 ALESSANDRO CAMPOS DE PAIVA ANALISTA DO MP BELO HORIZONTE - COMARCA; DIR CRIACAO E MIDIAS 18.720,84 5.616,25 0,00 0,00 0,00 0,00 1.848,03 2.583,00 28.768,12 3.666,76 5.296,55 0,00 0,00 8.963,31 19.804,81 31/03/2024
72 623400 ALESSANDRO DE OLIVEIRA REZENDE ANALISTA DO MP BELO HORIZONTE - COMARCA; DIRET DE INFORMACAO E CONHECIMENTO-DINC/CEAF 12.343,61 1.234,36 0,00 0,00 0,00 0,00 0,00 2.583,00 16.160,97 1.945,30 2.302,98 0,00 0,00 4.248,28 11.912,69 31/03/2024
73 420600 ALESSANDRO SILVA OFICIAL DO MP VISCONDE DO RIO BRANCO - COMARCA; VISCONDE DO RIO BRANCO-PJ-02PJ 11.954,43 4.781,77 0,00 0,00 0,00 0,00 0,00 7.269,14 24.005,34 2.450,61 2.568,35 0,00 0,00 5.018,96 18.986,38 31/03/2024
74 375301 ALETHEIA PATRICIA ASSIS MORAIS MOREIRA ANALISTA DO MP ITABIRA - COMARCA; ITABIRA-PJ-02PJ 12.343,61 3.703,08 0,00 0,00 0,00 0,00 0,00 8.222,65 24.269,34 2.340,29 2.821,12 0,00 0,00 5.161,41 19.107,93 31/03/2024
75 382300 ALEX CARVALHO LIMA ANALISTA DO MP UBERLÂNDIA - COMARCA; UBERLANDIA-PJ-14PJ 20.533,67 6.160,10 0,00 0,00 0,00 0,00 0,00 11.361,49 38.055,26 4.043,82 5.332,74 0,00 0,00 9.376,56 28.678,70 31/03/2024
76 195201 ALEX DE CASTRO PEREIRA ANALISTA DO MP UBERABA - COMARCA; UBERABA-PJ-09PJ 23.070,31 9.228,12 0,00 0,00 0,00 0,00 0,00 7.750,75 40.049,18 4.940,57 6.627,41 0,00 0,00 11.567,98 28.481,20 31/03/2024
77 358900 ALEX DE PAULA LANZA ASSESSOR ADMINISTRATIVO IV BELO HORIZONTE - COMARCA; DIR CONTEUDO JORNALISTICO 0,00 0,00 14.488,22 0,00 0,00 0,00 531,23 9.524,87 24.544,32 908,85 3.382,28 0,00 0,00 4.291,13 20.253,19 31/03/2024
78 178400 ALEX RODRIGO SALDANHA GUIMARAES OFICIAL DO MP BELO HORIZONTE - COMARCA; DIRETORIA DE SISTEMAS DE INFORMACAO 7.506,70 3.002,68 0,00 0,00 0,00 0,00 0,00 2.583,00 13.092,38 1.454,32 1.594,14 0,00 0,00 3.048,46 10.043,92 31/03/2024
79 413500 ALEX VILELA OLIVEIRA ANALISTA DO MP GOVERNADOR VALADARES - COMARCA; COORD REG PJ DEF EDU DIR CRIANCA ADOL RIODOCE 18.720,84 5.616,25 0,00 0,00 0,00 0,00 0,00 8.423,90 32.760,99 3.666,76 4.788,34 0,00 0,00 8.455,10 24.305,89 31/03/2024
80 264300 ALEXANDRA FATIMA SARAIVA SOARES ANALISTA DO MP BELO HORIZONTE - COMARCA; CENTRAL DE APOIO TECN-SETOR DE MEIO AMBIENTE 23.070,31 9.228,12 0,00 0,00 0,00 0,00 473,71 7.750,75 40.522,89 4.940,57 6.627,41 0,00 0,00 11.567,98 28.954,91 31/03/2024
81 488000 ALEXANDRA LARA PAIS DE CARVALHO ANALISTA DO MP SABARÁ - COMARCA; SABARA-PJ-04PJ 12.343,61 2.468,72 0,00 0,00 0,00 0,00 0,00 5.545,47 20.357,80 2.142,79 2.431,71 0,00 0,00 4.574,50 15.783,30 31/03/2024
82 256300 ALEXANDRA SANTOS GOMES OFICIAL DO MP BELO HORIZONTE - COMARCA; DIRETORIA GESTAO COMPRAS LICITACOES 12.343,61 4.937,44 0,00 0,00 0,00 0,00 0,00 2.583,00 19.864,05 2.537,79 3.158,40 0,00 0,00 5.696,19 14.167,86 31/03/2024
83 403300 ALEXANDRE AUGUSTO RODRIGUES ANALISTA DO MP ÁGUAS FORMOSAS - COMARCA; AGUAS FORMOSAS-PJ-UNPJ 12.343,61 3.703,08 0,00 0,00 0,00 0,00 0,00 4.876,16 20.922,85 2.340,29 2.873,26 0,00 0,00 5.213,55 15.709,30 31/03/2024
84 640900 ALEXANDRE BARBOSA MASCARENHAS ANALISTA DO MP BETIM - COMARCA; BETIM-PJ-02PJ 9.699,77 969,98 0,00 0,00 0,00 0,00 0,00 2.583,00 13.252,75 1.018,60 1.432,48 0,00 0,00 2.451,08 10.801,67 31/03/2024
85 311700 ALEXANDRE BARCELOS RESENDE OFICIAL DO MP BELO HORIZONTE - COMARCA; BH-17PJ PATRIMONIO PUBLICO-SECRETARIA 11.212,54 3.363,76 0,00 0,00 0,00 0,00 267,23 6.644,84 21.488,37 2.105,03 2.533,60 0,00 0,00 4.638,63 16.849,74 31/03/2024
86 285600 ALEXANDRE CAMPOS DE OLIVEIRA OFICIAL DO MP UBERABA - COMARCA; COORD REG BACIAS PARANAIBA BAIXO RIO GRANDE 12.343,61 4.937,44 0,00 0,00 0,00 0,00 0,00 7.421,69 24.702,74 2.537,79 3.001,98 0,00 0,00 5.539,77 19.162,97 31/03/2024
87 509200 ALEXANDRE CAPUANO DE REZENDE ANALISTA DO MP BELO HORIZONTE - COMARCA; BH-07PJ 03 TRIBUNAL DO JURI-GAB 061PJ 12.343,61 2.468,72 0,00 0,00 0,00 0,00 0,00 2.583,00 17.395,33 2.142,79 2.535,99 0,00 0,00 4.678,78 12.716,55 31/03/2024
88 229400 ALEXANDRE CARLOS BOTREL SUPERINTENDENTE BELO HORIZONTE - COMARCA; SUPERINTENDENCIA DOS ORGAOS COLEGIADOS 28.013,39 11.205,36 0,00 0,00 0,00 0,00 0,00 7.289,25 46.508,00 3.966,29 8.798,43 0,00 0,00 12.764,72 33.743,28 31/03/2024
89 411900 ALEXANDRE CARVALHO SANTOS RIBEIRO ANALISTA DO MP OLIVEIRA - COMARCA; OLIVEIRA-PJ-02PJ 18.720,84 5.616,25 0,00 0,00 0,00 0,00 0,00 9.570,48 33.907,57 3.666,76 4.788,34 0,00 0,00 8.455,10 25.452,47 31/03/2024
90 641600 ALEXANDRE DA SILVA ASSUNCAO OFICIAL DO MP BELO HORIZONTE - COMARCA; SERVICO MEDICO-DEPTO PERIC MEDICA SAUDE OCUP 6.818,83 681,88 0,00 0,00 0,00 0,00 550,05 9.730,15 17.780,91 974,36 898,75 0,00 0,00 1.873,11 15.907,80 31/03/2024
91 201200 ALEXANDRE DE ALENCAR CORDEIRO OFICIAL DO MP ÁGUAS FORMOSAS - COMARCA; AGUAS FORMOSAS-PJ-UNPJ 7.506,70 5.254,69 0,00 0,00 0,00 0,00 0,00 3.093,46 15.854,85 1.814,64 2.114,36 0,00 0,00 3.929,00 11.925,85 31/03/2024
92 288200 ALEXANDRE DE VASCONCELOS COSTA KER ANALISTA DO MP BELO HORIZONTE - COMARCA; BH-03PJ EMPRESARIAL-SECRETARIA 23.070,31 9.228,12 0,00 0,00 0,00 0,00 0,00 7.750,75 40.049,18 4.940,57 6.575,27 0,00 0,00 11.515,84 28.533,34 31/03/2024
93 445000 ALEXANDRE DIOGENES OLIVEIRA ANALISTA DO MP SALINAS - COMARCA; SALINAS-PJ-02PJ 14.960,00 2.992,00 0,00 0,00 0,00 0,00 0,00 3.729,58 21.681,58 2.645,14 3.313,39 0,00 0,00 5.958,53 15.723,05 31/03/2024
94 463400 ALEXANDRE LEAL WINKELSTROTER ANALISTA DO MP TEÓFILO OTONI - COMARCA; TEOFILO OTONI-PJ-04PJ 12.343,61 3.209,34 0,00 0,00 0,00 0,00 0,00 2.583,00 18.135,95 2.261,29 2.759,21 0,00 0,00 5.020,50 13.115,45 31/03/2024
95 615700 ALEXANDRE LUIZ DE CASTRO MACIEL ANALISTA DO MP BELO HORIZONTE - COMARCA; BH-08PJ JUIZADO ESPECIAL-GAB 163PJ 12.343,61 1.974,98 0,00 0,00 0,00 0,00 0,00 6.593,30 20.911,89 2.063,80 2.421,93 0,00 0,00 4.485,73 16.426,16 31/03/2024
96 356900 ALEXANDRE MOISES MENDONCA E ARAUJO OFICIAL DO MP UBERABA - COMARCA; UBERABA-PJ-13PJ 10.516,49 3.154,95 0,00 0,00 0,00 0,00 0,00 3.729,58 17.401,02 1.960,25 2.324,58 0,00 0,00 4.284,83 13.116,19 31/03/2024
97 633300 ALEXANDRE NONATO MARTINS OFICIAL DO MP CAMPESTRE - COMARCA; CAMPESTRE-PJ-UNPJ 6.818,83 681,88 0,00 0,00 0,00 0,00 0,00 2.583,00 10.083,71 974,36 846,61 0,00 0,00 1.820,97 8.262,74 31/03/2024
98 469900 ALEXANDRE PEREIRA GUEDES ANALISTA DO MP CATAGUASES - COMARCA; CATAGUASES-PJ-03PJ 12.343,61 2.468,72 0,00 0,00 0,00 0,00 0,00 5.545,47 20.357,80 2.142,79 2.588,12 0,00 0,00 4.730,91 15.626,89 31/03/2024
99 208700 ALEXANDRE RESENDE FRAGA ANALISTA DO MP BELO HORIZONTE - COMARCA; BH-19PJ SAUDE-SECRETARIA 130PJ 23.070,31 9.228,12 0,00 0,00 0,00 0,00 473,71 7.750,75 40.522,89 4.940,57 6.471,00 0,00 0,00 11.411,57 29.111,32 31/03/2024
100 216401 ALEXANDRE RIBEIRO DE LIMA MAIORINO ANALISTA DO MP UBERABA - COMARCA; UBERABA-PJ-03PJ 23.070,31 9.228,12 0,00 0,00 0,00 0,00 0,00 7.750,75 40.049,18 4.940,57 6.575,27 0,00 0,00 11.515,84 28.533,34 31/03/2024
101 475100 ALEXANDRE TEOTONIO COSTA ANALISTA DO MP ARAGUARI - COMARCA; ARAGUARI-PJ-01PJ 12.343,61 2.468,72 0,00 0,00 0,00 0,00 0,00 5.545,47 20.357,80 2.142,79 2.483,85 0,00 0,00 4.626,64 15.731,16 31/03/2024
102 339000 ALEXANDRE VITOR CARDOSO OFICIAL DO MP BELO HORIZONTE - COMARCA; BH-23PJ INFRACIONAL-SEC EXP 7.506,70 2.252,01 0,00 0,00 0,00 0,00 0,00 2.583,00 12.341,71 1.334,22 1.264,32 0,00 0,00 2.598,54 9.743,17 31/03/2024
103 623100 ALEXSANDER BATISTA AGUIAR COORDENADOR II BELO HORIZONTE - COMARCA; DIRETORIA DE SUPORTE E MANUTENCAO 20.533,67 2.053,37 0,00 0,00 0,00 0,00 0,00 9.150,47 31.737,51 1.945,30 4.624,07 0,00 0,00 6.569,37 25.168,14 31/03/2024
104 513300 ALFSON MIRANDA BRAGA ANALISTA DO MP BELO HORIZONTE - COMARCA; BH-12PJ JUIZO CRIMINAL-GAB 087PJ 12.343,61 2.468,72 0,00 0,00 0,00 0,00 0,00 2.583,00 17.395,33 2.142,79 2.588,12 0,00 0,00 4.730,91 12.664,42 31/03/2024
105 618400 ALICE MAGALHAES MACEDO DE CARVALHO ANALISTA DO MP IPATINGA - COMARCA; IPATINGA-PJ-10PJ 12.343,61 1.234,36 0,00 0,00 0,00 0,00 0,00 5.358,94 18.936,91 1.945,30 2.302,98 0,00 0,00 4.248,28 14.688,63 31/03/2024
106 707000 ALICE MARIA RIBEIRO DINIZ ASSESSOR PROMOTOR JUSTICA BELO HORIZONTE - COMARCA; PROC JUST ATUACAO TRIBUNAIS SUPERIORES-GAB003 0,00 0,00 8.810,89 0,00 0,00 0,00 0,00 2.583,00 11.393,89 908,85 1.821,01 0,00 0,00 2.729,86 8.664,03 31/03/2024
107 471000 ALICE TITONELI MOREIRA ANALISTA DO MP MIRADOURO - COMARCA; MIRADOURO-PJ-UNPJ 12.343,61 2.468,72 0,00 0,00 0,00 0,00 0,00 3.729,58 18.541,91 2.142,79 2.483,85 0,00 0,00 4.626,64 13.915,27 31/03/2024
108 731600 ALICIA PAULA RODRIGUES DE LIMA ASSESSOR PROMOTOR JUSTICA TIROS - COMARCA; TIROS-PJ-UNPJ 0,00 0,00 8.810,89 0,00 0,00 0,00 0,00 2.583,00 11.393,89 908,85 1.821,01 0,00 0,00 2.729,86 8.664,03 31/03/2024
109 725800 ALINE ALBIERI FRANCISCO ASSESSOR PROMOTOR JUSTICA BELO HORIZONTE - COMARCA; CAO-ORDEM ECONOMICA E TRIBUTARIA-ASSESS TECN 0,00 0,00 8.810,89 0,00 0,00 0,00 0,00 2.583,00 11.393,89 908,85 1.821,01 0,00 0,00 2.729,86 8.664,03 31/03/2024
110 733200 ALINE APARECIDA DO PRADO TERRITO ASSESSOR ADMINISTRATIVO II BELO HORIZONTE - COMARCA; ESCRITORIO DE PROTECAO DE DADOS PESSOAIS 0,00 0,00 7.506,70 0,00 0,00 0,00 0,00 2.583,00 10.089,70 908,85 1.462,36 0,00 0,00 2.371,21 7.718,49 31/03/2024
111 622400 ALINE BALBINO PORTUGAL LOPES ANALISTA DO MP TRÊS PONTAS - COMARCA; TRES PONTAS-PJ-03PJ 12.343,61 1.234,36 0,00 0,00 0,00 0,00 0,00 5.358,94 18.936,91 1.945,30 2.302,98 0,00 0,00 4.248,28 14.688,63 31/03/2024
112 373000 ALINE BOTELHO RESENDE OFICIAL DO MP JUIZ DE FORA - COMARCA; JUIZ DE FORA-PJ-22PJ 12.343,61 3.703,08 0,00 0,00 0,00 0,00 0,00 2.583,00 18.629,69 2.340,29 2.873,26 0,00 0,00 5.213,55 13.416,14 31/03/2024
113 758600 ALINE BRAGA MESSIAS ASSESSOR PROMOTOR JUSTICA BELO HORIZONTE - COMARCA; BH-02PJ FAMILIA-SECRETARIA 0,00 0,00 8.810,89 0,00 0,00 0,00 0,00 2.583,00 11.393,89 908,85 1.821,01 0,00 0,00 2.729,86 8.664,03 31/03/2024
114 699800 ALINE CRISTINA DE OLIVEIRA AMARAL BARBOSA ASSESSOR PROCURADOR JUSTICA BELO HORIZONTE - COMARCA; GABINETE DE PROCURADOR DE JUSTIÇA - SALA 904 0,00 0,00 8.810,89 0,00 2.936,96 0,00 0,00 2.583,00 14.330,85 908,85 2.524,40 0,00 0,00 3.433,25 10.897,60 31/03/2024
115 407700 ALINE CRISTINA RODRIGUES PEREIRA COORDENADOR II BELO HORIZONTE - COMARCA; DIRETORIA DE PROJETOS DE EDIFICACOES 20.533,67 6.160,10 0,00 0,00 0,00 0,00 0,00 7.921,75 34.615,52 2.340,29 5.801,21 0,00 0,00 8.141,50 26.474,02 31/03/2024
116 193100 ALINE CRISTINA SENA OLIVEIRA OFICIAL DO MP UBERLÂNDIA - COMARCA; UBERLANDIA-PJ-03PJ 21.346,53 8.538,61 0,00 0,00 0,00 0,00 0,00 9.706,61 39.591,75 4.554,44 6.017,81 0,00 0,00 10.572,25 29.019,50 31/03/2024
117 554200 ALINE CRISTINA SILVA SOUZA OFICIAL DO MP TIROS - COMARCA; TIROS-PJ-UNPJ 7.506,70 1.501,34 0,00 0,00 0,00 0,00 0,00 2.583,00 11.591,04 1.214,11 1.247,33 0,00 0,00 2.461,44 9.129,60 31/03/2024
118 505500 ALINE DA CUNHA MARREIROS OLIVEIRA ANALISTA DO MP EUGENÓPOLIS - COMARCA; EUGENOPOLIS-PJ-UNPJ 12.343,61 2.468,72 0,00 0,00 0,00 0,00 0,00 4.876,16 19.688,49 2.142,79 2.535,99 0,00 0,00 4.678,78 15.009,71 31/03/2024
119 433500 ALINE DE MELO QUEIROZ OFICIAL DO MP BELO HORIZONTE - COMARCA; ASSESSORIA JURIDICA DO PROCON-MG 12.343,61 2.468,72 4.020,58 0,00 0,00 0,00 552,43 9.756,11 29.141,45 2.142,79 3.693,78 0,00 0,00 5.836,57 23.304,88 31/03/2024
120 691100 ALINE DE MELO SOUZA ASSESSOR PROCURADOR JUSTICA BELO HORIZONTE - COMARCA; GABINETE DE PROCURADOR DE JUSTIÇA - SALA 401 0,00 0,00 8.810,89 0,00 0,00 0,00 0,00 2.583,00 11.393,89 908,85 1.821,01 0,00 0,00 2.729,86 8.664,03 31/03/2024
121 542700 ALINE DE SOUSA ALBINO ANALISTA DO MP CONTAGEM - COMARCA; CONTAGEM-PJ-09PJ 12.343,61 2.468,72 0,00 0,00 0,00 0,00 0,00 5.545,47 20.357,80 2.142,79 2.588,12 0,00 0,00 4.730,91 15.626,89 31/03/2024
122 330000 ALINE DIORIO MAYRINK OFICIAL DO MP BELO HORIZONTE - COMARCA; SUPER DE GESTAO DE PESSOAS-LOTACAO TEMPORARIA 10.015,59 2.003,12 0,00 0,00 0,00 0,00 0,00 2.583,00 14.601,71 1.695,82 1.942,79 0,00 0,00 3.638,61 10.963,10 31/03/2024
123 499000 ALINE FERREIRA LOPES ANALISTA DO MP TEÓFILO OTONI - COMARCA; TEOFILO OTONI-PJ-09PJ 12.343,61 2.468,72 0,00 0,00 0,00 0,00 0,00 5.545,47 20.357,80 2.142,79 2.535,99 0,00 0,00 4.678,78 15.679,02 31/03/2024
124 405300 ALINE LAIA CARDOZO SUPERINTENDENTE BELO HORIZONTE - COMARCA; SUPERINTENDENCIA LOGISTICA SERVICOS 28.013,39 8.404,02 0,00 0,00 0,00 0,00 0,00 8.409,79 44.827,20 4.043,82 8.006,74 0,00 0,00 12.050,56 32.776,64 31/03/2024
125 278200 ALINE MARCIA FARIA BARBOSA FERNANDES OFICIAL DO MP BARBACENA - COMARCA; BARBACENA-PJ-SECRETARIA 10.516,49 4.206,60 0,00 0,00 0,00 0,00 0,00 5.527,62 20.250,71 2.128,52 2.463,23 0,00 0,00 4.591,75 15.658,96 31/03/2024
126 389000 ALINE NERI NOBRE ANALISTA DO MP MONTES CLAROS - COMARCA; COORD REG PJ DEF EDUC DIR CRIANCA ADOL NORTE 20.533,67 8.213,47 0,00 0,00 0,00 0,00 0,00 8.332,43 37.079,57 4.372,36 5.807,06 0,00 0,00 10.179,42 26.900,15 31/03/2024
127 294600 ALINE PATRICIA SILVA VIEIRA OFICIAL DO MP UBERLÂNDIA - COMARCA; UBERLANDIA-PJ-03PJ 15.447,01 6.178,80 0,00 0,00 0,00 0,00 1.771,66 8.198,39 31.595,86 3.232,95 4.440,69 0,00 0,00 7.673,64 23.922,22 31/03/2024
128 420000 ALINE RODRIGUES CAMOROPIN ANALISTA DO MP SABARÁ - COMARCA; SABARA-PJ-02PJ 18.720,84 5.616,25 0,00 0,00 0,00 0,00 0,00 8.423,90 32.760,99 3.666,76 4.788,34 0,00 0,00 8.455,10 24.305,89 31/03/2024
129 715800 ALINE SANTOS PEDROSA MAIA BARBOSA ASSESSOR PROCURADOR JUSTICA BELO HORIZONTE - COMARCA; GABINETE DE PROCURADOR DE JUSTIÇA - SALA 1010 0,00 0,00 8.810,89 0,00 0,00 0,00 0,00 2.583,00 11.393,89 908,85 1.821,01 0,00 0,00 2.729,86 8.664,03 31/03/2024
130 699600 ALINE SEPULVEDA ROSA PIRES ASSESSOR PROCURADOR JUSTICA BELO HORIZONTE - COMARCA; GABINETE DE PROCURADOR DE JUSTIÇA - SALA 905 0,00 0,00 8.810,89 0,00 0,00 0,00 0,00 2.583,00 11.393,89 908,85 1.821,01 0,00 0,00 2.729,86 8.664,03 31/03/2024
131 408300 ALINE SILVA ARAUJO DE PAULA ANALISTA DO MP SÃO SEBASTIÃO DO PARAÍSO - COMARCA; SAO SEBASTIAO DO PARAISO-PJ-02PJ 18.720,84 5.616,25 0,00 0,00 0,00 0,00 0,00 8.423,90 32.760,99 1.018,60 5.357,28 0,00 0,00 6.375,88 26.385,11 31/03/2024
132 734300 ALINE TAVARES GURGEL ASSESSOR ADMINISTRATIVO III BELO HORIZONTE - COMARCA; SECRETARIA-GERAL 0,00 0,00 10.858,90 0,00 0,00 0,00 0,00 2.583,00 13.441,90 908,85 2.384,21 0,00 0,00 3.293,06 10.148,84 31/03/2024
133 425400 ALINE TRINDADE DE FREITAS CAMPOS OFICIAL DO MP BELO HORIZONTE - COMARCA; PROMOT ESTADUAL DE DEF PATRI CULT E TUR DE MG 12.343,61 3.703,08 0,00 0,00 0,00 0,00 0,00 2.583,00 18.629,69 2.340,29 2.873,26 0,00 0,00 5.213,55 13.416,14 31/03/2024
134 753900 ALINI PEREIRA DE ALMEIDA ASSESSOR PROMOTOR JUSTICA CAMPOS GERAIS - COMARCA; CAMPOS GERAIS-PJ-01PJ 0,00 0,00 8.810,89 0,00 0,00 0,00 0,00 2.583,00 11.393,89 908,85 1.821,01 0,00 0,00 2.729,86 8.664,03 31/03/2024
135 517200 ALISSOM PEREIRA DA SILVA ANALISTA DO MP BORDA DA MATA - COMARCA; BORDA DA MATA-PJ-UNPJ 12.343,61 3.703,08 0,00 0,00 0,00 0,00 0,00 8.222,65 24.269,34 2.340,29 2.873,26 0,00 0,00 5.213,55 19.055,79 31/03/2024
136 442400 ALISSON LABRE ANALISTA DO MP VARGINHA - COMARCA; VARGINHA-PJ-03PJ 13.588,97 2.717,79 0,00 0,00 0,00 0,00 0,00 7.148,89 23.455,65 1.018,60 3.308,24 0,00 0,00 4.326,84 19.128,81 31/03/2024
137 643800 ALLAN PAUL FONSECA DE CASTRO OFICIAL DO MP CONTAGEM - COMARCA; CONTAGEM-PJ-SECRETARIA 7.270,07 727,01 2.918,39 0,00 0,00 0,00 0,00 3.729,58 14.645,05 1.018,60 1.825,64 0,00 0,00 2.844,24 11.800,81 31/03/2024
138 612900 ALLAN VINICIUS VIEIRA ARAUJO COORDENADOR II BELO HORIZONTE - COMARCA; DIRETORIA DE GESTAO DOCUMENTAL 20.533,67 2.053,37 0,00 0,00 0,00 0,00 0,00 8.003,89 30.590,93 1.094,00 5.014,59 0,00 0,00 6.108,59 24.482,34 31/03/2024
139 349000 ALLEC RODRIGUES VIEIRA OFICIAL DO MP CAPINÓPOLIS - COMARCA; CAO-CIVEL 12.343,61 3.703,08 0,00 0,00 0,00 0,00 0,00 7.076,07 23.122,76 2.340,29 2.873,26 0,00 0,00 5.213,55 17.909,21 31/03/2024
140 297300 ALLYSON SALIBA MONTEIRO LAIZO ANALISTA DO MP CONSELHEIRO LAFAIETE - COMARCA; CONSELHEIRO LAFAIETE-PJ-03PJ 23.070,31 9.228,12 0,00 0,00 0,00 0,00 2.307,03 9.820,15 44.425,61 5.309,70 7.160,33 0,00 0,00 12.470,03 31.955,58 31/03/2024
141 303700 ALMIR LOPES LOURES ANALISTA DO MP BELO HORIZONTE - COMARCA; CENTRAL DE APOIO TECN-SETOR DE MEIO AMBIENTE 23.070,31 6.921,09 0,00 0,00 0,00 0,00 0,00 8.581,28 38.572,68 4.571,45 6.094,49 0,00 0,00 10.665,94 27.906,74 31/03/2024
142 743900 ALMIR MOREIRA DOS SANTOS ANALISTA DO MP BELO HORIZONTE - COMARCA; DIRETORIA DE ADMINISTRACAO FINANCEIRA 7.040,78 0,00 0,00 0,00 0,00 0,00 0,00 2.583,00 9.623,78 903,07 687,60 0,00 0,00 1.590,67 8.033,11 31/03/2024
143 696600 ALOIZIO MARTINS JALES JUNIOR ASSESSOR PROMOTOR JUSTICA CAMPESTRE - COMARCA; CAMPESTRE-PJ-SECRETARIA 0,00 0,00 8.810,89 0,00 0,00 0,00 0,00 2.583,00 11.393,89 908,85 1.821,01 0,00 0,00 2.729,86 8.664,03 31/03/2024
144 515900 ALTAIR NEVES JUNIOR OFICIAL DO MP BELO HORIZONTE - COMARCA; BH-01PJ FAZENDA PUBLICA-SECRETARIA 10.516,49 2.103,30 0,00 0,00 0,00 0,00 0,00 3.087,79 15.707,58 1.791,99 2.081,65 0,00 0,00 3.873,64 11.833,94 31/03/2024
145 233300 ALVARINDO BATISTA ANALISTA DO MP BELO HORIZONTE - COMARCA; DIR CRIACAO E MIDIAS 23.070,31 9.228,12 0,00 0,00 0,00 0,00 0,00 2.583,00 34.881,43 4.940,57 6.575,27 0,00 0,00 11.515,84 23.365,59 31/03/2024
146 750400 ALVARO HENRIQUE FERREIRA DA SILVA OFICIAL DO MP COMARCA - JUATUBA; JUATUBA-PJ-UNPJ 4.570,25 0,00 0,00 0,00 0,00 0,00 0,00 2.583,00 7.153,25 544,12 238,46 0,00 0,00 782,58 6.370,67 31/03/2024
147 274100 ALYSSON CARVALHO VIDAL DE LACERDA OFICIAL DO MP MANHUAÇU - COMARCA; MANHUACU-PJ-01PJ 12.343,61 4.937,44 0,00 0,00 0,00 0,00 0,00 2.583,00 19.864,05 2.537,79 3.158,40 0,00 0,00 5.696,19 14.167,86 31/03/2024
148 621000 AMANDA BASTOS ALVES ANALISTA DO MP BELO HORIZONTE - COMARCA; BH-07PJ 02 TRIBUNAL DO JURI-GAB 066PJ 12.343,61 1.234,36 0,00 0,00 0,00 0,00 0,00 2.583,00 16.160,97 1.018,60 2.438,37 0,00 0,00 3.456,97 12.704,00 31/03/2024
149 760600 AMANDA CARLA SILVA PEREIRA OFICIAL DO MP BELO HORIZONTE - COMARCA; SUPER DE GESTAO DE PESSOAS-LOTACAO TEMPORARIA 4.570,25 0,00 0,00 0,00 0,00 0,00 0,00 2.583,00 7.153,25 544,12 238,46 0,00 0,00 782,58 6.370,67 31/03/2024
150 521700 AMANDA CRISTINA AGUIAR MACHADO OFICIAL DO MP CONGONHAS - COMARCA; CONGONHAS-PJ-01PJ 7.424,48 1.501,34 0,00 0,00 0,00 0,00 561,50 8.708,46 18.195,78 1.214,11 1.172,58 0,00 0,00 2.386,69 15.809,09 31/03/2024
151 733500 AMANDA CRISTINA GONCALVES ASSESSOR ADMINISTRATIVO I PARACATU - COMARCA; COORD REG AP COM INCL MOB SOCIAIS NOROESTE MG 0,00 0,00 4.872,71 0,00 0,00 0,00 0,00 2.583,00 7.455,71 908,85 738,01 0,00 0,00 1.646,86 5.808,85 31/03/2024
152 713900 AMANDA DE ARAUJO CARVALHO ASSESSOR PROMOTOR JUSTICA ARAÇUAÍ - COMARCA; ARACUAI-PJ-01PJ 0,00 0,00 8.810,89 0,00 0,00 0,00 0,00 2.583,00 11.393,89 908,85 1.821,01 0,00 0,00 2.729,86 8.664,03 31/03/2024
153 613400 AMANDA DE ASSIS IUNES SANTOS ANALISTA DO MP CONGONHAS - COMARCA; CONGONHAS-PJ-01PJ 12.343,61 1.234,36 0,00 0,00 0,00 0,00 0,00 2.583,00 16.160,97 1.945,30 2.302,98 0,00 0,00 4.248,28 11.912,69 31/03/2024
154 695900 AMANDA DE OLIVEIRA ASSESSOR PROCURADOR JUSTICA BELO HORIZONTE - COMARCA; PROC JUST ATUACAO TRIBUNAIS SUPERIORES-GAB004 0,00 0,00 8.810,89 0,00 0,00 0,00 0,00 2.583,00 11.393,89 908,85 1.821,01 0,00 0,00 2.729,86 8.664,03 31/03/2024
155 520800 AMANDA DE SOUZA MACHADO ANALISTA DO MP BAEPENDI - COMARCA; BAEPENDI-PJ-UNPJ 12.343,61 2.468,72 0,00 0,00 0,00 0,00 0,00 5.545,47 20.357,80 2.142,79 2.483,85 0,00 0,00 4.626,64 15.731,16 31/03/2024
156 754800 AMANDA MAGALHAES DE CARVALHO E SILVA ASSESSOR PROCURADOR JUSTICA BELO HORIZONTE - COMARCA; GABINETE DE PROCURADOR DE JUSTIÇA - SALA 1008 0,00 0,00 8.810,89 0,00 0,00 0,00 0,00 2.583,00 11.393,89 908,85 1.821,01 0,00 0,00 2.729,86 8.664,03 31/03/2024
157 543100 AMANDA VIEIRA FREITAS ANALISTA DO MP VARGINHA - COMARCA; COORD REG DEF ORDEM ECON TRIB VARGINHA 12.343,61 2.468,72 0,00 0,00 0,00 0,00 0,00 2.583,00 17.395,33 2.142,79 2.535,99 0,00 0,00 4.678,78 12.716,55 31/03/2024
158 434400 AMARILIS ASSIS SIMAO CURCIO ANALISTA DO MP BELO HORIZONTE - COMARCA; DIRETORIA GESTAO COMPRAS LICITACOES 12.343,61 3.703,08 0,00 0,00 0,00 0,00 0,00 2.583,00 18.629,69 2.340,29 2.873,26 0,00 0,00 5.213,55 13.416,14 31/03/2024
159 652000 AMAURI SILVA ALVES ASSESSOR ADMINISTRATIVO III BELO HORIZONTE - COMARCA; DIRETORIA GESTAO COMPRAS LICITACOES 10.858,90 1.085,89 0,00 0,00 0,00 0,00 0,00 2.583,00 14.527,79 937,69 2.130,95 0,00 0,00 3.068,64 11.459,15 31/03/2024
160 58000 AMELIA GUARIZE DE CASTRO OFICIAL DO MP JUIZ DE FORA - COMARCA; JUIZ DE FORA-PJ-SECRETARIA 8.264,07 9.090,49 0,00 0,00 0,00 2.549,55 0,00 8.156,16 28.060,27 2.549,55 3.876,50 0,00 0,00 6.426,05 21.634,22 31/03/2024
161 324301 AMERICA SUELI FERREIRA DA SILVA ANALISTA DO MP UBERLÂNDIA - COMARCA; UBERLANDIA-PJ-02PJ 12.343,61 3.703,08 0,00 0,00 0,00 0,00 0,00 7.076,07 23.122,76 2.340,29 2.821,12 0,00 0,00 5.161,41 17.961,35 31/03/2024
162 273300 AMUJACY DE BRITO ASSIZ OFICIAL DO MP BELO HORIZONTE - COMARCA; BH-12PJ JUIZO CRIMINAL-SECRETARIA 12.343,61 4.937,44 0,00 0,00 0,00 0,00 0,00 2.583,00 19.864,05 2.537,79 2.949,85 0,00 0,00 5.487,64 14.376,41 31/03/2024
163 482200 ANA ALICE LOPES ACHTSCHIN ANALISTA DO MP BELO HORIZONTE - COMARCA; PROC JUST ATUACAO TRIBUNAIS SUPERIORES-GAB005 15.447,01 3.089,40 0,00 0,00 0,00 0,00 0,00 8.514,65 27.051,06 2.738,65 3.448,38 0,00 0,00 6.187,03 20.864,03 31/03/2024
164 490400 ANA AMELIA PAULINO GARCIA OFICIAL DO MP CONTAGEM - COMARCA; CONTAGEM-PJ-SECRETARIA 10.858,90 2.171,78 0,00 0,00 0,00 0,00 0,00 4.876,16 17.906,84 1.857,73 2.072,29 0,00 0,00 3.930,02 13.976,82 31/03/2024
165 714900 ANA BEATRIZ LOBATO ALVES DE CARVALHO ASSESSOR PROCURADOR JUSTICA BELO HORIZONTE - COMARCA; GABINETE DE PROCURADOR DE JUSTIÇA - SALA 414 0,00 3.524,36 8.810,89 0,00 0,00 0,00 0,00 2.583,00 14.918,25 908,85 2.790,21 0,00 0,00 3.699,06 11.219,19 31/03/2024
166 279100 ANA CAROLINA ARAUJO PEREIRA ANALISTA DO MP BELO HORIZONTE - COMARCA; DIRETORIA DE PROJETOS DE EDIFICACOES 23.070,31 9.228,12 0,00 0,00 0,00 0,00 0,00 2.583,00 34.881,43 4.940,57 6.575,27 0,00 0,00 11.515,84 23.365,59 31/03/2024
167 653300 ANA CAROLINA CYRNE DINIZ ASSESSOR ADMINISTRATIVO III BELO HORIZONTE - COMARCA; CENTRAL DE APOIO TECNICO-SETOR CONTABIL 0,00 0,00 12.836,90 0,00 0,00 0,00 0,00 605,00 13.441,90 908,85 2.384,21 0,00 0,00 3.293,06 10.148,84 31/03/2024
168 763300 ANA CAROLINA DA COSTA ASSESSOR PROMOTOR JUSTICA SANTA MARIA DO SUAÇUÍ - COMARCA 0,00 0,00 7.929,80 0,00 0,00 0,00 0,00 2.493,09 10.422,89 908,85 1.553,99 0,00 0,00 2.462,84 7.960,05 31/03/2024
169 359400 ANA CAROLINA DE ABREU FARIA ASSESSOR ADMINISTRATIVO IV BELO HORIZONTE - COMARCA; SUPERINTENDÊNCIA DE ENGENHARIA E ARQUITETURA 0,00 0,00 14.488,22 0,00 0,00 0,00 265,62 6.627,22 21.381,06 908,85 3.330,14 0,00 0,00 4.238,99 17.142,07 31/03/2024
170 408500 ANA CAROLINA DE CASTRO CARVALHO ANALISTA DO MP BARBACENA - COMARCA; BARBACENA - SECRETARIA DAS PJS CRIMINAIS 18.720,84 5.616,25 0,00 0,00 0,00 0,00 0,00 9.570,48 33.907,57 3.666,76 4.788,34 0,00 0,00 8.455,10 25.452,47 31/03/2024
171 688000 ANA CAROLINA DE OLIVEIRA PINTO ASSESSOR PROCURADOR JUSTICA BELO HORIZONTE - COMARCA; GABINETE DE PROCURADOR DE JUSTIÇA - SALA 1011 0,00 0,00 10.788,89 0,00 0,00 0,00 0,00 1.751,58 12.540,47 908,85 1.821,01 0,00 0,00 2.729,86 9.810,61 31/03/2024
172 420200 ANA CAROLINA FERNANDES SILVA ANALISTA DO MP BELO HORIZONTE - COMARCA; GABINETE DE PROCURADOR DE JUSTIÇA - SALA 704 18.130,77 5.439,23 0,00 0,00 0,00 0,00 0,00 2.583,00 26.153,00 3.544,02 4.611,14 0,00 0,00 8.155,16 17.997,84 31/03/2024
173 522100 ANA CAROLINA FERNANDINO VIDAL PEREIRA SANTOS OFICIAL DO MP BELO HORIZONTE - COMARCA; CAO-CRIANCAS E ADOLESCENTES-SECRETARIA 10.516,49 2.103,30 0,00 0,00 0,00 0,00 0,00 2.583,00 15.202,79 1.018,60 2.194,63 0,00 0,00 3.213,23 11.989,56 31/03/2024
174 716001 ANA CAROLINA FIGUEIREDO SILVA ASSESSOR ADMINISTRATIVO II BELO HORIZONTE - COMARCA; PROC JUST ATUACAO TRIBUNAIS SUPERIORES-GAB003 0,00 0,00 7.506,70 0,00 0,00 0,00 0,00 2.583,00 10.089,70 908,85 1.462,36 0,00 0,00 2.371,21 7.718,49 31/03/2024
175 502400 ANA CAROLINA GONCALVES FERNANDES ANALISTA DO MP IPATINGA - COMARCA; IPATINGA-PJ-01PJ 12.343,61 2.468,72 0,00 0,00 0,00 0,00 0,00 7.838,63 22.650,96 1.018,60 2.752,36 0,00 0,00 3.770,96 18.880,00 31/03/2024
176 529900 ANA CAROLINA GONCALVES PECANHA CHEQUER ANALISTA DO MP MANHUAÇU - COMARCA; MANHUACU-PJ-04PJ 12.343,61 2.468,72 0,00 0,00 0,00 0,00 0,00 4.876,16 19.688,49 2.142,79 2.588,12 0,00 0,00 4.730,91 14.957,58 31/03/2024
177 431900 ANA CAROLINA MOTTA GUATIMOSIM ANALISTA DO MP BELO HORIZONTE - COMARCA; ASSESSORIA JURIDICO-ADMINISTRATIVA 18.130,77 3.626,15 0,00 0,00 0,00 0,00 558,43 9.821,52 32.136,87 3.253,93 4.192,32 0,00 0,00 7.446,25 24.690,62 31/03/2024
178 490600 ANA CAROLINA XAVIER GODOY ANALISTA DO MP BELO HORIZONTE - COMARCA; BH-18PJ VIOLENCIA DOMESTICA-GAB 007PJ 12.343,61 2.468,72 0,00 0,00 0,00 0,00 0,00 7.838,63 22.650,96 2.142,79 2.483,85 0,00 0,00 4.626,64 18.024,32 31/03/2024
179 600300 ANA CAROLINE PEREIRA DINIZ ANALISTA DO MP BELO HORIZONTE - COMARCA; PROC JUST ESP ACOES COMP ORIG CRIMINAL-SEC 12.343,61 2.468,72 0,00 0,00 0,00 0,00 0,00 6.692,05 21.504,38 2.142,79 2.588,12 0,00 0,00 4.730,91 16.773,47 31/03/2024
180 615800 ANA CAROLINE PEREIRA OLIVEIRA OFICIAL DO MP ALFENAS - COMARCA; ALFENAS-PJ-06PJ 7.506,70 750,67 0,00 0,00 0,00 0,00 0,00 2.583,00 10.840,37 1.094,00 1.073,93 0,00 0,00 2.167,93 8.672,44 31/03/2024
181 324800 ANA CECILIA MENDES DA SILVA OFICIAL DO MP OURO FINO - COMARCA; OURO FINO-PJ-01PJ 12.343,61 4.937,44 0,00 0,00 0,00 0,00 0,00 2.583,00 19.864,05 2.537,79 3.106,26 0,00 0,00 5.644,05 14.220,00 31/03/2024
182 704100 ANA CLARA MARTINS ALBUQUERQUE ASSESSOR DE CAO BELO HORIZONTE - COMARCA; CAO-CRIANCAS E ADOLESCENTES-ASS TECNICA 0,00 0,00 7.506,70 0,00 0,00 0,00 0,00 2.583,00 10.089,70 908,85 1.462,36 0,00 0,00 2.371,21 7.718,49 31/03/2024
183 698700 ANA CLARA SANTOS ALMEIDA ASSESSOR PROMOTOR JUSTICA SABINÓPOLIS - COMARCA; SABINOPOLIS-PJ-UNPJ 0,00 0,00 8.810,89 0,00 0,00 0,00 0,00 2.583,00 11.393,89 908,85 1.821,01 0,00 0,00 2.729,86 8.664,03 31/03/2024
184 756400 ANA CLARA SOARES PEREIRA BARBOSA ASSESSOR PROMOTOR JUSTICA CARMO DO PARANAÍBA - COMARCA; CARMO DO PARANAIBA-PJ-01PJ 0,00 0,00 8.810,89 0,00 0,00 0,00 0,00 2.583,00 11.393,89 908,85 1.821,01 0,00 0,00 2.729,86 8.664,03 31/03/2024
185 441300 ANA CLAUDIA ALKIMIM MIRANDA BOMTEMPO ANALISTA DO MP MONTES CLAROS - COMARCA; MONTES CLAROS-PJ-11PJ 18.130,77 3.626,15 0,00 0,00 0,00 0,00 0,00 2.583,00 24.339,92 3.253,93 4.088,05 0,00 0,00 7.341,98 16.997,94 31/03/2024
186 642500 ANA CLAUDIA DA COSTA NAVES OFICIAL DO MP MONTE CARMELO - COMARCA; MONTE CARMELO-PJ-02PJ 6.603,76 660,38 0,00 0,00 0,00 0,00 0,00 3.729,58 10.993,72 937,69 843,77 0,00 0,00 1.781,46 9.212,26 31/03/2024
187 604900 ANA CLAUDIA OLIVEIRA DE MIRANDA OFICIAL DO MP PONTE NOVA - COMARCA; PONTE NOVA-PJ-04PJ 7.506,70 750,67 0,00 0,00 0,00 0,00 211,94 4.895,06 13.364,37 1.094,00 1.021,79 0,00 0,00 2.115,79 11.248,58 31/03/2024
188 379300 ANA CRISTINA ALVES FLAVIO ANALISTA DO MP SÃO GOTARDO - COMARCA; SAO GOTARDO-PJ-01PJ 20.533,67 6.160,10 0,00 0,00 0,00 0,00 0,00 3.729,58 30.423,35 4.043,82 5.280,60 0,00 0,00 9.324,42 21.098,93 31/03/2024
189 461200 ANA CRISTINA ALVES PASCHOAL ANALISTA DO MP BELO HORIZONTE - COMARCA; BH-07PJ 03 TRIBUNAL DO JURI-GAB 064PJ 12.343,61 2.468,72 0,00 0,00 0,00 0,00 0,00 2.583,00 17.395,33 2.142,79 2.535,99 0,00 0,00 4.678,78 12.716,55 31/03/2024
190 514100 ANA CRISTINA ARAUJO ASSUNCAO ANALISTA DO MP BELO HORIZONTE - COMARCA; ASSESS JUR DO CONS SUPERIOR DO MINISTERIO PUB 12.343,61 3.184,65 0,00 0,00 0,00 0,00 0,00 3.729,58 19.257,84 2.257,34 2.701,37 0,00 0,00 4.958,71 14.299,13 31/03/2024
191 113401 ANA CRISTINA BRAGA ALBUQUERQUE ASSESSOR ADM. ESPECIAL BELO HORIZONTE - COMARCA; DIRETORIA-GERAL 0,00 0,00 28.013,39 0,00 0,00 0,00 0,00 1.978,00 29.991,39 908,85 7.101,70 0,00 0,00 8.010,55 21.980,84 31/03/2024
192 233800 ANA CRISTINA BRAGA SOARES OFICIAL DO MP BELO HORIZONTE - COMARCA; DIRETORIA DE CONTABILIDADE 15.447,01 6.178,80 0,00 0,00 0,00 0,00 0,00 2.583,00 24.208,81 3.232,95 4.057,76 0,00 0,00 7.290,71 16.918,10 31/03/2024
193 186400 ANA CRISTINA DE AZEVEDO LOPES OFICIAL DO MP UBÁ - COMARCA; UBA-PJ-01PJ 21.346,53 8.538,61 0,00 0,00 0,00 0,00 0,00 8.560,03 38.445,17 4.554,44 6.069,94 0,00 0,00 10.624,38 27.820,79 31/03/2024
194 465100 ANA CRISTINA DE OLIVEIRA GUIMARAES ANALISTA DO MP ITAJUBA - COMARCA; ITAJUBA-PJ-05PJ 12.343,61 2.468,72 0,00 0,00 0,00 0,00 0,00 6.692,05 21.504,38 2.142,79 2.483,85 0,00 0,00 4.626,64 16.877,74 31/03/2024
195 500600 ANA CRISTINA LATADO SUDARIO ANALISTA DO MP UBERLÂNDIA - COMARCA; UBERLANDIA-PJ-09PJ 12.343,61 2.468,72 0,00 0,00 0,00 0,00 0,00 2.583,00 17.395,33 2.142,79 2.588,12 0,00 0,00 4.730,91 12.664,42 31/03/2024
196 331400 ANA CRISTINA RIBEIRO ALVES OFICIAL DO MP BAMBUÍ - COMARCA; BAMBUI-PJ-UNPJ 12.343,61 3.703,08 0,00 0,00 0,00 0,00 0,00 7.076,07 23.122,76 2.340,29 2.821,12 0,00 0,00 5.161,41 17.961,35 31/03/2024
197 249300 ANA ELOINA MARTINS OFICIAL DO MP BETIM - COMARCA; BETIM-PJ-02PJ 18.130,77 9.065,39 0,00 0,00 0,00 0,00 0,00 8.022,23 35.218,39 4.124,21 5.448,79 0,00 0,00 9.573,00 25.645,39 31/03/2024
198 257400 ANA FLAVIA CAMBRAIA ANALISTA DO MP BELO HORIZONTE - COMARCA; BH-19PJ SAUDE-SECRETARIA 150PJ 23.070,31 9.228,12 0,00 0,00 0,00 4.940,57 0,00 8.541,24 45.780,24 4.940,57 7.933,93 0,00 0,00 12.874,50 32.905,74 31/03/2024
199 248201 ANA FLAVIA DE MORAIS SOUZA ANALISTA DO MP DIVINÓPOLIS - COMARCA; DIVINOPOLIS-PJ-01PJ 15.447,01 6.178,80 0,00 0,00 0,00 0,00 0,00 9.173,30 30.799,11 3.232,95 4.057,76 0,00 0,00 7.290,71 23.508,40 31/03/2024
200 621100 ANA FLAVIA DINIZ TEODORO OFICIAL DO MP SANTA LUZIA - COMARCA; SANTA LUZIA-PJ-06PJ 7.506,70 750,67 0,00 0,00 0,00 0,00 0,00 2.583,00 10.840,37 1.094,00 1.073,93 0,00 0,00 2.167,93 8.672,44 31/03/2024
201 763600 ANA FLAVIA FRANCA FARIA ASSESSOR PROMOTOR JUSTICA BELO HORIZONTE - COMARCA; SUPER DE GESTAO DE PESSOAS-LOTACAO TEMPORARIA 0,00 0,00 7.342,41 0,00 0,00 0,00 0,00 2.313,27 9.655,68 908,85 1.343,00 0,00 0,00 2.251,85 7.403,83 31/03/2024
202 238600 ANA FLAVIA FRANCO OFICIAL DO MP BELO HORIZONTE - COMARCA; DIRETORIA DE PESSOAL ADMINISTRATIVO - DPAD 18.720,84 7.488,34 0,00 0,00 0,00 0,00 0,00 7.824,84 34.034,02 3.966,29 5.220,79 0,00 0,00 9.187,08 24.846,94 31/03/2024
203 402900 ANA FLAVIA PORTES DE CARVALHO ANALISTA DO MP BELO HORIZONTE - COMARCA; DIRET DE PLANOS PROJETOS E PROGRAMAS INST 20.533,67 6.160,10 0,00 0,00 0,00 0,00 0,00 7.921,75 34.615,52 4.043,82 5.280,60 0,00 0,00 9.324,42 25.291,10 31/03/2024
204 752300 ANA JUSSARA DA SILVA BIANCHETTI OFICIAL DO MP ALTO RIO DOCE - COMARCA; ALTO RIO DOCE-PJ-UNPJ 4.570,25 0,00 0,00 0,00 0,00 0,00 0,00 2.583,00 7.153,25 544,12 238,46 0,00 0,00 782,58 6.370,67 31/03/2024
205 382700 ANA KARENINA SALDANHA GONTIJO ANALISTA DO MP BELO HORIZONTE - COMARCA; ASSESS TECNICO-JUR JUNTO AS PROC. DE JUST 19.751,60 5.925,48 0,00 0,00 0,00 0,00 0,00 2.583,00 28.260,08 3.881,15 5.097,88 0,00 0,00 8.979,03 19.281,05 31/03/2024
206 620500 ANA KARINE DE ANDRADE OLIVEIRA ANALISTA DO MP RIBEIRÃO DAS NEVES - COMARCA; RIBEIRAO NEVES-SEC PJ EXECUCAO PENAL 11.577,56 1.157,76 0,00 0,00 0,00 0,00 0,00 2.583,00 15.318,32 1.810,47 2.108,33 0,00 0,00 3.918,80 11.399,52 31/03/2024
207 760400 ANA LAURA ANTUNES BARROS OFICIAL DO MP BELO HORIZONTE - COMARCA; SUPER DE GESTAO DE PESSOAS-LOTACAO TEMPORARIA 4.113,22 0,00 0,00 0,00 0,00 0,00 0,00 2.493,09 6.606,31 483,67 150,82 0,00 0,00 634,49 5.971,82 31/03/2024
208 462200 ANA LUCIA ANDRADE TOMICH OTTONI ANALISTA DO MP TEÓFILO OTONI - COMARCA; TEOFILO OTONI-PJ-07PJ 12.343,61 2.468,72 0,00 0,00 0,00 0,00 0,00 3.729,58 18.541,91 2.142,79 2.483,85 0,00 0,00 4.626,64 13.915,27 31/03/2024
209 504100 ANA LUCIA CATAO DE CARVALHO OFICIAL DO MP BELO HORIZONTE - COMARCA; DIR RELACOES INSTITUCIONAIS 10.858,90 2.171,78 4.020,58 0,00 0,00 0,00 0,00 7.357,35 24.408,61 1.857,73 3.230,08 0,00 0,00 5.087,81 19.320,80 31/03/2024
210 274700 ANA LUCIA DE ALENCAR BRAGATO OFICIAL DO MP UBERABA - COMARCA; UBERABA-PJ-07PJ 12.343,61 4.937,44 0,00 0,00 0,00 0,00 0,00 7.421,69 24.702,74 2.537,79 3.158,40 0,00 0,00 5.696,19 19.006,55 31/03/2024
211 509400 ANA LUCIA DORNELAS MALLOSTO ANALISTA DO MP JUIZ DE FORA - COMARCA; JUIZ DE FORA-PJ-14PJ 12.343,61 2.468,72 0,00 0,00 0,00 0,00 0,00 5.545,47 20.357,80 2.142,79 2.535,99 0,00 0,00 4.678,78 15.679,02 31/03/2024
212 302600 ANA LUCIA LOPES SANTOS OFICIAL DO MP BELO HORIZONTE - COMARCA; DIVISÃO DE FISCALIZAÇÃO DAS RELAÇÕES DE CONSU 12.343,61 3.703,08 0,00 0,00 0,00 0,00 1.771,66 8.284,87 26.103,22 2.340,29 3.308,33 0,00 0,00 5.648,62 20.454,60 31/03/2024
213 716700 ANA LUISA DE LANA COELHO ASSESSOR PROCURADOR JUSTICA BELO HORIZONTE - COMARCA; GABINETE DE PROCURADOR DE JUSTIÇA - SALA 612 0,00 0,00 8.810,89 0,00 0,00 0,00 0,00 2.583,00 11.393,89 908,85 1.821,01 0,00 0,00 2.729,86 8.664,03 31/03/2024
214 702000 ANA LUISA DE OLIVEIRA RIBEIRO ASSESSOR PROCURADOR JUSTICA BELO HORIZONTE - COMARCA; ASSESS TECNICO-JUR JUNTO AS PROC. DE JUST 0,00 0,00 8.810,89 0,00 0,00 0,00 0,00 2.583,00 11.393,89 908,85 1.821,01 0,00 0,00 2.729,86 8.664,03 31/03/2024
215 493400 ANA LUISA NOGUEIRA MOREIRA ANALISTA DO MP BELO HORIZONTE - COMARCA; BH-19PJ SAUDE-SECRETARIA 130PJ 12.343,61 2.468,72 0,00 0,00 0,00 0,00 0,00 5.545,47 20.357,80 2.142,79 2.588,12 0,00 0,00 4.730,91 15.626,89 31/03/2024
216 389300 ANA LUISA REUTER LIMA ANALISTA DO MP BELO HORIZONTE - COMARCA; DIRETORIA DE SISTEMAS DE INFORMACAO 20.533,67 6.160,10 5.538,92 0,00 0,00 0,00 0,00 2.583,00 34.815,69 4.043,82 6.855,94 0,00 0,00 10.899,76 23.915,93 31/03/2024
217 480600 ANA LUIZA FERNANDES FRAGA E GRECO COORDENADOR I BELO HORIZONTE - COMARCA; OUVIDORIA DO MPMG 16.469,17 3.293,83 0,00 0,00 0,00 0,00 0,00 8.116,64 27.879,64 1.791,99 4.046,03 0,00 0,00 5.838,02 22.041,62 31/03/2024
218 726800 ANA LUIZA GOMES PEREIRA ASSESSOR ADMINISTRATIVO I BELO HORIZONTE - COMARCA; OUVIDORIA DO MPMG 0,00 0,00 4.872,71 0,00 0,00 0,00 0,00 2.583,00 7.455,71 777,91 774,02 0,00 0,00 1.551,93 5.903,78 31/03/2024
219 733600 ANA LUIZA MACHADO RODRIGUES ASSESSOR PROMOTOR JUSTICA CARMO DA MATA - COMARCA; CARMO DA MATA-PJ-UNPJ 0,00 0,00 8.810,89 0,00 0,00 0,00 0,00 2.583,00 11.393,89 908,85 1.821,01 0,00 0,00 2.729,86 8.664,03 31/03/2024
220 517800 ANA LUIZA MAGALHAES CIRINO PIOTO DE MELO OFICIAL DO MP BELO HORIZONTE - COMARCA; DIVISAO DE MATERIAIS 7.506,70 750,67 0,00 0,00 0,00 0,00 0,00 4.876,16 13.133,53 1.094,00 1.073,93 0,00 0,00 2.167,93 10.965,60 31/03/2024
221 481400 ANA MARCIA CANDIDA FERREIRA OFICIAL DO MP BRUMADINHO - COMARCA; BRUMADINHO-PJ-02PJ 7.506,70 1.501,34 0,00 0,00 0,00 0,00 0,00 2.583,00 11.591,04 1.214,11 1.247,33 0,00 0,00 2.461,44 9.129,60 31/03/2024
222 754400 ANA MARIA ANDRADE LARA OFICIAL DO MP BOM SUCESSO - COMARCA; BOM SUCESSO-PJ-UNPJ 4.570,25 0,00 0,00 0,00 0,00 0,00 0,00 2.583,00 7.153,25 544,12 238,46 0,00 0,00 782,58 6.370,67 31/03/2024
223 643100 ANA MARIA LOPES MIRANDA ANALISTA DO MP BELO HORIZONTE - COMARCA; CAO-FUNDACOES 11.212,54 1.121,25 0,00 0,00 0,00 0,00 0,00 3.729,58 16.063,37 1.018,60 2.028,08 0,00 0,00 3.046,68 13.016,69 31/03/2024
224 556400 ANA MARIA OLIVEIRA SOUZA OFICIAL DO MP ITAPECERICA - COMARCA; ITAPECERICA-PJ-UNPJ 8.264,07 1.652,81 0,00 0,00 0,00 0,00 0,00 2.583,00 12.499,88 1.359,52 1.457,27 0,00 0,00 2.816,79 9.683,09 31/03/2024
225 409600 ANA OLIVIA FARIA ROSENBURG ANALISTA DO MP BELO HORIZONTE - COMARCA; DIRETORIA DO COLEGIO E DA CAMARA DE PJ 18.720,84 7.488,34 0,00 0,00 0,00 0,00 0,00 7.824,84 34.034,02 3.966,29 5.220,79 0,00 0,00 9.187,08 24.846,94 31/03/2024
226 461500 ANA PAULA ALVES CARVALHO ANALISTA DO MP UBERLÂNDIA - COMARCA; UBERLANDIA-PJ-25PJ 13.588,97 2.717,79 0,00 0,00 0,00 0,00 418,54 8.295,47 25.020,77 2.381,90 2.829,06 0,00 0,00 5.210,96 19.809,81 31/03/2024
227 523200 ANA PAULA ALVES DA SILVA OFICIAL DO MP GOVERNADOR VALADARES - COMARCA; GOVERNADOR VALADARES-PJ-10PJ 10.516,49 2.103,30 0,00 0,00 0,00 0,00 0,00 7.674,11 20.293,90 1.018,60 2.090,36 0,00 0,00 3.108,96 17.184,94 31/03/2024
228 381200 ANA PAULA BARROS PEREIRA RIGHI ANALISTA DO MP BELO HORIZONTE - COMARCA; DIRETORIA DO COLEGIO E DA CAMARA DE PJ 20.533,67 6.160,10 0,00 0,00 0,00 0,00 0,00 9.068,33 35.762,10 1.018,60 5.722,56 0,00 0,00 6.741,16 29.020,94 31/03/2024
229 696400 ANA PAULA CARVALHO SILVA ASSESSOR PROMOTOR JUSTICA PERDÕES - COMARCA; PERDOES-PJ-UNPJ 0,00 0,00 8.810,89 0,00 0,00 0,00 0,00 3.729,58 12.540,47 908,85 1.768,87 0,00 0,00 2.677,72 9.862,75 31/03/2024
230 700900 ANA PAULA CRAVO SALOME ASSESSOR ADMINISTRATIVO I BELO HORIZONTE - COMARCA; PROCURADOR-GERAL DE JUSTIÇA 0,00 0,00 4.872,71 0,00 0,00 0,00 0,00 2.583,00 7.455,71 777,91 774,02 0,00 0,00 1.551,93 5.903,78 31/03/2024
231 227200 ANA PAULA DA SILVA CAMPOLINA ANALISTA DO MP BELO HORIZONTE - COMARCA; DIRETORIA DE ORCAMENTO-DIOR/SPC 23.070,31 11.535,16 0,00 0,00 0,00 0,00 0,00 8.119,88 42.725,35 5.309,70 7.160,34 0,00 0,00 12.470,04 30.255,31 31/03/2024
232 278500 ANA PAULA DIAS CAPANEMA OFICIAL DO MP BELO HORIZONTE - COMARCA; DIRETORIA DE SEGURANCA 13.588,97 5.435,59 0,00 0,00 0,00 0,00 0,00 8.670,86 27.695,42 2.816,75 3.561,15 0,00 0,00 6.377,90 21.317,52 31/03/2024
233 327300 ANA PAULA GARCIA MAXIMO OFICIAL DO MP UNAÍ - COMARCA; UNAI-PJ-01PJ 15.949,86 7.974,93 0,00 0,00 0,00 0,00 0,00 8.324,95 32.249,74 3.600,79 4.536,69 0,00 0,00 8.137,48 24.112,26 31/03/2024
234 738700 ANA PAULA GOMES ANTUNES ASSESSOR PROMOTOR JUSTICA CORAÇÃO DE JESUS - COMARCA; CORACAO DE JESUS-PJ-UNPJ 0,00 0,00 9.492,71 0,00 0,00 0,00 0,00 3.047,76 12.540,47 908,85 1.821,01 0,00 0,00 2.729,86 9.810,61 31/03/2024
235 270000 ANA PAULA GOULART CRUZ DE MAGALHAES ANALISTA DO MP BELO HORIZONTE - COMARCA; ASSESSORIA ESPECIAL DO PGJ 23.070,31 9.228,12 0,00 0,00 0,00 0,00 0,00 7.750,75 40.049,18 4.940,57 6.627,41 0,00 0,00 11.567,98 28.481,20 31/03/2024
236 262100 ANA PAULA KOMATSUZAKI ABIJAUDI ANALISTA DO MP BELO HORIZONTE - COMARCA; BH-17PJ PATRIMONIO PUBLICO-SECRETARIA 23.070,31 11.535,16 0,00 0,00 0,00 0,00 126,89 3.967,22 38.699,58 5.309,70 7.056,06 0,00 0,00 12.365,76 26.333,82 31/03/2024
237 278900 ANA PAULA MOREIRA GURGEL ANALISTA DO MP BELO HORIZONTE - COMARCA; ASSESSORIA JURIDICO-ADMINISTRATIVA 23.070,31 11.535,16 8.404,02 0,00 0,00 0,00 0,00 7.349,12 50.358,61 5.309,70 8.566,20 3.291,80 0,00 17.167,70 33.190,91 31/03/2024
238 745500 ANA PAULA OLIVEIRA MENDES OFICIAL DO MP TARUMIRIM - COMARCA; TARUMIRIM-PJ-UNPJ 4.570,25 0,00 0,00 0,00 0,00 0,00 0,00 2.583,00 7.153,25 544,12 238,46 0,00 0,00 782,58 6.370,67 31/03/2024
239 425701 ANA PAULA ROCHA ANALISTA DO MP BELO HORIZONTE - COMARCA; ASSESSORIA DE COMUNICACAO INTEGRADA 12.343,61 2.468,72 0,00 0,00 0,00 0,00 0,00 3.729,58 18.541,91 2.142,79 2.588,12 0,00 0,00 4.730,91 13.811,00 31/03/2024
240 395601 ANA PAULA SALGE OLIVEIRA ANALISTA DO MP UBERABA - COMARCA; UBERABA-PJ-15PJ 12.343,61 4.937,44 0,00 0,00 0,00 0,00 0,00 7.421,69 24.702,74 2.537,79 3.158,40 0,00 0,00 5.696,19 19.006,55 31/03/2024
241 473200 ANA PAULA SCOTTON BRASIL ANALISTA DO MP JUIZ DE FORA - COMARCA; JUIZ DE FORA-PJ-15PJ 12.343,61 2.468,72 0,00 0,00 0,00 0,00 0,00 5.545,47 20.357,80 2.142,79 2.588,12 0,00 0,00 4.730,91 15.626,89 31/03/2024
242 633600 ANA PAULA SILVA FERNANDES OFICIAL DO MP CATAGUASES - COMARCA; CATAGUASES-PJ-04PJ 7.506,70 750,67 0,00 0,00 0,00 0,00 0,00 2.583,00 10.840,37 1.094,00 1.073,93 0,00 0,00 2.167,93 8.672,44 31/03/2024
243 470900 ANA PAULA VALADARES ANALISTA DO MP PITANGUI - COMARCA; PITANGUI-PJ-01PJ 12.343,61 2.468,72 0,00 0,00 0,00 0,00 271,56 5.545,47 20.629,36 2.142,79 2.483,85 0,00 0,00 4.626,64 16.002,72 31/03/2024
244 447000 ANA PAULA VALENTIM DE ARAUJO ANALISTA DO MP BELO HORIZONTE - COMARCA; PROC JUST ESP ACOES COMP ORIG CRIMINAL-ASSESS 14.682,17 2.992,00 0,00 0,00 0,00 0,00 0,00 5.105,48 22.779,65 2.645,14 3.236,98 0,00 0,00 5.882,12 16.897,53 31/03/2024
245 604200 ANA PAULA VIANA E SILVA OFICIAL DO MP BELO HORIZONTE - COMARCA; BH-17PJ PATRIMONIO PUBLICO-SECRETARIA 7.506,70 1.501,34 0,00 0,00 0,00 0,00 0,00 2.583,00 11.591,04 1.214,11 1.247,33 0,00 0,00 2.461,44 9.129,60 31/03/2024
246 505400 ANA PAULA VIEIRA SOUTO OFICIAL DO MP ALMENARA - COMARCA; ALMENARA-PJ-01PJ 7.506,70 3.002,68 0,00 0,00 0,00 0,00 0,00 2.583,00 13.092,38 1.454,32 1.542,00 0,00 0,00 2.996,32 10.096,06 31/03/2024
247 280200 ANA RACHEL BRANDAO LADEIRA ROLAND ANALISTA DO MP BELO HORIZONTE - COMARCA; SUPERINTENDENCIA GESTÃO DE PESSOAS 23.070,31 9.228,12 8.404,02 0,00 0,00 0,00 0,00 2.583,00 43.285,45 4.940,57 8.667,71 984,76 0,00 14.593,04 28.692,41 31/03/2024
248 601200 ANA REGINA RIBEIRO ANALISTA DO MP BELO HORIZONTE - COMARCA; DIV FISCAL ADM CONT TERCEIRIZACAO 12.343,61 2.468,72 4.940,75 0,00 0,00 0,00 0,00 8.113,86 27.866,94 1.018,60 4.009,16 0,00 0,00 5.027,76 22.839,18 31/03/2024
249 384700 ANA RODRIGUES PEREIRA MARRA ANALISTA DO MP BELO HORIZONTE - COMARCA; CENT ESTAD COOPERACAO TECNICO-JURIDICA 12.343,61 3.703,08 0,00 0,00 0,00 0,00 0,00 7.076,07 23.122,76 2.340,29 2.768,99 0,00 0,00 5.109,28 18.013,48 31/03/2024
250 232700 ANA SILVIA SEMBLANO NAKAMURA OFICIAL DO MP BELO HORIZONTE - COMARCA; CENT DE APOIO TEC-SETOR DEF,IDOSO E INFANC 12.343,61 4.937,44 4.020,58 0,00 0,00 0,00 0,00 2.583,00 23.884,63 2.537,79 4.264,06 0,00 0,00 6.801,85 17.082,78 31/03/2024
251 602100 ANACLETO FRANCISCO MARCIER PIMENTA OFICIAL DO MP SÃO JOÃO DEL REI - COMARCA; SAO JOAO DEL REI-PJ-03PJ 7.506,70 1.501,34 0,00 0,00 0,00 0,00 0,00 3.729,58 12.737,62 1.214,11 986,64 0,00 0,00 2.200,75 10.536,87 31/03/2024
252 310400 ANADEJE DO CARMO DINIZ ARAUJO OFICIAL DO MP BELO HORIZONTE - COMARCA; DIRETORIA DE PESSOAL ADMINISTRATIVO - DPAD 12.343,61 3.703,08 0,00 0,00 0,00 0,00 0,00 7.076,07 23.122,76 2.340,29 2.873,26 0,00 0,00 5.213,55 17.909,21 31/03/2024
253 337000 ANAILDES MARIA MENDES OFICIAL DO MP JANAÚBA - COMARCA; JANAUBA-PJ-02PJ 12.343,61 3.703,08 0,00 0,00 0,00 0,00 0,00 8.222,65 24.269,34 2.340,29 2.873,26 0,00 0,00 5.213,55 19.055,79 31/03/2024
254 750200 ANALU BATISTA TORQUATO ARAUJO ASSESSOR DE CAO BELO HORIZONTE - COMARCA; CAO-ORDEM ECONOMICA E TRIBUTARIA 0,00 0,00 7.506,70 0,00 0,00 0,00 0,00 2.583,00 10.089,70 908,85 1.462,36 0,00 0,00 2.371,21 7.718,49 31/03/2024
255 377400 ANDEIRSON DA MATTA BARBOSA ANALISTA DO MP POUSO ALEGRE - COMARCA; POUSO ALEGRE-PJ-01PJ 12.343,61 3.703,08 0,00 0,00 0,00 0,00 0,00 3.729,58 19.776,27 2.340,29 2.873,26 0,00 0,00 5.213,55 14.562,72 31/03/2024
256 317400 ANDERSON DA SILVA BICALHO OFICIAL DO MP CONTAGEM - COMARCA; CONTAGEM-PJ-SECRETARIA 12.343,61 3.703,08 0,00 0,00 0,00 0,00 0,00 2.583,00 18.629,69 2.340,29 2.716,85 0,00 0,00 5.057,14 13.572,55 31/03/2024
257 506900 ANDERSON DE SOUZA DAMIANI ANALISTA DO MP BELO HORIZONTE - COMARCA; DIRETORIA DE PAGAMENTO DE PESSOAL-DPAG 12.343,61 4.937,44 5.538,92 0,00 0,00 0,00 0,00 8.059,79 30.879,76 2.537,79 4.629,46 0,00 0,00 7.167,25 23.712,51 31/03/2024
258 410000 ANDERSON DE SOUZA NETO ASSESSOR ADMINISTRATIVO II BELO HORIZONTE - COMARCA; DIRETORIA DE ADMINISTRACAO FINANCEIRA 0,00 0,00 7.506,70 0,00 0,00 0,00 0,00 2.583,00 10.089,70 908,85 1.462,36 0,00 0,00 2.371,21 7.718,49 31/03/2024
259 181900 ANDERSON FLAVIO DE OLIVEIRA OFICIAL DO MP ITAGUARA - COMARCA; ITAGUARA-PJ-SECRETARIA 18.720,84 7.488,34 0,00 0,00 0,00 0,00 0,00 2.583,00 28.792,18 3.966,29 5.220,79 0,00 0,00 9.187,08 19.605,10 31/03/2024
260 333200 ANDERSON JOSE DE FREITAS OFICIAL DO MP IPATINGA - COMARCA; IPATINGA-PJ-04PJ 12.343,61 3.703,08 0,00 0,00 0,00 0,00 1.771,66 9.431,45 27.249,80 2.340,29 3.204,05 0,00 0,00 5.544,34 21.705,46 31/03/2024
261 699400 ANDERSON LUIZ CABRAL ASSESSOR PROMOTOR JUSTICA ALÉM PARAÍBA - COMARCA; ALEM PARAIBA-PJ-03PJ 0,00 0,00 8.810,89 0,00 0,00 0,00 0,00 2.583,00 11.393,89 908,85 1.821,01 0,00 0,00 2.729,86 8.664,03 31/03/2024
262 462100 ANDERSON LUIZ GUIMARAES CARDOSO ANALISTA DO MP BARBACENA - COMARCA; BARBACENA-PJ-02PJ 15.447,01 4.016,22 0,00 0,00 0,00 0,00 0,00 8.811,23 28.274,46 2.886,94 3.662,48 0,00 0,00 6.549,42 21.725,04 31/03/2024
263 429700 ANDERSON MELO DE SOUZA OFICIAL DO MP BELO HORIZONTE - COMARCA; DIRET DE ESTAGIOS E CONVENIOS ACADEMICOS 7.506,70 1.501,34 0,00 0,00 0,00 0,00 0,00 7.626,16 16.634,20 1.214,11 1.247,33 0,00 0,00 2.461,44 14.172,76 31/03/2024
264 545600 ANDERSON MENDES PROCOPIO FERREIRA ANALISTA DO MP BELO HORIZONTE - COMARCA; BH-12PJ JUIZO CRIMINAL-GAB 089PJ 12.343,61 2.468,72 0,00 0,00 0,00 0,00 0,00 5.545,47 20.357,80 2.142,79 2.588,12 0,00 0,00 4.730,91 15.626,89 31/03/2024
265 519900 ANDERSON MOREIRA DOEHLER ANALISTA DO MP TEÓFILO OTONI - COMARCA; COORD REG SAUDE MACRORREGIAO SANIT NORDESTE 12.343,61 4.937,44 0,00 0,00 0,00 0,00 0,00 2.583,00 19.864,05 2.537,79 3.158,40 0,00 0,00 5.696,19 14.167,86 31/03/2024
266 103000 ANDERSON TADEU DE DEUS ASSESSOR ADMINISTRATIVO II BELO HORIZONTE - COMARCA; BH-26 CRIME CONT CRIAN ADOL-SECRETARIA 0,00 6.005,36 7.506,70 0,00 0,00 0,00 148,63 8.708,47 22.369,16 908,85 3.113,83 0,00 0,00 4.022,68 18.346,48 31/03/2024
267 309200 ANDITYAS SOARES DE MOURA COSTA MATOS ANALISTA DO MP BELO HORIZONTE - COMARCA; GABINETE DE PROCURADOR DE JUSTIÇA - SALA 909 21.346,53 8.538,61 0,00 0,00 0,00 0,00 0,00 2.583,00 32.468,14 4.554,44 6.069,94 0,00 0,00 10.624,38 21.843,76 31/03/2024
268 519200 ANDRE BORJA LANA ANALISTA DO MP BELO HORIZONTE - COMARCA; DIR CONTEUDO JORNALISTICO 12.343,61 2.468,72 0,00 0,00 0,00 0,00 0,00 3.729,58 18.541,91 2.142,79 2.588,12 0,00 0,00 4.730,91 13.811,00 31/03/2024
269 637200 ANDRE FERNANDES DA CUNHA OFICIAL DO MP MORADA NOVA DE MINAS - COMARCA; MORADA NOVA DE MINAS-PJ-UNPJ 7.506,70 750,67 0,00 0,00 0,00 0,00 0,00 2.583,00 10.840,37 1.018,60 1.094,66 0,00 0,00 2.113,26 8.727,11 31/03/2024
270 651500 ANDRE GONCALVES MARANHAO OFICIAL DO MP ANDRADAS - COMARCA; ANDRADAS-PJ-02PJ 6.603,76 660,38 0,00 0,00 0,00 0,00 106,54 3.745,26 11.115,94 937,69 843,77 0,00 47,49 1.828,95 9.286,99 31/03/2024
271 521900 ANDRE LUIS GOMES SILVA ANALISTA DO MP FORMIGA - COMARCA; FORMIGA-PJ-02PJ 12.343,61 2.468,72 0,00 0,00 0,00 0,00 0,00 8.411,92 23.224,25 2.142,79 2.033,65 0,00 0,00 4.176,44 19.047,81 31/03/2024
272 304300 ANDRE LUIZ AVELAR ANALISTA DO MP BELO HORIZONTE - COMARCA; DIRETORIA DE REDES E BANCOS DE DADOS 10.341,72 3.102,52 0,00 0,00 0,00 0,00 0,00 2.583,00 16.027,24 1.923,90 2.219,96 0,00 0,00 4.143,86 11.883,38 31/03/2024
273 763900 ANDRE MARTINS CARDOSO ASSESSOR DE CAO BELO HORIZONTE - COMARCA; CAO-MEIO AMBIENTE- ASSESSORIA 0,00 0,00 0,00 0,00 0,00 0,00 6.005,36 2.223,36 8.228,72 886,13 956,84 0,00 0,00 1.842,97 6.385,75 31/03/2024
274 397400 ANDRE PATARO MYRRHA DE PAULA E SILVA ANALISTA DO MP BELO HORIZONTE - COMARCA; ASSESSORIA JURIDICO-ADMINISTRATIVA 20.533,67 6.160,10 0,00 0,00 0,00 0,00 0,00 9.068,33 35.762,10 4.043,82 5.332,74 0,00 0,00 9.376,56 26.385,54 31/03/2024
275 650100 ANDRE THOME VARGAS OFICIAL DO MP LEOPOLDINA - COMARCA; LEOPOLDINA-PJ-04PJ 7.270,07 727,01 0,00 0,00 0,00 0,00 0,00 2.583,00 10.580,08 1.018,60 1.023,08 0,00 0,00 2.041,68 8.538,40 31/03/2024
276 548500 ANDRE VINICIUS CARVALHO MEIRA ANALISTA DO MP JUIZ DE FORA - COMARCA; JUIZ DE FORA-PJ-24PJ 12.343,61 2.468,72 0,00 0,00 0,00 0,00 0,00 5.545,47 20.357,80 1.018,60 2.752,36 0,00 0,00 3.770,96 16.586,84 31/03/2024
277 297200 ANDRE WILLE ROSARIO ANALISTA DO MP BELO HORIZONTE - COMARCA; ASSESSORIA ESPECIAL DO PGJ 23.070,31 9.228,12 0,00 0,00 0,00 0,00 2.307,03 8.673,57 43.279,03 5.309,70 7.056,06 0,00 0,00 12.365,76 30.913,27 31/03/2024
278 423600 ANDREA COSTA GUALBERTO ALVES ANALISTA DO MP GOVERNADOR VALADARES - COMARCA; COORD REG PJ DEF EDU DIR CRIANCA ADOL RIODOCE 18.130,77 14.504,62 0,00 0,00 0,00 4.994,48 551,90 8.603,78 46.785,55 4.994,48 8.026,60 0,00 0,00 13.021,08 33.764,47 31/03/2024
279 467300 ANDREA DE CASSIA PENNA ALVERNAZ ANALISTA DO MP PONTE NOVA - COMARCA; PONTE NOVA-PJ-01PJ 12.343,61 2.468,72 0,00 0,00 0,00 0,00 0,00 5.545,47 20.357,80 2.142,79 2.535,99 0,00 0,00 4.678,78 15.679,02 31/03/2024
280 308000 ANDREA DE CASSIA SANTOS OLIVEIRA ANALISTA DO MP BELO HORIZONTE - COMARCA; COORD DE GABINETE DO PGJ 23.070,31 6.921,09 0,00 0,00 0,00 0,00 0,00 6.181,97 36.173,37 4.571,45 6.042,35 0,00 0,00 10.613,80 25.559,57 31/03/2024
281 349500 ANDREA DE OLIVEIRA LOIOLA REGIS OFICIAL DO MP IGUATAMA - COMARCA; IGUATAMA-PJ-UNPJ 12.343,61 3.703,08 0,00 0,00 0,00 0,00 0,00 2.583,00 18.629,69 2.340,29 2.768,99 0,00 0,00 5.109,28 13.520,41 31/03/2024
282 287900 ANDREA FERNANDES PENA MARTINS OFICIAL DO MP MONTES CLAROS - COMARCA; MONTES CLAROS-PJ-09PJ 12.343,61 4.937,44 0,00 0,00 0,00 0,00 0,00 7.421,69 24.702,74 2.537,79 3.106,26 0,00 0,00 5.644,05 19.058,69 31/03/2024
283 300800 ANDREA FERREIRA ANALISTA DO MP LAVRAS - COMARCA; LAVRAS-PJ-04PJ 22.191,68 6.657,50 0,00 0,00 0,00 0,00 0,00 8.352,84 37.202,02 4.388,69 5.830,63 0,00 0,00 10.219,32 26.982,70 31/03/2024
284 395100 ANDREA LANNA MENDES NOVAIS ANALISTA DO MP BELO HORIZONTE - COMARCA; PROMOT ESTADUAL DE DEF PATRI CULT E TUR DE MG 20.533,67 6.160,10 0,00 0,00 0,00 0,00 0,00 2.583,00 29.276,77 4.043,82 5.280,60 0,00 0,00 9.324,42 19.952,35 31/03/2024
285 67300 ANDREA LEAO MAGALHAES ROQUE ASSESSOR ADMINISTRATIVO IV BELO HORIZONTE - COMARCA; GRUPO ATUACAO ESP COMB CRIMES CIBER 0,00 11.590,57 14.488,22 0,00 0,00 0,00 0,00 2.583,00 28.661,79 908,85 6.517,55 0,00 0,00 7.426,40 21.235,39 31/03/2024
286 335700 ANDREA LOPES PEREIRA ANALISTA DO MP GOVERNADOR VALADARES - COMARCA; COORD REG DO MA DA BACIA DO RIO DOCE 23.070,31 6.921,09 0,00 0,00 0,00 0,00 0,00 2.583,00 32.574,40 4.571,45 6.094,49 0,00 0,00 10.665,94 21.908,46 31/03/2024
287 419000 ANDREIA BARBOSA DE ALMEIDA ANALISTA DO MP BELO HORIZONTE - COMARCA; CENT ESTAD COOPERACAO TECNICO-JURIDICA 18.130,77 5.439,23 0,00 0,00 0,00 0,00 0,00 8.239,80 31.809,80 3.544,02 4.611,14 0,00 0,00 8.155,16 23.654,64 31/03/2024
288 281501 ANDREIA CARLA COSTA ANALISTA DO MP UBÁ - COMARCA; UBA-PJ-02PJ 18.720,84 6.739,50 0,00 0,00 0,00 0,00 0,00 8.693,48 34.153,82 3.846,48 5.047,81 0,00 0,00 8.894,29 25.259,53 31/03/2024
289 477100 ANDREIA DE ALMEIDA RIBEIRO MELO OFICIAL DO MP CONTAGEM - COMARCA; CONTAGEM-PJ-SECRETARIA 10.858,90 3.257,67 0,00 0,00 0,00 0,00 0,00 4.276,99 18.393,56 2.031,47 2.427,40 0,00 0,00 4.458,87 13.934,69 31/03/2024
290 619000 ANDREIA FERREIRA NORONHA COORDENADOR II BELO HORIZONTE - COMARCA; DIRETORIA DE SERVICO CRIMINAL 20.533,67 2.053,37 0,00 0,00 0,00 0,00 0,00 8.003,89 30.590,93 1.094,00 5.014,59 0,00 0,00 6.108,59 24.482,34 31/03/2024
291 747000 ANDREIA FERREIRA TIAGO OFICIAL DO MP SÃO JOÃO DA PONTE - COMARCA; SAO JOAO DA PONTE-PJ-UNPJ 4.570,25 0,00 0,00 0,00 0,00 0,00 0,00 3.729,58 8.299,83 544,12 238,46 0,00 0,00 782,58 7.517,25 31/03/2024
292 424000 ANDREIA LUCIA COUTO ANALISTA DO MP BELO HORIZONTE - COMARCA; BH-18PJ DIREITOS HUMANOS-SECRETARIA 18.720,84 5.616,25 0,00 0,00 0,00 0,00 0,00 2.583,00 26.920,09 3.666,76 4.788,34 0,00 0,00 8.455,10 18.464,99 31/03/2024
293 370100 ANDREIA MARIA SILVA PINTO OFICIAL DO MP CORONEL FABRICIANO - COMARCA; CORONEL FABRICIANO-PJ-SECRETARIA 12.343,61 3.703,08 0,00 0,00 0,00 0,00 0,00 3.729,58 19.776,27 1.018,60 3.066,35 0,00 0,00 4.084,95 15.691,32 31/03/2024
294 382100 ANDREIA NATALI PEREIRA DE OLIVEIRA OFICIAL DO MP PRADOS - COMARCA; PRADOS-PJ-UNPJ 12.343,61 3.703,08 0,00 0,00 0,00 0,00 0,00 2.583,00 18.629,69 2.340,29 2.873,26 0,00 0,00 5.213,55 13.416,14 31/03/2024
295 275200 ANDREIA RIBEIRO FREITAS OFICIAL DO MP VIÇOSA - COMARCA; VICOSA-PJ-04PJ 13.588,97 5.435,59 0,00 0,00 0,00 0,00 558,05 8.670,86 28.253,47 2.816,75 3.509,01 0,00 0,00 6.325,76 21.927,71 31/03/2024
296 352200 ANDREIA XAVIER PEREIRA OFICIAL DO MP DIVINÓPOLIS - COMARCA; DIVINOPOLIS-PJ-08PJ 12.343,61 3.703,08 0,00 0,00 0,00 0,00 411,86 8.795,94 25.254,49 2.340,29 2.873,26 0,00 0,00 5.213,55 20.040,94 31/03/2024
297 638500 ANDRESA ALVES FEITOSA CASAGRANDE ANALISTA DO MP PASSOS - COMARCA; COORD REG DO MA DA BACIA DO RIO GRANDE 11.577,56 1.157,76 0,00 0,00 0,00 0,00 0,00 2.583,00 15.318,32 1.018,60 2.326,10 0,00 0,00 3.344,70 11.973,62 31/03/2024
298 383700 ANDRESSA EDUARDO SOUZA ANALISTA DO MP OURO BRANCO - COMARCA; OURO BRANCO-PJ-SECRETARIA 20.533,67 6.160,10 0,00 0,00 0,00 0,00 0,00 3.729,58 30.423,35 4.043,82 5.332,74 0,00 0,00 9.376,56 21.046,79 31/03/2024
299 678400 ANDRESSA LUIZA SILVA LOPES ASSESSOR PROMOTOR JUSTICA CARMO DO PARANAÍBA - COMARCA; CARMO DO PARANAIBA-PJ-02PJ 0,00 0,00 8.810,89 0,00 0,00 0,00 0,00 2.583,00 11.393,89 908,85 1.821,01 0,00 0,00 2.729,86 8.664,03 31/03/2024
300 426200 ANDRESSA MENDES CASAL OFICIAL DO MP BELO HORIZONTE - COMARCA; DIR ESTRUTURA E PROCESSOS ORGANIZACIONAIS 10.516,49 3.154,95 0,00 0,00 0,00 0,00 0,00 3.729,58 17.401,02 1.960,25 2.272,44 0,00 0,00 4.232,69 13.168,33 31/03/2024
301 390100 ANDRESSA RIBEIRO PUCCI OFICIAL DO MP UBERABA - COMARCA; UBERABA-PJ-14PJ 9.699,77 1.939,95 0,00 0,00 0,00 0,00 0,00 2.583,00 14.222,72 1.635,18 1.855,25 0,00 0,00 3.490,43 10.732,29 31/03/2024
302 462500 ANDREZA APARECIDA COSTA E SILVA ANALISTA DO MP CONSELHEIRO LAFAIETE - COMARCA; CONSELHEIRO LAFAIETE-PJ-02PJ 12.343,61 2.468,72 0,00 0,00 0,00 0,00 0,00 4.876,16 19.688,49 1.018,60 2.752,36 0,00 0,00 3.770,96 15.917,53 31/03/2024
303 537800 ANDREZZA LUZIA DE OLIVEIRA ALVES ANALISTA DO MP PATOS DE MINAS - COMARCA; COORD REG PJ DEF EDU DIR CRI ADO AL PAR NOROE 12.343,61 2.468,72 0,00 0,00 0,00 0,00 0,00 5.545,47 20.357,80 2.142,79 2.535,99 0,00 0,00 4.678,78 15.679,02 31/03/2024
304 491600 ANE PATRICIA RIBEIRO DUARTE ANALISTA DO MP SETE LAGOAS - COMARCA; SETE LAGOAS-PJ-11PJ 12.343,61 2.468,72 0,00 0,00 0,00 0,00 0,00 2.583,00 17.395,33 2.142,79 2.535,99 0,00 0,00 4.678,78 12.716,55 31/03/2024
305 465800 ANELISE GAMA ASSESSOR ADMINISTRATIVO III BELO HORIZONTE - COMARCA; BH-18PJ VIOLENCIA DOMESTICA-SECRETARIA 0,00 0,00 10.858,90 0,00 0,00 0,00 0,00 2.583,00 13.441,90 908,85 2.384,21 0,00 0,00 3.293,06 10.148,84 31/03/2024
306 535200 ANELIZE FERNANDA ALVES VILARINHO OFICIAL DO MP CAPINÓPOLIS - COMARCA; CAPINOPOLIS-PJ-UNPJ 7.506,70 1.501,34 0,00 0,00 0,00 0,00 0,00 3.729,58 12.737,62 1.214,11 1.247,33 0,00 0,00 2.461,44 10.276,18 31/03/2024
307 197200 ANGELA COELHO SALDANHA OFICIAL DO MP PARÁ DE MINAS - COMARCA; PARA DE MINAS-PJ-03PJ 22.191,68 11.095,84 0,00 0,00 0,00 0,00 0,00 2.583,00 35.870,52 5.098,82 6.855,89 0,00 0,00 11.954,71 23.915,81 31/03/2024
308 307400 ANGELA CRISTINA GONCALVES MUNIZ ANALISTA DO MP UBERLÂNDIA - COMARCA; UBERLANDIA-PJ-SEC FAMILIA 23.070,31 9.228,12 0,00 0,00 0,00 0,00 118,43 3.874,94 36.291,80 4.940,57 6.523,14 0,00 0,00 11.463,71 24.828,09 31/03/2024
309 191800 ANGELA MARIA DE OLIVEIRA OFICIAL DO MP GUARANÉSIA - COMARCA; GUARANESIA-PJ-SECRETARIA 22.191,68 17.753,35 0,00 0,00 0,00 6.127,65 0,00 8.084,44 54.157,12 6.127,65 10.026,36 227,34 0,00 16.381,35 37.775,77 31/03/2024
310 497400 ANGELA MARIA HENRIQUES ANALISTA DO MP BELO HORIZONTE - COMARCA; COORD REG BACIAS RIO VELHAS E PARAOPEBA 12.343,61 2.468,72 0,00 0,00 0,00 0,00 271,56 5.545,47 20.629,36 2.142,79 2.588,12 0,00 0,00 4.730,91 15.898,45 31/03/2024
311 260700 ANGELICA CRISTINA AZEVEDO MOREIRA MOUCO OFICIAL DO MP UBÁ - COMARCA; UBA-PJ-05PJ 18.130,77 7.252,31 0,00 0,00 0,00 0,00 0,00 8.674,94 34.058,02 3.834,11 5.029,97 0,00 0,00 8.864,08 25.193,94 31/03/2024
312 708300 ANGELICA NUNES VIEIRA DA SILVA ASSESSOR PROMOTOR JUSTICA IBIRITÉ - COMARCA; IBIRITE-PJ-02PJ 0,00 0,00 8.810,89 0,00 0,00 0,00 0,00 2.583,00 11.393,89 908,85 1.821,01 0,00 0,00 2.729,86 8.664,03 31/03/2024
313 334600 ANGELICA PANISSA DE FREITAS GALLATI OFICIAL DO MP GUAXUPÉ - COMARCA; GUAXUPE-PJ-02PJ 12.343,61 4.937,44 0,00 0,00 0,00 0,00 0,00 8.568,27 25.849,32 2.537,79 3.106,26 0,00 0,00 5.644,05 20.205,27 31/03/2024
314 521100 ANGELICA SALES MOREIRA OFICIAL DO MP BELO HORIZONTE - COMARCA; BH-02PJ FAMILIA-SECRETARIA 10.516,49 2.103,30 0,00 0,00 0,00 0,00 0,00 3.087,79 15.707,58 1.791,99 2.081,65 0,00 0,00 3.873,64 11.833,94 31/03/2024
315 466500 ANGELLO MARQUES AGRELLI ANALISTA DO MP MAR DE ESPANHA - COMARCA; MAR DE ESPANHA-PJ-UNPJ 12.343,61 2.468,72 0,00 0,00 0,00 0,00 0,00 3.729,58 18.541,91 2.142,79 2.588,12 0,00 0,00 4.730,91 13.811,00 31/03/2024
316 363300 ANGELO VERDOLIN HENRIQUES ANALISTA DO MP SETE LAGOAS - COMARCA; SETE LAGOAS-PJ-04PJ 22.191,68 11.095,84 0,00 0,00 0,00 0,00 2.219,17 8.796,67 44.303,36 5.453,89 7.368,52 0,00 0,00 12.822,41 31.480,95 31/03/2024
317 250900 ANISIO APARECIDO SANTOS OFICIAL DO MP BETIM - COMARCA; BETIM - SECRETARIA DAS PJS CRIMINAIS 7.506,70 3.002,68 0,00 0,00 0,00 0,00 0,00 2.583,00 13.092,38 1.454,32 922,18 0,00 0,00 2.376,50 10.715,88 31/03/2024
318 698100 ANNA CAROLINA POLICARIO BERTOLIN ASSESSOR PROCURADOR JUSTICA BELO HORIZONTE - COMARCA; PROC. JUSTICA DIR. DIFUSOS E COLETIVOS-SEC 0,00 0,00 8.810,89 0,00 0,00 0,00 0,00 2.583,00 11.393,89 908,85 1.821,01 0,00 0,00 2.729,86 8.664,03 31/03/2024
319 253400 ANNA FLAVIA LEHMAN ANALISTA DO MP BELO HORIZONTE - COMARCA; SUPRIN DE PLANEJAMENTO E COORDENACAO 23.070,31 9.228,12 8.404,02 0,00 0,00 0,00 0,00 7.349,12 48.051,57 4.940,57 8.511,30 984,76 0,00 14.436,63 33.614,94 31/03/2024
320 688800 ANNA LUIZA MATTOS DUARTE ASSESSOR PROCURADOR JUSTICA BELO HORIZONTE - COMARCA; GABINETE DE PROCURADOR DE JUSTICA - SALA 311 0,00 0,00 8.810,89 0,00 0,00 0,00 0,00 2.583,00 11.393,89 908,85 1.821,01 0,00 0,00 2.729,86 8.664,03 31/03/2024
321 752100 ANNABELLA ZAVOLI VILLARINHO CARDOSO OFICIAL DO MP ALÉM PARAÍBA - COMARCA; ALEM PARAIBA-PJ-01PJ 4.570,25 0,00 0,00 0,00 0,00 0,00 0,00 2.583,00 7.153,25 544,12 238,46 0,00 0,00 782,58 6.370,67 31/03/2024
322 762500 ANNELISE GIOVANNA DE ANDRADE OFICIAL DO MP BELO HORIZONTE - COMARCA; SUPER DE GESTAO DE PESSOAS-LOTACAO TEMPORARIA 4.570,25 0,00 0,00 0,00 0,00 0,00 0,00 2.583,00 7.153,25 544,12 238,46 0,00 0,00 782,58 6.370,67 31/03/2024
323 447600 ANNGELUCE ALCANTARA DE CAMPOS OFICIAL DO MP DIVINÓPOLIS - COMARCA; DIVINOPOLIS-PJ-07PJ 10.516,49 3.154,95 0,00 0,00 0,00 0,00 0,00 4.223,57 17.895,01 1.960,25 2.324,58 0,00 0,00 4.284,83 13.610,18 31/03/2024
324 630300 ANTONIA GOMES RAMALHO OFICIAL DO MP NOVO CRUZEIRO - COMARCA; NOVO CRUZEIRO-PJ-UNPJ 7.506,70 750,67 0,00 0,00 0,00 0,00 0,00 5.150,52 13.407,89 1.094,00 1.073,93 0,00 0,00 2.167,93 11.239,96 31/03/2024
325 401600 ANTONIO CARLOS GUEDES AROUCA ANALISTA DO MP BELO HORIZONTE - COMARCA; ASSESSORIA JURIDICO-ADMINISTRATIVA 17.005,40 3.401,08 0,00 0,00 0,00 0,00 0,00 2.583,00 22.989,48 3.037,86 3.880,37 0,00 0,00 6.918,23 16.071,25 31/03/2024
326 333900 ANTONIO GONCALVES DE SOUZA FILHO OFICIAL DO MP BELO HORIZONTE - COMARCA; DIRETORIA DE CONTABILIDADE 12.343,61 3.703,08 0,00 0,00 0,00 0,00 0,00 2.583,00 18.629,69 2.340,29 2.873,26 0,00 0,00 5.213,55 13.416,14 31/03/2024
327 176100 ANTONIO MARCELO CAMPOS CAMPANELLA OFICIAL DO MP BELO HORIZONTE - COMARCA; COORD DE GABINETE DO PGJ 22.191,68 11.095,84 0,00 0,00 0,00 0,00 0,00 7.909,00 41.196,52 5.098,82 6.855,89 0,00 0,00 11.954,71 29.241,81 31/03/2024
328 321001 ANTONIO OLINTO VIEIRA MACHADO ANALISTA DO MP BELO HORIZONTE - COMARCA; CENTRAL DE APOIO TECN-SETOR DE MEIO AMBIENTE 20.533,67 6.160,10 0,00 0,00 0,00 4.043,82 0,00 8.730,52 39.468,11 4.043,82 6.340,51 0,00 0,00 10.384,33 29.083,78 31/03/2024
329 356200 ANTONIO PAULA DA SILVA OFICIAL DO MP JUIZ DE FORA - COMARCA; JUIZ DE FORA-PJ-20PJ 12.343,61 4.937,44 0,00 0,00 0,00 0,00 0,00 7.421,69 24.702,74 2.537,79 3.158,40 0,00 0,00 5.696,19 19.006,55 31/03/2024
330 119900 ANTONIO RODRIGUES DE PINHO OFICIAL DO MP GUANHÃES - COMARCA; GUANHAES-PJ-01PJ 21.346,53 17.077,23 0,00 0,00 0,00 15.506,48 0,00 9.438,07 63.368,31 5.920,62 12.254,51 0,00 0,00 18.175,13 45.193,18 31/03/2024
331 373300 ANTONIO SERGIO ANANIAS OFICIAL DO MP SÃO JOÃO NEPOMUCENO - COMARCA; SAO JOAO NEPOMUCENO-PJ-01PJ 12.343,61 3.703,08 0,00 0,00 0,00 0,00 0,00 2.583,00 18.629,69 1.018,60 3.184,59 0,00 0,00 4.203,19 14.426,50 31/03/2024
332 608100 ANTONIO SIDINEY VIEIRA LEMOS ANALISTA DO MP PIRAPORA - COMARCA; PIRAPORA-PJ-01PJ 12.343,61 6.171,81 0,00 0,00 0,00 0,00 0,00 9.654,51 28.169,93 2.735,29 3.391,40 0,00 0,00 6.126,69 22.043,24 31/03/2024
333 374700 ANTONIO SILVA NETO OFICIAL DO MP BELO HORIZONTE - COMARCA; GAECO - SECRETARIA 12.343,61 3.703,08 0,00 0,00 0,00 0,00 0,00 3.729,58 19.776,27 2.340,29 2.873,26 0,00 0,00 5.213,55 14.562,72 31/03/2024
334 636700 ANTONIUS VITORIANO FERNANDES OFICIAL DO MP BELO HORIZONTE - COMARCA; ASSESSORIA JURIDICA DO PROCON-MG 6.818,83 681,88 0,00 0,00 0,00 0,00 0,00 2.583,00 10.083,71 974,36 898,75 0,00 0,00 1.873,11 8.210,60 31/03/2024
335 413200 ANY PEREIRA SILVA ANALISTA DO MP TRÊS PONTAS - COMARCA; TRES PONTAS-PJ-01PJ 18.130,77 5.439,23 0,00 0,00 0,00 0,00 0,00 8.239,80 31.809,80 3.544,02 4.611,14 0,00 0,00 8.155,16 23.654,64 31/03/2024
336 151401 APARECIDA DE FATIMA MENDES DE ALMEIDA ASSESSOR ADMINISTRATIVO II JUIZ DE FORA - COMARCA; JUIZ DE FORA-PJ-SECRETARIA 0,00 0,00 7.506,70 0,00 0,00 0,00 0,00 2.583,00 10.089,70 908,85 1.462,36 0,00 0,00 2.371,21 7.718,49 31/03/2024
337 329300 APARECIDA MARIA MELO DE ASSIS OFICIAL DO MP BELO HORIZONTE - COMARCA; BH-18PJ DIREITOS HUMANOS-SECRETARIA 12.343,61 3.703,08 0,00 0,00 0,00 0,00 0,00 2.583,00 18.629,69 2.340,29 2.873,26 0,00 0,00 5.213,55 13.416,14 31/03/2024
338 653000 APARECIDA ROSA DE LIMA ASSESSOR ADMINISTRATIVO III BELO HORIZONTE - COMARCA; SECRETARIA PROCESSOS DISCIPES ADMINISTRATIVOS 0,00 0,00 10.858,90 0,00 0,00 0,00 0,00 2.583,00 13.441,90 908,85 2.384,21 0,00 0,00 3.293,06 10.148,84 31/03/2024
339 354500 APARECIDA VIEIRA DE CARVALHO OFICIAL DO MP BELO HORIZONTE - COMARCA; DIVISÃO DE EDUCAÇÃO PARA O CONSUMO 10.858,90 3.257,67 0,00 0,00 0,00 0,00 0,00 4.276,99 18.393,56 2.031,47 2.427,40 0,00 0,00 4.458,87 13.934,69 31/03/2024
340 551000 ARACELES BICALHO FELIX ANALISTA DO MP MANHUAÇU - COMARCA; MANHUACU-PJ-05PJ 12.343,61 2.468,72 0,00 0,00 0,00 0,00 0,00 4.876,16 19.688,49 2.142,79 2.588,12 0,00 0,00 4.730,91 14.957,58 31/03/2024
341 286200 ARACELI MEDRADO DOS SANTOS LIMA OFICIAL DO MP PARACATU - COMARCA; PARACATU-PJ-03PJ 7.506,70 3.002,68 0,00 0,00 0,00 0,00 0,00 3.729,58 14.238,96 1.454,32 1.594,14 0,00 0,00 3.048,46 11.190,50 31/03/2024
342 112200 ARAQUEM AUGUSTO DE MATOS AGENTE DO MP BELO HORIZONTE - COMARCA; BH-23PJ CIVEL-SEC EXP CIVEIS 13.588,97 12.230,08 0,00 0,00 0,00 3.903,87 0,00 2.583,00 32.305,92 3.903,87 6.099,96 0,00 0,00 10.003,83 22.302,09 31/03/2024
343 280600 ARDUINO FRATTEZI ANALISTA DO MP BELO HORIZONTE - COMARCA; CENTRAL DE APOIO TECNICO-SETOR CONTABIL 23.070,31 9.228,12 0,00 0,00 0,00 4.940,57 0,00 8.541,24 45.780,24 4.940,57 7.986,07 0,00 0,00 12.926,64 32.853,60 31/03/2024
344 520201 ARIANE DE FATIMA CARVALHO ALMEIDA RODRIGUES ANALISTA DO MP VESPASIANO - COMARCA; VESPASIANO-PJ-SECRETARIA 12.343,61 1.234,36 0,00 0,00 0,00 0,00 0,00 4.302,87 17.880,84 1.945,30 2.146,57 0,00 0,00 4.091,87 13.788,97 31/03/2024
345 537600 ARIELA FREIRE MONTIJO ANALISTA DO MP ARCOS - COMARCA; ARCOS-PJ-01PJ 12.343,61 2.468,72 0,00 0,00 0,00 0,00 0,00 2.583,00 17.395,33 2.142,79 2.483,85 0,00 0,00 4.626,64 12.768,69 31/03/2024
346 182000 ARILSON ALEXANDRE MARTINS MAGALHAES OFICIAL DO MP JOÃO MONLEVADE - COMARCA; JOAO MONLEVADE-PJ-01PJ 21.346,53 10.673,27 0,00 0,00 0,00 0,00 0,00 12.292,49 44.312,29 4.895,99 6.302,36 0,00 0,00 11.198,35 33.113,94 31/03/2024
347 511000 ARISLANE CAROLINA DA SILVA ANALISTA DO MP MONTE CARMELO - COMARCA; MONTE CARMELO-PJ-02PJ 12.343,61 2.468,72 0,00 0,00 0,00 0,00 271,56 7.838,63 22.922,52 2.142,79 2.588,12 0,00 0,00 4.730,91 18.191,61 31/03/2024
348 170000 ARLEY BRITES DA SILVA ASSESSOR ADMINISTRATIVO II BELO HORIZONTE - COMARCA; BH-14PJ DEFESA CONSUMIDOR-SECRETARIA 0,00 3.753,35 7.506,70 0,00 0,00 0,00 0,00 2.583,00 13.843,05 908,85 1.745,04 0,00 0,00 2.653,89 11.189,16 31/03/2024
349 243700 ARLINDO MARCIO LACERDA OFICIAL DO MP CONTAGEM - COMARCA; CONTAGEM-PJ-15PJ 18.130,77 9.065,39 0,00 0,00 0,00 0,00 1.771,66 2.583,00 31.550,82 4.124,21 5.935,99 0,00 0,00 10.060,20 21.490,62 31/03/2024
350 392100 ARNALDO DE ANDRADE OFICIAL DO MP DIVINÓPOLIS - COMARCA; DIVINOPOLIS-PJ-02PJ 12.343,61 4.443,70 0,00 0,00 0,00 0,00 1.771,66 8.521,87 27.080,84 2.458,79 3.479,41 0,00 0,00 5.938,20 21.142,64 31/03/2024
351 642400 ARTANE INARDE DE SIQUEIRA DAMASCENO ANALISTA DO MP BELO HORIZONTE - COMARCA; SECRETARIA DE ASSUNTOS INTERNACIONAIS 10.341,72 1.034,17 0,00 0,00 0,00 0,00 0,00 4.302,87 15.678,76 1.018,60 1.878,21 0,00 0,00 2.896,81 12.781,95 31/03/2024
352 733000 ARTHUR BRANDAO ALBUQUERQUE ASSESSOR ADMINISTRATIVO II BELO HORIZONTE - COMARCA; DIRETORIA DE PAGAMENTO DE PESSOAL-DPAG 0,00 0,00 7.506,70 0,00 0,00 0,00 0,00 2.583,00 10.089,70 908,85 1.462,36 0,00 0,00 2.371,21 7.718,49 31/03/2024
353 302100 AUGUSTO ROUSSEAU DE CASTRO ANALISTA DO MP CATAGUASES - COMARCA; CATAGUASES-PJ-02PJ 23.070,31 6.921,09 0,00 0,00 0,00 0,00 0,00 8.581,28 38.572,68 4.571,45 6.094,49 0,00 0,00 10.665,94 27.906,74 31/03/2024
354 540200 AUREA AVELAR BITTENCOURT OFICIAL DO MP BELO HORIZONTE - COMARCA; GRUPO ESP PROM JUST DEF PROB ADM PAT PUB 7.506,70 1.501,34 0,00 0,00 0,00 0,00 0,00 2.583,00 11.591,04 1.018,60 1.198,55 0,00 0,00 2.217,15 9.373,89 31/03/2024
355 633501 AUREA GONTIJO BIRCHAL ASSESSOR DE GABINETE I BELO HORIZONTE - COMARCA; PROCURADOR-GERAL DE JUSTIÇA 0,00 0,00 18.130,77 0,00 0,00 0,00 0,00 8.384,85 26.515,62 908,85 4.383,98 0,00 0,00 5.292,83 21.222,79 31/03/2024
356 183200 AURELIANO MAGELA DE REZENDE OFICIAL DO MP BELO HORIZONTE - COMARCA; COORD DE GABINETE DO PGJ 23.070,31 9.228,12 6.160,10 0,00 0,00 0,00 564,06 8.736,36 47.758,95 4.940,57 8.321,44 0,00 0,00 13.262,01 34.496,94 31/03/2024
357 629400 AYESKA DA COSTA VAL MOURA DABIEN OFICIAL DO MP BELO HORIZONTE - COMARCA; BH-09PJ AUDITORIA MILITAR-SECRETARIA 7.506,70 750,67 0,00 0,00 0,00 0,00 0,00 2.583,00 10.840,37 1.094,00 1.073,93 0,00 0,00 2.167,93 8.672,44 31/03/2024
358 707400 AYMEE JOHANSSENN TYNEE CORREIA ALVES ASSESSOR PROMOTOR JUSTICA NOVA LIMA - COMARCA; NOVA LIMA-PJ-01PJ 0,00 0,00 8.810,89 0,00 0,00 0,00 0,00 2.583,00 11.393,89 908,85 1.821,01 0,00 0,00 2.729,86 8.664,03 31/03/2024
359 701600 BARBARA CHAVES OLIVEIRA ASSESSOR PROCURADOR JUSTICA BELO HORIZONTE - COMARCA; PROC. JUSTICA DIR. DIFUSOS E COLETIVOS-SEC 0,00 0,00 8.810,89 0,00 0,00 0,00 0,00 2.583,00 11.393,89 908,85 1.821,01 0,00 0,00 2.729,86 8.664,03 31/03/2024
360 691900 BARBARA COUTINHO REIS ASSESSOR PROCURADOR JUSTICA BELO HORIZONTE - COMARCA; GABINETE DE PROCURADOR DE JUSTIÇA - SALA 910 0,00 0,00 8.810,89 0,00 0,00 0,00 0,00 2.583,00 11.393,89 908,85 1.821,01 0,00 0,00 2.729,86 8.664,03 31/03/2024
361 692200 BARBARA CRISTINA MENDES BANDEIRA DE MELO DUTRA ASSESSOR PROCURADOR JUSTICA BELO HORIZONTE - COMARCA; GABINETE DE PROCURADOR DE JUSTIÇA - SALA 1009 0,00 0,00 10.788,89 0,00 0,00 0,00 0,00 1.751,58 12.540,47 908,85 1.821,01 0,00 0,00 2.729,86 9.810,61 31/03/2024
362 743300 BARBARA CRISTINA SOUZA E SOUSA ASSESSOR PROCURADOR JUSTICA BELO HORIZONTE - COMARCA; GABINETE DE PROCURADOR DE JUSTIÇA - SALA 513 0,00 0,00 8.810,89 0,00 0,00 0,00 0,00 2.583,00 11.393,89 908,85 1.821,01 0,00 0,00 2.729,86 8.664,03 31/03/2024
363 723400 BARBARA CRISTINA TAVARES CARNEIRO ASSESSOR PROCURADOR JUSTICA BELO HORIZONTE - COMARCA; GABINETE DE PROCURADOR DE JUSTIÇA - SALA 501 0,00 0,00 8.810,89 0,00 0,00 0,00 0,00 2.583,00 11.393,89 908,85 1.821,01 0,00 0,00 2.729,86 8.664,03 31/03/2024
364 652800 BARBARA JULIANNE MOREIRA CASTRO ASSESSOR PROCURADOR JUSTICA BELO HORIZONTE - COMARCA; ASSESS TECNICO-JUR JUNTO AS PROC. DE JUST 0,00 0,00 8.810,89 0,00 0,00 0,00 0,00 2.583,00 11.393,89 908,85 1.821,01 0,00 0,00 2.729,86 8.664,03 31/03/2024
365 707700 BARBARA LOUISE PUFF DE OLIVEIRA ASSESSOR PROMOTOR JUSTICA RIBEIRÃO DAS NEVES - COMARCA; RIBEIRAO DAS NEVES-PJ-02PJ 0,00 0,00 8.810,89 0,00 0,00 0,00 0,00 5.402,48 14.213,37 908,85 1.821,01 0,00 0,00 2.729,86 11.483,51 31/03/2024
366 763100 BARBARA MINELLI FERNANDES ASSESSOR PROCURADOR JUSTICA BELO HORIZONTE - COMARCA; GABINETE DE PROCURADOR DE JUSTIÇA-SALA1108-T3 0,00 0,00 8.810,89 0,00 0,00 0,00 0,00 2.583,00 11.393,89 908,85 1.821,01 0,00 0,00 2.729,86 8.664,03 31/03/2024
367 663600 BARBARA REGINA PEREIRA DE PINHO MAGALHAES ASSESSOR PROMOTOR JUSTICA BELO HORIZONTE - COMARCA; CAO-DH CONT EXT ATIV POLIC E AP COMUNIT 0,00 0,00 8.810,89 0,00 0,00 0,00 0,00 2.583,00 11.393,89 908,85 1.821,01 0,00 0,00 2.729,86 8.664,03 31/03/2024
368 546500 BARBARA ZACARONI GOULART OFICIAL DO MP BETIM - COMARCA; BETIM-PJ-08PJ 7.506,70 1.501,34 0,00 0,00 0,00 0,00 0,00 2.583,00 11.591,04 1.214,11 1.247,33 0,00 0,00 2.461,44 9.129,60 31/03/2024
369 316500 BEATRIZ ABILVIA DA SILVA ANALISTA DO MP GOVERNADOR VALADARES - COMARCA; GOVERNADOR VALADARES-PJ-07PJ 23.070,31 6.921,09 0,00 0,00 0,00 4.571,45 0,00 8.113,05 42.675,90 4.571,45 7.351,64 0,00 0,00 11.923,09 30.752,81 31/03/2024
370 311800 BEATRIZ APARECIDA SOARES GANEM OFICIAL DO MP ITAMBACURI - COMARCA; ITAMBACURI-PJ-02PJ 14.960,00 5.984,00 0,00 0,00 0,00 4.998,18 0,00 8.884,10 34.826,28 3.123,86 5.274,76 0,00 0,00 8.398,62 26.427,66 31/03/2024
371 266800 BEATRIZ AUGUSTA VILACA GOMES DE HUBER OFICIAL DO MP BELO HORIZONTE - COMARCA; BH-05PJ-JUÍZO SUCESSÕES-SEC 12.343,61 4.937,44 0,00 0,00 0,00 0,00 0,00 2.583,00 19.864,05 2.537,79 3.158,40 0,00 0,00 5.696,19 14.167,86 31/03/2024
372 235200 BEATRIZ BOTELHO BATISTA OFICIAL DO MP MATEUS LEME - COMARCA; MATEUS LEME-PJ-02PJ 12.343,61 4.937,44 0,00 0,00 0,00 0,00 0,00 2.583,00 19.864,05 2.537,79 3.158,40 0,00 0,00 5.696,19 14.167,86 31/03/2024
373 182300 BEATRIZ PAULA SOUSA RAMOS OFICIAL DO MP MARIANA - COMARCA; MARIANA-PJ-01PJ 21.346,53 10.673,27 0,00 0,00 0,00 0,00 0,00 2.583,00 34.602,80 4.895,99 6.563,05 0,00 0,00 11.459,04 23.143,76 31/03/2024
374 759600 BEATRIZ PERES FURLANI ASSESSOR PROMOTOR JUSTICA RIO POMBA - COMARCA; RIO POMBA-PJ-UNPJ 0,00 0,00 8.810,89 0,00 0,00 0,00 0,00 2.583,00 11.393,89 908,85 1.821,01 0,00 0,00 2.729,86 8.664,03 31/03/2024
375 507000 BELCHIOR FRANKLIN AMARAL LEITE ANALISTA DO MP BELO HORIZONTE - COMARCA; CAO ORGAOS MPMG DESIG FUNC ELEITORAIS-SEC 14.960,00 3.889,60 0,00 0,00 0,00 0,00 0,00 8.614,87 27.464,47 2.788,76 3.364,32 0,00 0,00 6.153,08 21.311,39 31/03/2024
376 345100 BENITO ELIAS RODRIGUES ANALISTA DO MP BARBACENA - COMARCA; BARBACENA - SECRETARIA DAS PJS CRIMINAIS 22.191,68 6.657,50 0,00 0,00 0,00 0,00 0,00 3.729,58 32.578,76 4.388,69 5.778,50 0,00 0,00 10.167,19 22.411,57 31/03/2024
377 207300 BENITO VIEIRA DOS SANTOS ANALISTA DO MP BELO HORIZONTE - COMARCA; PROC JUST ESP ACOES COMP ORIG CRIMINAL-ASSESS 23.070,31 11.535,16 0,00 0,00 0,00 5.309,70 0,00 7.372,83 47.288,00 5.309,70 7.081,32 0,00 0,00 12.391,02 34.896,98 31/03/2024
378 480200 BERNADETE NUNES DOS SANTOS ANALISTA DO MP GUANHÃES - COMARCA; GUANHAES-PJ-02PJ 12.343,61 4.937,44 0,00 0,00 0,00 0,00 0,00 2.583,00 19.864,05 2.537,79 3.158,40 0,00 0,00 5.696,19 14.167,86 31/03/2024
379 378400 BETANIA FARNESI DE SOUZA E SILVA OFICIAL DO MP CURVELO - COMARCA; CURVELO-PJ-01PJ 12.343,61 4.937,44 0,00 0,00 0,00 0,00 0,00 7.421,69 24.702,74 2.537,79 3.106,26 0,00 0,00 5.644,05 19.058,69 31/03/2024
380 387400 BETANIA MENDONCA DE ASSIS CARVALHO ANALISTA DO MP JUIZ DE FORA - COMARCA; JUIZ DE FORA-PJ-03PJ 20.533,67 6.160,10 0,00 0,00 0,00 0,00 0,00 3.729,58 30.423,35 4.043,82 5.280,60 0,00 0,00 9.324,42 21.098,93 31/03/2024
381 714400 BIANCA DE CASTRO RAMOS ASSESSOR PROMOTOR JUSTICA BETIM - COMARCA; BETIM-PJ-13PJ 0,00 0,00 8.810,89 0,00 0,00 0,00 0,00 2.583,00 11.393,89 908,85 1.821,01 0,00 0,00 2.729,86 8.664,03 31/03/2024
382 450300 BIANCA OLIVEIRA DE ALBUQUERQUE ANALISTA DO MP BELO HORIZONTE - COMARCA; BH-10PJ EXECUÇÃO PENAL-SECRETARIA 12.343,61 2.468,72 0,00 0,00 0,00 0,00 0,00 3.729,58 18.541,91 2.142,79 2.588,12 0,00 0,00 4.730,91 13.811,00 31/03/2024
383 535400 BIANCA SALOTO ROSSI ANALISTA DO MP SANTOS DUMONT - COMARCA; SANTOS DUMONT-PJ-01PJ 12.343,61 2.468,72 0,00 0,00 0,00 0,00 0,00 3.729,58 18.541,91 2.142,79 2.588,12 0,00 0,00 4.730,91 13.811,00 31/03/2024
384 120800 BRAS MARQUES DE SOUZA ANALISTA DO MP BELO HORIZONTE - COMARCA; SUPERINTENDENCIA DE GESTAO ADMINISTRATIVA 29.122,38 26.210,14 0,00 0,00 0,00 6.127,65 0,00 8.084,44 69.544,61 6.127,65 9.922,09 15.614,83 0,00 31.664,57 37.880,04 31/03/2024
385 756500 BRENDA LORRANA FRANCO ASSESSOR PROMOTOR JUSTICA UBERLÂNDIA - COMARCA; UBERLANDIA-PJ-20PJ 0,00 0,00 8.810,89 0,00 0,00 0,00 0,00 2.583,00 11.393,89 908,85 1.821,01 0,00 0,00 2.729,86 8.664,03 31/03/2024
386 724400 BRENDA PIMENTEL DE SOUZA VIANA ASSESSOR PROMOTOR JUSTICA MANHUMIRIM - COMARCA; MANHUMIRIM-PJ-01PJ 0,00 0,00 8.810,89 0,00 0,00 0,00 0,00 2.583,00 11.393,89 908,85 1.821,01 0,00 0,00 2.729,86 8.664,03 31/03/2024
387 710500 BRENNO VINICIUS MAGESTE ROSA ASSESSOR PROMOTOR JUSTICA MANHUAÇU - COMARCA; MANHUACU-PJ-02PJ 0,00 0,00 8.810,89 0,00 0,00 0,00 0,00 2.583,00 11.393,89 908,85 1.821,01 0,00 0,00 2.729,86 8.664,03 31/03/2024
388 460900 BRENO CRISTIANO DE SOUZA REZENDE ANALISTA DO MP ITAÚNA - COMARCA; ITAUNA-PJ-02PJ 12.343,61 2.468,72 0,00 0,00 0,00 0,00 271,56 5.545,47 20.629,36 2.142,79 2.588,12 0,00 0,00 4.730,91 15.898,45 31/03/2024
389 239000 BRENO VENANCIO ROMANINI OFICIAL DO MP BELO HORIZONTE - COMARCA; BH-20PJ ORD ECON TRIBUTARIA-SECRETARIA 12.343,61 4.937,44 0,00 0,00 0,00 0,00 570,27 8.804,17 26.655,49 2.537,79 3.158,40 0,00 0,00 5.696,19 20.959,30 31/03/2024
390 722100 BRUNA HENRIQUE DE SOUZA ASSESSOR PROMOTOR JUSTICA PIRAPETINGA - COMARCA; PIRAPETINGA-PJ-UNPJ 0,00 0,00 8.810,89 0,00 0,00 0,00 0,00 2.583,00 11.393,89 908,85 1.821,01 0,00 0,00 2.729,86 8.664,03 31/03/2024
391 642300 BRUNA IZABELITA DE FATIMA OLIVEIRA COSTA OFICIAL DO MP BELO HORIZONTE - COMARCA; BH-02PJ FAMILIA-SECRETARIA 7.506,70 750,67 0,00 0,00 0,00 0,00 0,00 2.583,00 10.840,37 1.094,00 1.073,93 0,00 0,00 2.167,93 8.672,44 31/03/2024
392 513600 BRUNA KARLA MARTINS CARVALHO ANALISTA DO MP GOVERNADOR VALADARES - COMARCA; GOVERNADOR VALADARES-PJ-14PJ 12.343,61 2.468,72 0,00 0,00 0,00 0,00 0,00 5.545,47 20.357,80 1.018,60 2.752,36 0,00 0,00 3.770,96 16.586,84 31/03/2024
393 415100 BRUNA MARIA SOARES OLIVEIRA COSTA RAMOS ANALISTA DO MP UBÁ - COMARCA; COORD REG BACIA DO RIO PARAIBA DO SUL 18.720,84 5.616,25 0,00 0,00 0,00 0,00 0,00 2.583,00 26.920,09 1.018,60 5.175,22 0,00 0,00 6.193,82 20.726,27 31/03/2024
394 692900 BRUNA MENDES COELHO ASSESSOR PROCURADOR JUSTICA BELO HORIZONTE - COMARCA; GABINETE DE PROCURADOR DE JUSTIÇA - SALA 801 0,00 0,00 8.810,89 0,00 0,00 0,00 0,00 2.583,00 11.393,89 908,85 1.821,01 0,00 0,00 2.729,86 8.664,03 31/03/2024
395 470000 BRUNA MORAES ANALISTA DO MP TOMBOS - COMARCA; TOMBOS-PJ-UNPJ 17.559,01 4.565,34 0,00 0,00 0,00 0,00 0,00 8.777,82 30.902,17 3.312,72 4.120,79 0,00 0,00 7.433,51 23.468,66 31/03/2024
396 614700 BRUNA NATTANY DE LIMA OFICIAL DO MP MANTENA - COMARCA; MANTENA-PJ-01PJ 7.506,70 750,67 0,00 0,00 0,00 0,00 0,00 5.449,45 13.706,82 1.094,00 1.073,93 0,00 0,00 2.167,93 11.538,89 31/03/2024
397 729800 BRUNA PAULA AMARAL CEOLIN ASSESSOR PROMOTOR JUSTICA COMARCA - JUATUBA; JUATUBA-PJ-UNPJ 0,00 0,00 8.810,89 0,00 0,00 0,00 0,00 2.583,00 11.393,89 908,85 1.821,01 0,00 0,00 2.729,86 8.664,03 31/03/2024
398 631800 BRUNA RAPOSO JORGE OFICIAL DO MP JUIZ DE FORA - COMARCA; JUIZ DE FORA-PJ-06PJ 7.506,70 750,67 0,00 0,00 0,00 0,00 0,00 3.729,58 11.986,95 1.094,00 1.073,93 0,00 0,00 2.167,93 9.819,02 31/03/2024
399 699300 BRUNA URSINE TIMO ASSESSOR PROCURADOR JUSTICA BELO HORIZONTE - COMARCA; PROC JUST ESP ACOES COMP ORIG CRIMINAL-GAB 0,00 0,00 8.810,89 0,00 0,00 0,00 0,00 2.583,00 11.393,89 908,85 1.821,01 0,00 0,00 2.729,86 8.664,03 31/03/2024
400 463800 BRUNO ALVES TEIXEIRA ANALISTA DO MP UBERLÂNDIA - COMARCA; UBERLANDIA-PJ-04PJ 12.343,61 2.468,72 0,00 0,00 0,00 0,00 0,00 5.545,47 20.357,80 2.142,79 2.588,12 0,00 0,00 4.730,91 15.626,89 31/03/2024
401 538500 BRUNO AUGUSTO DA SILVA OFICIAL DO MP SANTA LUZIA - COMARCA; SANTA LUZIA-PJ-03PJ 7.506,70 1.501,34 0,00 0,00 0,00 0,00 0,00 2.583,00 11.591,04 1.214,11 1.247,33 0,00 0,00 2.461,44 9.129,60 31/03/2024
402 318200 BRUNO BARROS DE SOUZA OFICIAL DO MP BELO HORIZONTE - COMARCA; DIRETORIA GESTAO CONTRATOS CONVENIOS 12.343,61 3.703,08 0,00 0,00 0,00 0,00 0,00 7.076,07 23.122,76 1.018,60 2.669,53 0,00 0,00 3.688,13 19.434,63 31/03/2024
403 459600 BRUNO CASTELAR LUGAO MENDES OFICIAL DO MP BELO HORIZONTE - COMARCA; PROC JUST ATUACAO TRIBUNAIS SUPERIORES 11.212,54 2.242,51 4.346,47 0,00 0,00 0,00 0,00 9.426,07 27.227,59 1.018,60 3.602,38 0,00 0,00 4.620,98 22.606,61 31/03/2024
404 427400 BRUNO CESAR RIBEIRO DE PAIVA ANALISTA DO MP BELO HORIZONTE - COMARCA; DIRETORIA DO COLEGIO E DA CAMARA DE PJ 18.720,84 5.616,25 0,00 0,00 0,00 0,00 1.872,08 6.402,05 32.611,22 3.966,29 5.220,79 0,00 0,00 9.187,08 23.424,14 31/03/2024
405 380900 BRUNO CIRILO ANTUNES OFICIAL DO MP VARGINHA - COMARCA; VARGINHA-PJ-05PJ 12.343,61 3.703,08 0,00 0,00 0,00 0,00 0,00 7.076,07 23.122,76 2.340,29 2.873,26 0,00 0,00 5.213,55 17.909,21 31/03/2024
406 329000 BRUNO DE MELO REIS ANALISTA DO MP PATROCÍNIO - COMARCA; PATROCINIO-PJ-02PJ 23.070,31 9.228,12 0,00 0,00 0,00 0,00 0,00 10.043,91 42.342,34 4.940,57 6.523,14 0,00 0,00 11.463,71 30.878,63 31/03/2024
407 697800 BRUNO GAZZOLA BEZERRA FALCAO ASSESSOR PROCURADOR JUSTICA BELO HORIZONTE - COMARCA; PROCURADOR-GERAL ADJUNTO JURIDICO- GABINETE 0,00 0,00 8.810,89 0,00 0,00 0,00 0,00 2.583,00 11.393,89 908,85 1.821,01 0,00 0,00 2.729,86 8.664,03 31/03/2024
408 378300 BRUNO HERDY LOPES DE OLIVEIRA ANALISTA DO MP GOVERNADOR VALADARES - COMARCA; GOVERNADOR VALADARES-PJ-03PJ 20.533,67 6.160,10 0,00 0,00 0,00 0,00 0,00 7.921,75 34.615,52 4.043,82 5.332,74 0,00 0,00 9.376,56 25.238,96 31/03/2024
409 529700 BRUNO JOSE BUENO DIAS OFICIAL DO MP SÃO SEBASTIÃO DO PARAÍSO - COMARCA; SAO SEBASTIAO DO PARAISO-PJ-02PJ 7.506,70 1.501,34 0,00 0,00 0,00 0,00 0,00 2.583,00 11.591,04 1.214,11 1.195,19 0,00 0,00 2.409,30 9.181,74 31/03/2024
410 691600 BRUNO JOSE RIBEIRO ASSESSOR PROMOTOR JUSTICA CLÁUDIO - COMARCA; CLAUDIO-PJ-UNPJ 0,00 0,00 8.810,89 0,00 0,00 0,00 0,00 2.583,00 11.393,89 908,85 1.821,01 0,00 0,00 2.729,86 8.664,03 31/03/2024
411 350100 BRUNO LAUD SERRANO DOS REIS OFICIAL DO MP UBÁ - COMARCA; UBA-PJ-02PJ 12.343,61 4.937,44 0,00 0,00 0,00 0,00 0,00 7.421,69 24.702,74 2.537,79 3.106,26 0,00 0,00 5.644,05 19.058,69 31/03/2024
412 728900 BRUNO LIMA PITANGA ASSESSOR PROMOTOR JUSTICA BELO HORIZONTE - COMARCA; NUCLEO DA EXECUCAO PENAL 0,00 0,00 8.810,89 0,00 0,00 0,00 96,92 3.640,31 12.548,12 908,85 1.821,01 0,00 0,00 2.729,86 9.818,26 31/03/2024
413 745900 BRUNO LUIZ MARQUES ROCHA OFICIAL DO MP RIBEIRÃO DAS NEVES - COMARCA; RIBEIRAO NEVES-SEC PJ EXECUCAO PENAL 4.570,25 0,00 0,00 0,00 0,00 0,00 0,00 2.583,00 7.153,25 544,12 238,46 0,00 0,00 782,58 6.370,67 31/03/2024
414 373800 BRUNO MARTINO DE ALBUQUERQUE ANALISTA DO MP PONTE NOVA - COMARCA; PONTE NOVA-PJ-03PJ 20.533,67 6.160,10 0,00 0,00 0,00 0,00 0,00 7.921,75 34.615,52 4.043,82 5.228,46 0,00 0,00 9.272,28 25.343,24 31/03/2024
415 732900 BRUNO NOGUEIRA GUIMARAES ASSESSOR DE CAO BELO HORIZONTE - COMARCA; CAO APOIO COMUNIT INCLUSAO E MOB SOCIAIS 0,00 0,00 6.365,31 0,00 0,00 0,00 0,00 2.583,00 8.948,31 908,85 1.148,48 0,00 0,00 2.057,33 6.890,98 31/03/2024
416 470400 BRUNO NOVAIS CABRAL ANALISTA DO MP MUTUM - COMARCA; MUTUM-PJ-UNPJ 12.343,61 2.468,72 0,00 0,00 0,00 0,00 0,00 6.692,05 21.504,38 2.142,79 2.588,12 0,00 0,00 4.730,91 16.773,47 31/03/2024
417 648600 BRUNO RIBEIRO E MELO COORDENADOR I BELO HORIZONTE - COMARCA; DIR RELACOES INSTITUCIONAIS 0,00 0,00 16.469,17 0,00 0,00 0,00 0,00 7.194,37 23.663,54 908,85 3.927,04 0,00 0,00 4.835,89 18.827,65 31/03/2024
418 369200 BRUNO ROBERTO DIAS DE OLIVEIRA OFICIAL DO MP BELO HORIZONTE - COMARCA; BH-22PJ PES COM DEF E IDOSOS-SECRETARIA 12.343,61 3.703,08 0,00 0,00 0,00 0,00 0,00 7.076,07 23.122,76 1.018,60 3.066,35 0,00 0,00 4.084,95 19.037,81 31/03/2024
419 547700 BRUNO ROBERTO SOUZA GONCALVES ANALISTA DO MP PARACATU - COMARCA; PARACATU-PJ-03PJ 12.343,61 2.468,72 0,00 0,00 0,00 0,00 0,00 6.692,05 21.504,38 2.142,79 2.588,12 0,00 0,00 4.730,91 16.773,47 31/03/2024
420 546100 BRUNO SA VIEIRA ANALISTA DO MP VIÇOSA - COMARCA; VICOSA-PJ-04PJ 12.343,61 2.468,72 0,00 0,00 0,00 0,00 543,12 9.654,51 25.009,96 2.142,79 2.483,85 0,00 0,00 4.626,64 20.383,32 31/03/2024
421 438200 BRUNO SALES PEREIRA ANALISTA DO MP BELO HORIZONTE - COMARCA; CENTRAL DE APOIO TECNICO-SETOR CONTABIL 17.559,01 3.511,80 0,00 0,00 0,00 0,00 540,82 8.482,83 30.094,46 3.144,15 3.981,69 0,00 0,00 7.125,84 22.968,62 31/03/2024
422 537400 BRUNO SANT'ANA CESAR ANALISTA DO MP BELO HORIZONTE - COMARCA; BH-12PJ JUIZO CRIMINAL-GAB 105PJ 12.343,61 2.468,72 0,00 0,00 0,00 0,00 0,00 5.545,47 20.357,80 2.142,79 2.588,12 0,00 0,00 4.730,91 15.626,89 31/03/2024
423 727700 BYANKA DA SILVA MORAIS ASSESSOR PROCURADOR JUSTICA BELO HORIZONTE - COMARCA; GABINETE DE PROCURADOR DE JUSTIÇA - SALA 805 0,00 0,00 8.810,89 0,00 0,00 0,00 0,00 2.583,00 11.393,89 908,85 1.821,01 0,00 0,00 2.729,86 8.664,03 31/03/2024
424 748100 CAETANO ALBERTO MARTINS BOTELHO ASSESSOR PROMOTOR JUSTICA COROMANDEL - COMARCA; COROMANDEL-PJ-02PJ 0,00 0,00 8.810,89 0,00 0,00 0,00 0,00 2.583,00 11.393,89 908,85 1.821,01 0,00 0,00 2.729,86 8.664,03 31/03/2024
425 405800 CAIO FERNANDO RODRIGUES DE OLIVEIRA ANALISTA DO MP BELO HORIZONTE - COMARCA; ASSESSORIA JURIDICO-ADMINISTRATIVA 18.720,84 5.616,25 0,00 0,00 0,00 0,00 0,00 8.423,90 32.760,99 1.018,60 5.357,28 0,00 0,00 6.375,88 26.385,11 31/03/2024
426 530000 CAIO GUEDES DE OLIVEIRA ANALISTA DO MP DIAMANTINA - COMARCA; DIAMANTINA-PJ-02PJ 12.343,61 2.468,72 0,00 0,00 0,00 0,00 0,00 2.583,00 17.395,33 2.142,79 2.535,99 0,00 0,00 4.678,78 12.716,55 31/03/2024
427 491400 CAIO MIRANDA JUNQUEIRA ANALISTA DO MP BELO HORIZONTE - COMARCA; CENT ESTAD COOPERACAO TECNICO-JURIDICA 12.343,61 2.468,72 0,00 0,00 0,00 0,00 271,56 5.545,47 20.629,36 2.142,79 2.483,85 0,00 0,00 4.626,64 16.002,72 31/03/2024
428 415800 CAMILA ALVES DA SILVA ANALISTA DO MP CAETÉ - COMARCA; CAETE-PJ-01PJ 18.720,84 5.616,25 0,00 0,00 0,00 0,00 0,00 8.423,90 32.760,99 3.666,76 4.788,34 0,00 0,00 8.455,10 24.305,89 31/03/2024
429 555800 CAMILA CAROLINE ROCHA CHAVES OFICIAL DO MP SALINAS - COMARCA; SALINAS-PJ-01PJ 7.506,70 1.501,34 0,00 0,00 0,00 0,00 0,00 3.729,58 12.737,62 1.214,11 1.247,33 0,00 0,00 2.461,44 10.276,18 31/03/2024
430 747700 CAMILA CATIA VILELA VIANA ASSESSOR DE CAO BELO HORIZONTE - COMARCA; CAO-SAUDE-ASSESSORIA 0,00 0,00 7.506,70 0,00 0,00 0,00 0,00 2.583,00 10.089,70 567,78 1.012,20 0,00 0,00 1.579,98 8.509,72 31/03/2024
431 445200 CAMILA CONDE ROCHA ANALISTA DO MP CONTAGEM - COMARCA; CONTAGEM-PJ-21PJ 14.960,00 2.992,00 0,00 0,00 0,00 0,00 0,00 8.327,64 26.279,64 2.645,14 3.313,39 0,00 0,00 5.958,53 20.321,11 31/03/2024
432 419900 CAMILA CUNNINGHAM PIMENTA DE PADUA ANALISTA DO MP BELO HORIZONTE - COMARCA; ASSESSORIA PSICOSSOCIAL 18.720,84 5.616,25 0,00 0,00 0,00 0,00 0,00 2.583,00 26.920,09 3.666,76 4.788,34 0,00 0,00 8.455,10 18.464,99 31/03/2024
433 742700 CAMILA DA SILVA GONCALVES ANALISTA DO MP BELO HORIZONTE - COMARCA; DIV FISCAL ADM CONT TERCEIRIZACAO 7.040,78 0,00 0,00 0,00 0,00 0,00 0,00 2.583,00 9.623,78 903,07 791,87 0,00 0,00 1.694,94 7.928,84 31/03/2024
434 714200 CAMILA DE SOUSA CUNHA ASSESSOR PROMOTOR JUSTICA PRADOS - COMARCA; PRADOS-PJ-UNPJ 0,00 0,00 8.810,89 0,00 0,00 0,00 0,00 2.583,00 11.393,89 908,85 1.821,01 0,00 0,00 2.729,86 8.664,03 31/03/2024
435 507700 CAMILA ELIZABETH RODRIGUES ANALISTA DO MP BELO HORIZONTE - COMARCA; BH-02PJ FAMILIA-SECRETARIA 15.447,01 3.089,40 0,00 0,00 0,00 0,00 0,00 2.583,00 21.119,41 2.738,65 3.448,38 0,00 0,00 6.187,03 14.932,38 31/03/2024
436 372700 CAMILA FONSECA LIMONGE ANALISTA DO MP BETIM - COMARCA; BETIM-PJ-01PJ 20.533,67 6.160,10 0,00 0,00 0,00 0,00 0,00 7.921,75 34.615,52 4.043,82 5.332,74 0,00 0,00 9.376,56 25.238,96 31/03/2024
437 621300 CAMILA GOLFETO DE SOUSA VALENTE OFICIAL DO MP CARANGOLA - COMARCA; CARANGOLA-PJ-SECRETARIA 7.506,70 750,67 0,00 0,00 0,00 0,00 0,00 4.302,87 12.560,24 1.094,00 969,65 0,00 0,00 2.063,65 10.496,59 31/03/2024
438 409800 CAMILA GONCALVES COSTA RIBEIRO ANALISTA DO MP IPATINGA - COMARCA; GAECO REGIONAL DE IPATINGA 12.343,61 3.703,08 0,00 0,00 0,00 0,00 0,00 8.222,65 24.269,34 2.340,29 2.768,99 0,00 0,00 5.109,28 19.160,06 31/03/2024
439 335000 CAMILA GONTIJO DE PAIVA ANALISTA DO MP BELO HORIZONTE - COMARCA; COORD DE CONTROLE CONSTITUCIONALIDADE 23.070,31 6.921,09 0,00 0,00 0,00 0,00 0,00 8.581,28 38.572,68 4.571,45 6.042,35 0,00 0,00 10.613,80 27.958,88 31/03/2024
440 693400 CAMILA HECKSHER MONTEIRO ASSESSOR PROCURADOR JUSTICA BELO HORIZONTE - COMARCA; GABINETE DE PROCURADOR DE JUSTIÇA - SALA 613 0,00 0,00 8.810,89 0,00 0,00 0,00 0,00 2.583,00 11.393,89 908,85 1.821,01 0,00 0,00 2.729,86 8.664,03 31/03/2024
441 696000 CAMILA IMACULADA OLIVEIRA ASSESSOR PROCURADOR JUSTICA BELO HORIZONTE - COMARCA; GABINETE DE PROCURADOR DE JUSTICA - SALA 312 0,00 0,00 8.810,89 0,00 0,00 0,00 0,00 2.583,00 11.393,89 908,85 1.821,01 0,00 0,00 2.729,86 8.664,03 31/03/2024
442 547800 CAMILA MATTARELLI DE ABREU E SILVA ANALISTA DO MP BELO HORIZONTE - COMARCA; CAO-VIOLENCIA DOMESTICA E FAMILIAR 12.343,61 2.468,72 0,00 0,00 0,00 0,00 0,00 2.583,00 17.395,33 2.142,79 2.588,12 0,00 0,00 4.730,91 12.664,42 31/03/2024
443 735800 CAMILA REGINA DE OLIVEIRA ASSESSOR ADMINISTRATIVO II BELO HORIZONTE - COMARCA; CENTRO AUTOCOMPOSICAO DE CONFLITOS 0,00 0,00 7.506,70 0,00 2.502,23 0,00 0,00 2.583,00 12.591,93 908,85 2.150,47 0,00 0,00 3.059,32 9.532,61 31/03/2024
444 752700 CAMILA RODRIGUES MAURO ASSESSOR PROMOTOR JUSTICA CONTAGEM - COMARCA; CONTAGEM-PJ-22PJ 0,00 0,00 8.810,89 0,00 0,00 0,00 0,00 2.583,00 11.393,89 908,85 1.821,01 0,00 0,00 2.729,86 8.664,03 31/03/2024
445 758300 CAMILA VENANCIO DIAS ASSESSOR PROCURADOR JUSTICA BELO HORIZONTE - COMARCA; PROC. JUSTICA DIR. DIFUSOS E COLETIVOS-SEC 0,00 0,00 8.810,89 0,00 0,00 0,00 0,00 2.583,00 11.393,89 908,85 1.821,01 0,00 0,00 2.729,86 8.664,03 31/03/2024
446 430000 CANDIDA MARINA COSTA ANALISTA DO MP BELO HORIZONTE - COMARCA; DIRET DE INFORMACAO E CONHECIMENTO-DINC/CEAF 18.720,84 3.744,17 0,00 0,00 0,00 0,00 0,00 2.583,00 25.048,01 3.367,22 4.355,89 0,00 0,00 7.723,11 17.324,90 31/03/2024
447 614300 CARINA CORTIELHA OFICIAL DO MP BELO HORIZONTE - COMARCA; BH-23PJ CIVEL-FISC AC POL PUB I 7.506,70 750,67 0,00 0,00 0,00 0,00 0,00 2.583,00 10.840,37 1.094,00 1.073,93 0,00 0,00 2.167,93 8.672,44 31/03/2024
448 380400 CARINA DIAS FACANHA DE SOUZA ANALISTA DO MP SANTA RITA DO SAPUCAÍ - COMARCA; SANTA RITA DO SAPUCAI-PJ-01PJ 20.533,67 6.160,10 0,00 0,00 0,00 0,00 0,00 3.729,58 30.423,35 4.043,82 5.332,74 0,00 0,00 9.376,56 21.046,79 31/03/2024
449 255000 CARLA ADRIANA DE MENEZES OFICIAL DO MP BELO HORIZONTE - COMARCA; CENT DE APOIO TEC-SETOR DEF,IDOSO E INFANC 12.343,61 4.937,44 0,00 0,00 0,00 0,00 0,00 7.421,69 24.702,74 2.537,79 3.158,40 0,00 0,00 5.696,19 19.006,55 31/03/2024
450 425100 CARLA ADRIANA DINIZ AMARAL OFICIAL DO MP CONTAGEM - COMARCA; CONTAGEM-PJ-SECRETARIA 12.343,61 3.703,08 2.918,39 0,00 0,00 2.340,29 0,00 3.435,21 24.740,58 2.340,29 4.319,40 0,00 0,00 6.659,69 18.080,89 31/03/2024
451 508100 CARLA ALESSANDRA FONSECA ANALISTA DO MP BELO HORIZONTE - COMARCA; CAO-ORDEM ECONOMICA E TRIBUTARIA-SECRETARIA 12.343,61 2.468,72 0,00 0,00 0,00 0,00 0,00 5.545,47 20.357,80 2.142,79 2.588,12 0,00 0,00 4.730,91 15.626,89 31/03/2024
452 607100 CARLA ANGELICA DIAS MIRANDA OFICIAL DO MP SANTA LUZIA - COMARCA; SANTA LUZIA-PJ-SECRETARIA 7.506,70 1.501,34 0,00 0,00 0,00 0,00 0,00 2.583,00 11.591,04 1.214,11 1.090,92 0,00 0,00 2.305,03 9.286,01 31/03/2024
453 351500 CARLA APARECIDA MENDES RAMIRIO OFICIAL DO MP PASSOS - COMARCA; PASSOS-PJ-01PJ 12.343,61 3.703,08 0,00 0,00 0,00 0,00 0,00 2.583,00 18.629,69 2.340,29 2.821,12 0,00 0,00 5.161,41 13.468,28 31/03/2024
454 752600 CARLA CHRISTIAN DE LIMA OFICIAL DO MP MARTINHO CAMPOS - COMARCA; MARTINHO CAMPOS-PJ-UNPJ 4.570,25 0,00 0,00 0,00 0,00 0,00 0,00 2.583,00 7.153,25 544,12 238,46 0,00 0,00 782,58 6.370,67 31/03/2024
455 713100 CARLA DOS SANTOS SOUZA ASSESSOR PROMOTOR JUSTICA ESPERA FELIZ - COMARCA; ESPERA FELIZ-PJ-UNPJ 0,00 0,00 8.810,89 0,00 0,00 0,00 0,00 2.583,00 11.393,89 908,85 1.821,01 0,00 0,00 2.729,86 8.664,03 31/03/2024
456 442800 CARLA GONCALVES COSTA SOALHEIRO ANALISTA DO MP GOVERNADOR VALADARES - COMARCA; GOVERNADOR VALADARES-PJ-11PJ 13.358,60 2.717,79 0,00 0,00 0,00 0,00 0,00 8.295,47 24.371,86 2.381,90 2.817,85 0,00 0,00 5.199,75 19.172,11 31/03/2024
457 321500 CARLA GONCALVES MASSOTE OFICIAL DO MP CAMPO BELO - COMARCA; CAMPO BELO-PJ-02PJ 12.343,61 3.703,08 0,00 0,00 0,00 0,00 0,00 7.076,07 23.122,76 2.340,29 2.873,26 0,00 0,00 5.213,55 17.909,21 31/03/2024
458 429200 CARLA HAUTEQUESTT BECHARA ANALISTA DO MP BELO HORIZONTE - COMARCA; DIRETORIA DE INTELIGENCIA 18.720,84 3.744,17 0,00 0,00 0,00 0,00 0,00 7.974,60 30.439,61 3.367,22 4.355,89 0,00 0,00 7.723,11 22.716,50 31/03/2024
459 247500 CARLA MATILDE GUIMARAES DE OLIVEIRA OFICIAL DO MP ITAJUBA - COMARCA; ITAJUBA-PJ-SECRETARIA 12.343,61 4.937,44 0,00 0,00 0,00 0,00 0,00 2.583,00 19.864,05 2.537,79 3.106,26 0,00 0,00 5.644,05 14.220,00 31/03/2024
460 226100 CARLA MERLI DA CONCEICAO ANALISTA DO MP BELO HORIZONTE - COMARCA; CENTRAL DE APOIO TECNICO-SETOR CONTABIL 23.070,31 9.228,12 0,00 0,00 0,00 0,00 0,00 2.583,00 34.881,43 4.940,57 6.575,27 0,00 0,00 11.515,84 23.365,59 31/03/2024
461 181401 CARLO MICHEL GAUDENSI COELHO ANALISTA DO MP BELO HORIZONTE - COMARCA; BH-08PJ JUIZADO ESPECIAL-GAB 013PJ 18.130,77 7.252,31 0,00 0,00 0,00 0,00 0,00 8.674,94 34.058,02 3.834,11 5.029,97 0,00 0,00 8.864,08 25.193,94 31/03/2024
462 634000 CARLOS ALBERTO AMORMINO TRIGUEIRO ANALISTA DO MP BELO HORIZONTE - COMARCA; DIRET DE APOIO AS PROCURADORIAS DE JUSTICA 11.577,56 1.157,76 0,00 0,00 0,00 0,00 0,00 3.729,58 16.464,90 1.018,60 2.171,88 0,00 0,00 3.190,48 13.274,42 31/03/2024
463 637900 CARLOS ALBERTO DE MOURA OFICIAL DO MP SETE LAGOAS - COMARCA; SETE LAGOAS-PJ-07PJ 7.506,70 750,67 0,00 0,00 0,00 0,00 0,00 2.583,00 10.840,37 1.018,60 1.042,52 0,00 0,00 2.061,12 8.779,25 31/03/2024
464 638700 CARLOS ALBERTO FERREIRA BRAGA ANALISTA DO MP VESPASIANO - COMARCA; VESPASIANO-PJ-06PJ 11.577,56 1.157,76 0,00 0,00 0,00 0,00 0,00 3.092,41 15.827,73 1.018,60 2.221,82 0,00 0,00 3.240,42 12.587,31 31/03/2024
465 375801 CARLOS ALBERTO ROCHA ANALISTA DO MP VARGINHA - COMARCA; GAECO REGIONAL DE VARGINHA 12.343,61 3.703,08 0,00 0,00 0,00 0,00 0,00 9.369,23 25.415,92 2.340,29 2.768,99 0,00 0,00 5.109,28 20.306,64 31/03/2024
466 462800 CARLOS ANDREI SOARES FAGUNDES ANALISTA DO MP MONTES CLAROS - COMARCA; MONTES CLAROS-PJ-09PJ 12.343,61 2.468,72 0,00 0,00 0,00 0,00 0,00 5.545,47 20.357,80 2.142,79 2.535,99 0,00 0,00 4.678,78 15.679,02 31/03/2024
467 370300 CARLOS AUGUSTO BUENO DIAS ASSESSOR ADMINISTRATIVO IV BELO HORIZONTE - COMARCA; DIRETORIA DE FISCALIZACAO DE OBRAS 0,00 0,00 14.488,22 0,00 0,00 0,00 0,00 2.583,00 17.071,22 908,85 2.939,21 0,00 0,00 3.848,06 13.223,16 31/03/2024
468 505100 CARLOS CEZAR CARVALHO ANALISTA DO MP CONTAGEM - COMARCA; CONTAGEM-PJ-02PJ 12.343,61 6.171,81 0,00 0,00 0,00 0,00 0,00 8.507,93 27.023,35 2.735,29 3.339,26 0,00 0,00 6.074,55 20.948,80 31/03/2024
469 196800 CARLOS EDUARDO DE OLIVEIRA MARINHO OFICIAL DO MP ALPINÓPOLIS - COMARCA; ALPINOPOLIS-PJ-UNPJ 22.191,68 15.534,18 0,00 0,00 0,00 0,00 0,00 8.619,14 46.345,00 5.808,96 7.829,01 0,00 0,00 13.637,97 32.707,03 31/03/2024
470 650800 CARLOS EDUARDO NIZA DA SILVA OFICIAL DO MP IGARAPÉ - COMARCA; IGARAPE-PJ-01PJ 7.270,07 727,01 0,00 0,00 0,00 0,00 0,00 3.729,58 11.726,66 1.018,60 918,81 0,00 0,00 1.937,41 9.789,25 31/03/2024
471 491800 CARLOS EDUARDO ROMAN OFICIAL DO MP BARBACENA - COMARCA; BARBACENA-PJ-09PJ 10.858,90 3.257,67 0,00 0,00 0,00 0,00 0,00 2.583,00 16.699,57 2.031,47 2.427,40 0,00 0,00 4.458,87 12.240,70 31/03/2024
472 299300 CARLOS HENRIQUE BICALHO ANALISTA DO MP BELO HORIZONTE - COMARCA; BH-17PJ PATRIMONIO PUBLICO-SECRETARIA 23.070,31 11.535,16 0,00 0,00 0,00 0,00 507,55 9.266,46 44.379,48 5.309,70 7.160,34 0,00 0,00 12.470,04 31.909,44 31/03/2024
473 351600 CARLOS HENRIQUE FELICIO DA FONSECA OFICIAL DO MP JUIZ DE FORA - COMARCA; JUIZ DE FORA-PJ-21PJ 12.343,61 4.937,44 0,00 0,00 0,00 0,00 0,00 7.421,69 24.702,74 2.537,79 3.106,26 0,00 0,00 5.644,05 19.058,69 31/03/2024
474 729100 CARLOS HENRIQUE TEIXEIRA BRAGA ASSESSOR ADMINISTRATIVO II BELO HORIZONTE - COMARCA; DIRETORIA DE SUPORTE E MANUTENCAO 0,00 0,00 7.506,70 0,00 0,00 0,00 0,00 2.583,00 10.089,70 908,85 1.462,36 0,00 0,00 2.371,21 7.718,49 31/03/2024
475 229100 CARLOS MERCES DE OLIVEIRA ANALISTA DO MP BELO HORIZONTE - COMARCA; CENTRAL DE APOIO TECN-SETOR DE MEIO AMBIENTE 23.070,31 9.228,12 0,00 0,00 0,00 0,00 0,00 2.583,00 34.881,43 4.940,57 6.627,41 0,00 0,00 11.567,98 23.313,45 31/03/2024
476 538300 CARLOS RANGEL SILVA DE MELO ANALISTA DO MP BELO HORIZONTE - COMARCA; DIVISAO DE CONTROLE IMOBILIARIO 12.343,61 4.937,44 0,00 0,00 0,00 0,00 0,00 4.876,16 22.157,21 2.537,79 3.158,40 0,00 0,00 5.696,19 16.461,02 31/03/2024
477 265100 CARLOS REIFF MIRANDA ANALISTA DO MP BELO HORIZONTE - COMARCA; BH-19PJ SAUDE-SECRETARIA 150PJ 23.070,31 9.228,12 0,00 0,00 0,00 0,00 0,00 2.583,00 34.881,43 4.940,57 6.627,41 0,00 0,00 11.567,98 23.313,45 31/03/2024
478 305400 CARLOS ROCHA DE SOUZA OFICIAL DO MP MONTALVÂNIA - COMARCA; MONTALVANIA-PJ-SECRETARIA 7.506,70 2.252,01 0,00 0,00 0,00 0,00 0,00 3.979,91 13.738,62 1.334,22 1.212,19 0,00 0,00 2.546,41 11.192,21 31/03/2024
479 399900 CARMELITA EVANGELISTA DE SOUZA OFICIAL DO MP JOÃO PINHEIRO - COMARCA; JOAO PINHEIRO-PJ-01PJ 11.212,54 2.242,51 0,00 0,00 0,00 0,00 0,00 4.197,61 17.652,66 1.925,63 2.274,59 0,00 0,00 4.200,22 13.452,44 31/03/2024
480 202000 CARMEN LUCIA MARIZ DE MACEDO OFICIAL DO MP BELO HORIZONTE - COMARCA; DIRETORIA GESTAO COMPRAS LICITACOES 21.346,53 17.077,22 5.434,83 0,00 0,00 5.920,62 0,00 8.059,60 57.838,80 5.920,62 9.922,09 4.140,89 0,00 19.983,60 37.855,20 31/03/2024
481 701900 CAROLINA CARVALHO COSTA ASSESSOR PROCURADOR JUSTICA BELO HORIZONTE - COMARCA; GABINETE DE PROCURADOR DE JUSTIÇA - SALA 811 0,00 0,00 8.810,89 0,00 0,00 0,00 0,00 2.583,00 11.393,89 908,85 1.821,01 0,00 0,00 2.729,86 8.664,03 31/03/2024
482 228500 CAROLINA CHIARELLA DOS SANTOS RIBEIRO COORDENADOR II BELO HORIZONTE - COMARCA; DIRET DE ESTAGIOS E CONVENIOS ACADEMICOS 20.533,67 8.213,47 0,00 0,00 0,00 0,00 1.707,09 3.493,45 33.947,68 2.537,79 6.676,75 0,00 0,00 9.214,54 24.733,14 31/03/2024
483 446500 CAROLINA COSTA VAL RODRIGUES ANALISTA DO MP BELO HORIZONTE - COMARCA; DIVISAO DE MATERIAIS 18.130,77 5.439,23 4.940,75 0,00 0,00 0,00 522,70 8.285,15 37.318,60 3.544,02 5.969,85 0,00 0,00 9.513,87 27.804,73 31/03/2024
484 751500 CAROLINA DA MATTA AMBROSIO OFICIAL DO MP MANHUMIRIM - COMARCA; MANHUMIRIM-PJ-02PJ 4.570,25 0,00 0,00 0,00 0,00 0,00 0,00 3.047,69 7.617,94 544,12 238,46 0,00 0,00 782,58 6.835,36 31/03/2024
485 603501 CAROLINA DOMINGOS BRANDAO RABELLO ANALISTA DO MP BARROSO - COMARCA; BARROSO-PJ-01PJ 12.343,61 2.468,72 0,00 0,00 0,00 0,00 0,00 4.876,16 19.688,49 2.142,79 2.588,12 0,00 0,00 4.730,91 14.957,58 31/03/2024
486 404300 CAROLINA DOS SANTOS VIEIRA ANALISTA DO MP BELO HORIZONTE - COMARCA; BH-08PJ JUIZADO ESPECIAL-SECRETARIA 20.533,67 6.160,10 0,00 0,00 0,00 0,00 489,39 7.921,75 35.104,91 4.043,82 5.228,46 0,00 0,00 9.272,28 25.832,63 31/03/2024
487 551200 CAROLINA LOPES ARANTES MASCARENHAS ANALISTA DO MP BELO HORIZONTE - COMARCA; CAO-VIOLENCIA DOMESTICA E FAMILIAR 12.343,61 2.468,72 0,00 0,00 0,00 0,00 0,00 5.545,47 20.357,80 2.142,79 2.483,85 0,00 0,00 4.626,64 15.731,16 31/03/2024
488 622600 CAROLINA LOREDO LOPES CATIZANI OFICIAL DO MP RIBEIRÃO DAS NEVES - COMARCA; RIBEIRAO DAS NEVES-PJ-12PJ 7.506,70 750,67 0,00 0,00 0,00 0,00 0,00 2.583,00 10.840,37 1.094,00 1.073,93 0,00 0,00 2.167,93 8.672,44 31/03/2024
489 382200 CAROLINA MENDES CHAVES LIN ANALISTA DO MP BELO HORIZONTE - COMARCA; BH-12PJ JUIZO CRIMINAL-GAB 088PJ 12.343,61 3.703,08 0,00 0,00 0,00 0,00 0,00 3.729,58 19.776,27 2.340,29 2.821,12 0,00 0,00 5.161,41 14.614,86 31/03/2024
490 461900 CAROLINA MURTA TEIXEIRA DIAS ANALISTA DO MP BELO HORIZONTE - COMARCA; DIR CRIACAO E MIDIAS 12.343,61 2.468,72 0,00 0,00 0,00 0,00 0,00 2.583,00 17.395,33 2.142,79 2.588,12 0,00 0,00 4.730,91 12.664,42 31/03/2024
491 509600 CAROLINA PINTO DE OLIVEIRA SOUZA ANALISTA DO MP MURIAÉ - COMARCA; MURIAE-PJ-01PJ 12.343,61 2.468,72 0,00 0,00 0,00 0,00 0,00 6.692,05 21.504,38 2.142,79 2.483,85 0,00 0,00 4.626,64 16.877,74 31/03/2024
492 629100 CAROLINA RODRIGUES AMARAL ANALISTA DO MP BELO HORIZONTE - COMARCA; PROC. JUSTICA DIR. DIFUSOS E COLETIVOS-SEC 12.343,61 1.234,36 0,00 0,00 0,00 0,00 0,00 2.583,00 16.160,97 1.945,30 2.302,98 0,00 0,00 4.248,28 11.912,69 31/03/2024
493 502600 CAROLINA RODRIGUES RUBEN ANALISTA DO MP BELO HORIZONTE - COMARCA; BH-18PJ VIOLENCIA DOMESTICA-GAB 007PJ 12.343,61 2.468,72 0,00 0,00 0,00 0,00 0,00 7.838,63 22.650,96 2.142,79 2.483,85 0,00 0,00 4.626,64 18.024,32 31/03/2024
494 754000 CAROLINA SILVA MASSON CURSI OFICIAL DO MP CANÁPOLIS - COMARCA; CANAPOLIS-PJ-UNPJ 4.570,25 0,00 0,00 0,00 0,00 0,00 0,00 2.583,00 7.153,25 544,12 238,46 0,00 0,00 782,58 6.370,67 31/03/2024
495 529600 CAROLINA VAZ DE MELO MAMBRINI ANALISTA DO MP BELO HORIZONTE - COMARCA; BH-14PJ DEFESA CONSUMIDOR-GAB 005PJ 12.343,61 2.468,72 0,00 0,00 0,00 0,00 0,00 2.583,00 17.395,33 2.142,79 2.588,12 0,00 0,00 4.730,91 12.664,42 31/03/2024
496 619100 CAROLINA ZAKHIA NARDELLI RODRIGUES ANALISTA DO MP NEPOMUCENO - COMARCA; NEPOMUCENO-PJ-UNPJ 12.343,61 1.234,36 0,00 0,00 0,00 0,00 0,00 3.729,58 17.307,55 1.945,30 2.250,85 0,00 0,00 4.196,15 13.111,40 31/03/2024
497 517600 CAROLINE ALVES DE OLIVEIRA MULLER ANALISTA DO MP VISCONDE DO RIO BRANCO - COMARCA; VISCONDE DO RIO BRANCO-PJ-01PJ 12.343,61 3.703,08 0,00 0,00 0,00 0,00 0,00 2.583,00 18.629,69 2.340,29 2.821,12 0,00 0,00 5.161,41 13.468,28 31/03/2024
498 373200 CAROLINE ANTUNES RIBEIRO OFICIAL DO MP JACUI - COMARCA; JACUI-PJ-UNPJ 12.343,61 3.703,08 0,00 0,00 0,00 0,00 0,00 7.076,07 23.122,76 2.340,29 2.821,12 0,00 0,00 5.161,41 17.961,35 31/03/2024
499 723500 CAROLINE CORDEIRO FERNANDES MACHADO ASSESSOR PROMOTOR JUSTICA BELO HORIZONTE - COMARCA; CAO APOIO COMUNIT INCLUSAO E MOB SOCIAIS 0,00 0,00 8.810,89 0,00 0,00 0,00 0,00 2.583,00 11.393,89 908,85 1.821,01 0,00 0,00 2.729,86 8.664,03 31/03/2024
500 556800 CAROLINE DE SOUZA CARDOSO DOMINGUES OFICIAL DO MP BRASÍLIA DE MINAS - COMARCA; BRASILIA DE MINAS-PJ-02PJ 7.506,70 1.501,34 0,00 0,00 0,00 0,00 561,50 8.708,47 18.278,01 1.214,11 1.247,33 0,00 0,00 2.461,44 15.816,57 31/03/2024
501 751700 CAROLINE GUIMARAES DAMASCENO ASSESSOR PROMOTOR JUSTICA SANTA LUZIA - COMARCA; SANTA LUZIA-PJ-07PJ 0,00 0,00 8.810,89 0,00 0,00 0,00 0,00 2.583,00 11.393,89 908,85 1.821,01 0,00 0,00 2.729,86 8.664,03 31/03/2024
502 499400 CAROLINE MARQUES DE LOURDES MARZULLO OFICIAL DO MP JUIZ DE FORA - COMARCA; JUIZ DE FORA-PJ-08PJ 10.858,90 2.171,78 0,00 0,00 0,00 0,00 0,00 4.824,10 17.854,78 1.018,60 2.299,15 0,00 0,00 3.317,75 14.537,03 31/03/2024
503 616800 CAROLINE MONTEIRO DE BARROS ANALISTA DO MP CONTAGEM - COMARCA; CONTAGEM-PJ-11PJ 12.343,61 1.234,36 0,00 0,00 0,00 0,00 0,00 3.729,58 17.307,55 1.018,60 2.438,37 0,00 0,00 3.456,97 13.850,58 31/03/2024
504 618100 CAROLINE VASCONCELOS COSTA LANZA ANALISTA DO MP PARAOPEBA - COMARCA; PARAOPEBA-PJ-UNPJ 12.343,61 1.234,36 0,00 0,00 0,00 0,00 149,36 6.505,52 20.232,85 1.945,30 2.302,98 0,00 0,00 4.248,28 15.984,57 31/03/2024
505 699000 CAROLLINA RODRIGUES SOUTO AMARAL ASSESSOR PROCURADOR JUSTICA BELO HORIZONTE - COMARCA; GABINETE DE PROCURADOR DE JUSTIÇA-SALA1105-T3 0,00 0,00 8.810,89 0,00 0,00 0,00 0,00 2.583,00 11.393,89 908,85 1.821,01 0,00 0,00 2.729,86 8.664,03 31/03/2024
506 604000 CASSIA APARECIDA DA SILVA OFICIAL DO MP PARACATU - COMARCA; PARACATU-PJ-01PJ 7.506,70 1.501,34 0,00 0,00 0,00 0,00 0,00 2.583,00 11.591,04 1.214,11 1.247,33 0,00 0,00 2.461,44 9.129,60 31/03/2024
507 268800 CASSIA BEATRIZ TEIXEIRA OFICIAL DO MP BELO HORIZONTE - COMARCA; PROC. JUSTICA DE HABEAS CORPUS 18.130,77 7.252,31 4.346,47 0,00 0,00 0,00 0,00 8.528,91 38.258,46 3.834,11 6.225,25 0,00 0,00 10.059,36 28.199,10 31/03/2024
508 500000 CASSIA DE OLIVEIRA COSTA VIANA ANALISTA DO MP SETE LAGOAS - COMARCA; SETE LAGOAS-PJ-09PJ 12.343,61 8.640,53 0,00 0,00 0,00 3.130,28 0,00 2.583,00 26.697,42 3.130,28 4.874,64 0,00 0,00 8.004,92 18.692,50 31/03/2024
509 368800 CASSIA LUISA BATISTA MENDONCA WEBER COORDENADOR II BELO HORIZONTE - COMARCA; DIVISÃO DE EDUCAÇÃO PARA O CONSUMO 20.533,67 6.160,10 0,00 0,00 0,00 0,00 0,00 2.583,00 29.276,77 1.923,90 5.915,71 0,00 0,00 7.839,61 21.437,16 31/03/2024
510 622200 CASSIA VAZ DE AZEVEDO LISBOA MARZANO ASSESSOR ADMINISTRATIVO III BELO HORIZONTE - COMARCA; CGMP-DIR ESTAGIO PROBATORIO E ORIENT 0,00 0,00 10.858,90 0,00 0,00 0,00 0,00 2.583,00 13.441,90 908,85 2.227,80 0,00 0,00 3.136,65 10.305,25 31/03/2024
511 121000 CASSIO HENRIQUE AFONSO DA SILVA OFICIAL DO MP BELO HORIZONTE - COMARCA; CGMP-ASSESSORIA TECNICA 23.070,31 18.456,25 0,00 0,00 0,00 0,00 0,00 7.349,13 48.875,69 6.127,65 8.236,99 1.808,87 0,00 16.173,51 32.702,18 31/03/2024
512 756700 CATARINA ANNONI CESAR ASSESSOR PROCURADOR JUSTICA BELO HORIZONTE - COMARCA; GABINETE DE PROCURADOR DE JUSTIÇA - SALA 610 0,00 0,00 8.810,89 0,00 0,00 0,00 0,00 2.583,00 11.393,89 908,85 1.821,01 0,00 0,00 2.729,86 8.664,03 31/03/2024
513 512001 CATARINA NATALINO CALIXTO COORDENADOR II BELO HORIZONTE - COMARCA; DIRETORIA GESTAO COMPRAS LICITACOES 20.533,67 3.285,39 0,00 0,00 0,00 0,00 5.151,47 9.446,15 38.416,68 2.063,80 6.359,25 0,00 0,00 8.423,05 29.993,63 31/03/2024
514 606200 CATARINE DE SIQUEIRA DE QUADROS ANALISTA DO MP CONTAGEM - COMARCA; CONTAGEM-PJ-08PJ 12.343,61 2.468,72 0,00 0,00 0,00 0,00 271,56 6.692,05 21.775,94 2.142,79 2.483,85 0,00 0,00 4.626,64 17.149,30 31/03/2024
515 622300 CECILIA APARECIDA PEREIRA ASSUNCAO OFICIAL DO MP TRÊS PONTAS - COMARCA; TRES PONTAS-PJ-SECRETARIA 8.264,07 826,41 0,00 0,00 0,00 0,00 0,00 3.729,58 12.820,06 1.227,30 1.214,24 0,00 0,00 2.441,54 10.378,52 31/03/2024
516 538000 CECILIA FONTES DE MATOS PIMENTEL ANALISTA DO MP PALMA - COMARCA; PALMA-PJ-UNPJ 12.343,61 2.468,72 0,00 0,00 0,00 0,00 0,00 6.692,05 21.504,38 2.142,79 2.588,12 0,00 0,00 4.730,91 16.773,47 31/03/2024
517 748900 CECILIA KRUEL DE MAGALHAES PINTO ASSESSOR ADMINISTRATIVO IV BELO HORIZONTE - COMARCA; CAO-MEIO AMBIENTE 0,00 0,00 14.488,22 0,00 0,00 0,00 0,00 4.876,16 19.364,38 908,85 3.382,28 0,00 0,00 4.291,13 15.073,25 31/03/2024
518 261300 CECILIO ANTONIO CAMPOS DOS REIS ANALISTA DO MP BELO HORIZONTE - COMARCA; AUDITORIA INTERNA 23.070,31 9.228,12 0,00 0,00 0,00 0,00 473,71 7.750,75 40.522,89 4.940,57 6.627,41 0,00 0,00 11.567,98 28.954,91 31/03/2024
519 386400 CEFAS AMORELI DE FIGUEIREDO OFICIAL DO MP CABO VERDE - COMARCA; CABO VERDE-PJ-SECRETARIA 7.506,70 2.252,01 0,00 0,00 0,00 0,00 0,00 2.583,00 12.341,71 1.334,22 1.420,73 0,00 0,00 2.754,95 9.586,76 31/03/2024
520 421000 CELINA BENEDITA DE SOUZA ALMEIDA OFICIAL DO MP CAMBUÍ - COMARCA; CAMBUI-PJ-01PJ 12.343,61 8.640,53 0,00 0,00 0,00 3.130,28 0,00 8.370,46 32.484,88 3.130,28 4.822,50 0,00 0,00 7.952,78 24.532,10 31/03/2024
521 252900 CELIO DE MELO CASTOR ANALISTA DO MP BELO HORIZONTE - COMARCA; DIVISAO FROTA 23.070,31 9.228,12 0,00 0,00 0,00 0,00 0,00 2.583,00 34.881,43 4.940,57 6.627,41 0,00 0,00 11.567,98 23.313,45 31/03/2024
522 395700 CELIO FERREIRA LIMA OFICIAL DO MP CONTAGEM - COMARCA; CONTAGEM-PJ-SECRETARIA 12.343,61 3.703,08 0,00 0,00 0,00 0,00 0,00 2.583,00 18.629,69 2.340,29 2.821,12 0,00 0,00 5.161,41 13.468,28 31/03/2024
523 281300 CELMA REGINA PEREIRA SANTOS ANALISTA DO MP BELO HORIZONTE - COMARCA; DIRET DE INFORMACAO E CONHECIMENTO-DINC/CEAF 23.070,31 9.228,12 0,00 0,00 0,00 0,00 0,00 2.583,00 34.881,43 4.940,57 6.627,41 0,00 0,00 11.567,98 23.313,45 31/03/2024
524 535600 CELSO MEDEIROS DE PAIVA OFICIAL DO MP RIO PRETO - COMARCA; RIO PRETO-PJ-SECRETARIA 7.506,70 1.501,34 0,00 0,00 0,00 0,00 0,00 2.969,46 11.977,50 1.214,11 1.195,19 0,00 0,00 2.409,30 9.568,20 31/03/2024
525 367000 CESAR NARVAES DE AVELAR OFICIAL DO MP BELO HORIZONTE - COMARCA; DIRET DE INFORMACAO E CONHECIMENTO-DINC/CEAF 12.343,61 3.703,08 0,00 0,00 0,00 0,00 0,00 2.583,00 18.629,69 2.340,29 2.873,26 0,00 0,00 5.213,55 13.416,14 31/03/2024
526 226500 CESAR SILVEIRA BARROUIN OFICIAL DO MP IGARAPÉ - COMARCA; IGARAPE-PJ-02PJ 18.130,77 9.065,39 0,00 0,00 0,00 0,00 0,00 8.022,23 35.218,39 4.124,21 5.448,79 0,00 0,00 9.573,00 25.645,39 31/03/2024
527 121400 CEZAR MORENO CONCEICAO TAVARES OFICIAL DO MP BELO HORIZONTE - COMARCA; CAO APOIO COMUNIT INCLUSAO E MOB SOCIAIS 23.070,31 18.456,25 0,00 0,00 0,00 6.127,65 0,00 9.231,03 56.885,24 6.127,65 9.922,09 1.808,87 0,00 17.858,61 39.026,63 31/03/2024
528 243800 CHARLES MARTINS MUNIZ OFICIAL DO MP BELO HORIZONTE - COMARCA; LAB TECNOLOGIA CONTRA LAVAGEM DINHEIRO 18.130,77 7.252,31 0,00 0,00 0,00 0,00 558,43 8.069,94 34.011,45 3.834,11 5.029,97 0,00 0,00 8.864,08 25.147,37 31/03/2024
529 193500 CHARLIN CESAR KOURLY OFICIAL DO MP ARAGUARI - COMARCA; ARAGUARI-PJ-07PJ 22.191,68 8.876,67 0,00 0,00 0,00 0,00 0,00 8.796,67 39.865,02 4.743,76 6.343,26 0,00 0,00 11.087,02 28.778,00 31/03/2024
530 385500 CHILLEN PEIXOTO DE MOURA OFICIAL DO MP BELO HORIZONTE - COMARCA; DIVISAO DE MATERIAIS 12.343,61 3.703,08 0,00 0,00 0,00 0,00 0,00 4.876,16 20.922,85 2.340,29 2.873,26 0,00 0,00 5.213,55 15.709,30 31/03/2024
531 534500 CHRISTIAN DOUGLAS BRITO RUAS OFICIAL DO MP BOCAIÚVA - COMARCA; BOCAIUVA-PJ-03PJ 7.506,70 1.501,34 0,00 0,00 0,00 0,00 0,00 2.583,00 11.591,04 1.214,11 1.247,33 0,00 0,00 2.461,44 9.129,60 31/03/2024
532 370600 CHRISTIAN KARINE FELIX PRATES ASSESSOR ADMINISTRATIVO IV BELO HORIZONTE - COMARCA; SUPRIN DE PLANEJAMENTO E COORDENACAO 0,00 0,00 14.488,22 0,00 0,00 0,00 0,00 2.583,00 17.071,22 908,85 3.382,28 0,00 0,00 4.291,13 12.780,09 31/03/2024
533 435800 CHRISTIANA BAHIA ANDRADE PINA ANALISTA DO MP BELO HORIZONTE - COMARCA; LABORATORIO TECNOLOGIA INTELIGENCIA 18.720,84 3.744,17 0,00 0,00 0,00 0,00 0,00 7.974,60 30.439,61 3.367,22 4.355,89 0,00 0,00 7.723,11 22.716,50 31/03/2024
534 516800 CHRISTIANE FERREIRA DO NASCIMENTO ANALISTA DO MP POUSO ALEGRE - COMARCA; POUSO ALEGRE-PJ-04PJ 12.343,61 2.468,72 0,00 0,00 0,00 0,00 0,00 2.583,00 17.395,33 2.142,79 2.588,12 0,00 0,00 4.730,91 12.664,42 31/03/2024
535 176000 CHRISTIANE JUNQUEIRA PULITI ANDRADE DE BARROS ASSESSOR ADM. ESPECIAL BELO HORIZONTE - COMARCA; PROCURADORIA-GERAL ADJUNTA INSTITUCIONAL 0,00 25.212,05 28.013,39 0,00 0,00 6.127,65 0,00 8.084,44 67.437,53 6.127,65 10.026,36 13.507,75 0,00 29.661,76 37.775,77 31/03/2024
536 319200 CHRISTIANE MARIA DE ASSIS RUSSO OFICIAL DO MP BELO HORIZONTE - COMARCA; CAO-ORDEM ECONOMICA E TRIBUTARIA-SECRETARIA 15.949,86 4.784,96 0,00 0,00 0,00 0,00 0,00 3.729,58 24.464,40 3.090,39 3.904,08 0,00 0,00 6.994,47 17.469,93 31/03/2024
537 510300 CHRISTIANE MARY DE CARVALHO FERREIRA ANALISTA DO MP BELO HORIZONTE - COMARCA; DIRETORIA DE SISTEMAS DE INFORMACAO 12.343,61 2.468,72 0,00 0,00 0,00 0,00 0,00 2.583,00 17.395,33 2.142,79 2.535,99 0,00 0,00 4.678,78 12.716,55 31/03/2024
538 424900 CHRISTIANE PEREIRA TURNER DE ARAUJO OFICIAL DO MP BELO HORIZONTE - COMARCA; CAO-PATRIMONIO PUBLICO 12.343,61 3.703,08 0,00 0,00 0,00 0,00 0,00 8.222,65 24.269,34 2.340,29 2.768,99 0,00 0,00 5.109,28 19.160,06 31/03/2024
539 731000 CHRISTIANE TEIXEIRA ANTUNA ASSESSOR ADMINISTRATIVO III BELO HORIZONTE - COMARCA; DIR CONTEUDO JORNALISTICO 0,00 0,00 10.858,90 0,00 0,00 0,00 0,00 2.583,00 13.441,90 908,85 2.384,21 0,00 0,00 3.293,06 10.148,84 31/03/2024
540 513700 CHRISTIANE VIEIRA SOARES PEDERSOLI COORDENADOR II BELO HORIZONTE - COMARCA; ASSESSORIA JURIDICA DO PROCON-MG 20.533,67 4.106,73 0,00 0,00 0,00 0,00 0,00 5.700,81 30.341,21 2.142,79 5.290,84 0,00 0,00 7.433,63 22.907,58 31/03/2024
541 412300 CHRYSTIAN MACHADO RIBEIRO ANALISTA DO MP VARGINHA - COMARCA; VARGINHA-PJ-04PJ 18.720,84 5.616,25 0,00 0,00 0,00 0,00 0,00 8.423,90 32.760,99 3.666,76 4.788,34 0,00 0,00 8.455,10 24.305,89 31/03/2024
542 513800 CHRYSTIANE DO NASCIMENTO DE MAGALHAES OFICIAL DO MP UBERLÂNDIA - COMARCA; UBERLANDIA-PJ-10PJ 10.516,49 2.103,30 0,00 0,00 0,00 0,00 0,00 2.583,00 15.202,79 1.791,99 1.977,37 0,00 0,00 3.769,36 11.433,43 31/03/2024
543 497900 CIBELE DE FREITAS SANCHES DIAS ANALISTA DO MP BELO HORIZONTE - COMARCA; BH-12PJ JUIZO CRIMINAL-GAB 103PJ 12.343,61 2.468,72 0,00 0,00 0,00 0,00 271,56 5.545,47 20.629,36 1.018,60 2.700,22 0,00 0,00 3.718,82 16.910,54 31/03/2024
544 500900 CIBELLE SILVA PRADO ALVARENGA ANALISTA DO MP ITANHANDU - COMARCA; ITANHANDU-PJ-UNPJ 12.343,61 2.468,72 0,00 0,00 0,00 0,00 0,00 6.692,05 21.504,38 2.142,79 2.588,12 0,00 0,00 4.730,91 16.773,47 31/03/2024
545 296400 CINTIA APARECIDA MOREIRA NAVES E RODRIGUES ANALISTA DO MP CAMPO BELO - COMARCA; CAMPO BELO-PJ-01PJ 23.070,31 9.228,12 0,00 0,00 0,00 0,00 2.307,03 8.673,57 43.279,03 5.309,70 7.160,33 0,00 0,00 12.470,03 30.809,00 31/03/2024
546 407900 CINTIA NETO COMELLI ANALISTA DO MP BELO HORIZONTE - COMARCA; CENTRAL DE APOIO TECNICO-SETOR CONTABIL 18.720,84 5.616,25 0,00 0,00 0,00 0,00 0,00 2.583,00 26.920,09 3.666,76 4.736,20 0,00 0,00 8.402,96 18.517,13 31/03/2024
547 304700 CINTIA QUEIROZ OFICIAL DO MP BELO HORIZONTE - COMARCA; OUVIDORIA DO MPMG 12.343,61 3.703,08 0,00 0,00 0,00 0,00 0,00 7.076,07 23.122,76 2.340,29 2.873,26 0,00 0,00 5.213,55 17.909,21 31/03/2024
548 286100 CIRO CANGUSSU CORDEIRO OFICIAL DO MP IPATINGA - COMARCA; IPATINGA-PJ-09PJ 10.858,90 4.343,56 0,00 0,00 0,00 0,00 0,00 3.729,58 18.932,04 2.205,22 2.573,97 0,00 0,00 4.779,19 14.152,85 31/03/2024
549 689900 CISSA NOGUEIRA COLEN ASSESSOR PROCURADOR JUSTICA BELO HORIZONTE - COMARCA; GABINETE DE PROCURADOR DE JUSTIÇA - SALA 608 0,00 0,00 8.810,89 0,00 0,00 0,00 0,00 2.583,00 11.393,89 908,85 1.821,01 0,00 0,00 2.729,86 8.664,03 31/03/2024
550 681700 CLARA FERREIRA ALKIMIM ASSESSOR PROMOTOR JUSTICA PEDRA AZUL - COMARCA; PEDRA AZUL-PJ-02PJ 0,00 0,00 8.810,89 0,00 0,00 0,00 0,00 2.583,00 11.393,89 908,85 1.821,01 0,00 0,00 2.729,86 8.664,03 31/03/2024
551 756100 CLARA LIMA LIPOVETSKY ASSESSOR PROMOTOR JUSTICA BELO HORIZONTE - COMARCA; CAO-FUNDACOES-ASSESSORIA JURIDICA 0,00 0,00 8.810,89 0,00 0,00 0,00 0,00 2.583,00 11.393,89 908,85 1.821,01 0,00 0,00 2.729,86 8.664,03 31/03/2024
552 723100 CLARA PRADO CAMPOS ASSESSOR PROCURADOR JUSTICA BELO HORIZONTE - COMARCA; GABINETE DE PROCURADOR DE JUSTIÇA - SALA 1006 0,00 0,00 8.810,89 0,00 0,00 0,00 0,00 2.583,00 11.393,89 908,85 1.821,01 0,00 0,00 2.729,86 8.664,03 31/03/2024
553 695500 CLARA RODRIGUES BLACH ASSESSOR PROCURADOR JUSTICA BELO HORIZONTE - COMARCA; GABINETE DE PROCURADOR DE JUSTIÇA - SALA 1003 0,00 0,00 8.810,89 0,00 0,00 0,00 0,00 2.583,00 11.393,89 908,85 1.821,01 0,00 0,00 2.729,86 8.664,03 31/03/2024
554 412500 CLARICE GOMES MAROTTA ANALISTA DO MP BELO HORIZONTE - COMARCA; COORD ESTADUAL DE DEFESA DOS ANIMAIS 18.720,84 7.488,34 0,00 0,00 0,00 0,00 0,00 7.824,84 34.034,02 3.966,29 5.220,79 0,00 0,00 9.187,08 24.846,94 31/03/2024
555 605300 CLARISSA AZEVEDO ROCHA OFICIAL DO MP BELO HORIZONTE - COMARCA; BH-16PJ HABITACAO URBANISMO-GAB 117PJ 7.506,70 1.501,34 0,00 0,00 0,00 0,00 0,00 2.583,00 11.591,04 1.214,11 1.247,33 0,00 0,00 2.461,44 9.129,60 31/03/2024
556 308100 CLARISSA DUARTE BELLONI DIRETOR-GERAL BELO HORIZONTE - COMARCA; DIRETORIA-GERAL 34.667,33 10.400,20 0,00 0,00 0,00 0,00 0,00 9.068,99 54.136,52 4.571,45 8.664,94 5.349,84 0,00 18.586,23 35.550,29 31/03/2024
557 730500 CLARISSA FERNANDES ABREU ASSESSOR PROMOTOR JUSTICA SANTOS DUMONT - COMARCA; SANTOS DUMONT-PJ-02PJ 0,00 0,00 8.810,89 0,00 0,00 0,00 0,00 2.583,00 11.393,89 908,85 1.821,01 0,00 0,00 2.729,86 8.664,03 31/03/2024
558 743200 CLARISSA GODINHO PRATES ASSESSOR ADMINISTRATIVO I GOVERNADOR VALADARES - COMARCA; COOR REG APOIO COM INC MOB VALE DO RIO DOCE 0,00 0,00 4.872,71 0,00 0,00 0,00 0,00 2.583,00 7.455,71 777,91 774,02 0,00 0,00 1.551,93 5.903,78 31/03/2024
559 497100 CLARISSA ROCHA GUIDI ANALISTA DO MP BELO HORIZONTE - COMARCA; BH-02PJ FAMILIA-SECRETARIA 15.447,01 3.089,40 0,00 0,00 0,00 0,00 0,00 4.876,16 23.412,57 2.738,65 3.396,25 0,00 0,00 6.134,90 17.277,67 31/03/2024
560 641800 CLARISSE TAVARES GONCALVES OFICIAL DO MP BELO HORIZONTE - COMARCA; BH-07PJ 01 TRIBUNAL JURI-SECRETARIA 7.506,70 750,67 0,00 0,00 0,00 0,00 0,00 2.583,00 10.840,37 1.018,60 1.094,66 0,00 0,00 2.113,26 8.727,11 31/03/2024
561 463700 CLAUDIA ADRIANA FERRAO DIAS ANALISTA DO MP SETE LAGOAS - COMARCA; SETE LAGOAS-PJ-06PJ 12.343,61 2.468,72 0,00 0,00 0,00 0,00 0,00 2.583,00 17.395,33 2.142,79 2.588,12 0,00 0,00 4.730,91 12.664,42 31/03/2024
562 415400 CLAUDIA ALMEIDA DE VASCONCELLOS BARROS OFICIAL DO MP BELO HORIZONTE - COMARCA; DIVISAO DE SERVICOS 11.212,54 3.363,76 4.020,58 0,00 0,00 0,00 545,51 8.534,00 27.676,39 2.105,03 3.639,26 0,00 0,00 5.744,29 21.932,10 31/03/2024
563 207000 CLAUDIA APARECIDA VILELA MACHADO ANALISTA DO MP BELO HORIZONTE - COMARCA; CENTRAL DE APOIO TECNICO-SETOR CONTABIL 23.070,31 11.535,16 0,00 0,00 0,00 5.309,70 439,07 7.372,83 47.727,07 5.309,70 8.516,23 0,00 0,00 13.825,93 33.901,14 31/03/2024
564 365700 CLAUDIA BREGUEZ CUNHA ANALISTA DO MP VARGINHA - COMARCA; VARGINHA-PJ-07PJ 21.346,53 6.403,96 0,00 0,00 0,00 0,00 0,00 3.729,58 31.480,07 4.212,90 5.576,84 0,00 0,00 9.789,74 21.690,33 31/03/2024
565 430500 CLAUDIA CECILIA SANTANA VENCESLAU OFICIAL DO MP BELO HORIZONTE - COMARCA; LAB TECNOLOGIA CONTRA LAVAGEM DINHEIRO 12.343,61 2.468,72 0,00 0,00 0,00 0,00 0,00 2.583,00 17.395,33 2.142,79 2.535,99 0,00 0,00 4.678,78 12.716,55 31/03/2024
566 213601 CLAUDIA GONCALVES CALIXTO ASSESSOR PROCURADOR JUSTICA BELO HORIZONTE - COMARCA; PROC. JUSTICA DIR. DIFUSOS E COLETIVOS-SEC 0,00 0,00 8.517,19 0,00 0,00 0,00 0,00 2.493,09 11.010,28 908,85 1.715,52 0,00 0,00 2.624,37 8.385,91 31/03/2024
567 480400 CLAUDIA GOULART DE SOUZA OFICIAL DO MP PASSOS - COMARCA; PASSOS-PJ-06PJ 10.858,90 3.257,67 0,00 0,00 0,00 0,00 0,00 4.276,99 18.393,56 2.031,47 2.427,40 0,00 0,00 4.458,87 13.934,69 31/03/2024
568 519800 CLAUDIA HELENA CORREA DE ALMEIDA ANALISTA DO MP BELO HORIZONTE - COMARCA; BH-12PJ JUIZO CRIMINAL-GAB 096PJ 12.343,61 2.468,72 0,00 0,00 0,00 0,00 0,00 5.545,47 20.357,80 2.142,79 2.588,12 0,00 0,00 4.730,91 15.626,89 31/03/2024
569 422100 CLAUDIA IACOMINI CABRAL ANALISTA DO MP BELO HORIZONTE - COMARCA; CENT DE APOIO TEC-SETOR DEF,IDOSO E INFANC 18.720,84 13.104,58 0,00 0,00 0,00 0,00 466,77 7.675,07 39.967,26 4.864,89 6.518,15 0,00 0,00 11.383,04 28.584,22 31/03/2024
570 764000 CLAUDIA JOTA DUARTE DE OLIVEIRA ASSESSOR DE CAO BELO HORIZONTE - COMARCA; SUPER DE GESTAO DE PESSOAS-LOTACAO TEMPORARIA 0,00 0,00 5.755,14 0,00 0,00 0,00 0,00 2.133,45 7.888,59 838,51 876,40 0,00 0,00 1.714,91 6.173,68 31/03/2024
571 258200 CLAUDIA LAGE MICHALAROS ANALISTA DO MP BELO HORIZONTE - COMARCA; CENTRAL DE APOIO TECN-SETOR DE MEIO AMBIENTE 23.070,31 18.456,25 0,00 0,00 0,00 6.127,65 0,00 2.583,00 50.237,21 6.127,65 10.026,36 1.808,87 0,00 17.962,88 32.274,33 31/03/2024
572 433600 CLAUDIA LUIZA SANTIAGO FELICIO ANALISTA DO MP BELO HORIZONTE - COMARCA; CENT DE APOIO TEC-SETOR DEF,IDOSO E INFANC 18.720,84 3.744,17 0,00 0,00 0,00 0,00 0,00 7.974,60 30.439,61 3.367,22 4.251,62 0,00 0,00 7.618,84 22.820,77 31/03/2024
573 317000 CLAUDIA MACHADO ALVES OFICIAL DO MP BELO HORIZONTE - COMARCA; DIR GOVERNANCA TECNOLOGIA INFORMACAO 12.343,61 3.703,08 4.020,58 0,00 0,00 0,00 0,00 8.201,84 28.269,11 2.340,29 3.978,92 0,00 0,00 6.319,21 21.949,90 31/03/2024
574 155300 CLAUDIA MACIEL MIRANDA OFICIAL DO MP CONGONHAS - COMARCA; CONGONHAS-PJ-02PJ 23.070,31 16.149,22 0,00 0,00 0,00 0,00 0,00 2.583,00 41.802,53 6.047,95 8.121,91 0,00 0,00 14.169,86 27.632,67 31/03/2024
575 746300 CLAUDIA MAGDA SANTANA ANALISTA DO MP BELO HORIZONTE - COMARCA; DIRETORIA DE ADMINISTRACAO FINANCEIRA 7.040,78 0,00 0,00 0,00 0,00 0,00 0,00 2.583,00 9.623,78 903,07 791,87 0,00 0,00 1.694,94 7.928,84 31/03/2024
576 242200 CLAUDIA MICHELLE DIAS MUNIZ BALEEIRO OFICIAL DO MP MONTE AZUL - COMARCA; MONTE AZUL-PJ-SECRETARIA 18.130,77 9.065,39 0,00 0,00 0,00 0,00 0,00 8.022,23 35.218,39 4.124,21 5.396,65 0,00 0,00 9.520,86 25.697,53 31/03/2024
577 755900 CLAUDIA NATIVIDADE ASSESSOR ADMINISTRATIVO II BELO HORIZONTE - COMARCA; CENTRO ESTADUAL DE APOIO AS VITIMAS 0,00 0,00 7.506,70 0,00 0,00 0,00 0,00 2.583,00 10.089,70 908,85 1.462,36 0,00 0,00 2.371,21 7.718,49 31/03/2024
578 623000 CLAUDIA PATRICIA SILVA RODRIGUES RAPOSEIRAS OFICIAL DO MP BELO HORIZONTE - COMARCA; DIVISÃO DE EDUCAÇÃO PARA O CONSUMO 7.506,70 750,67 0,00 0,00 0,00 0,00 0,00 3.232,73 11.490,10 1.094,00 1.021,79 0,00 0,00 2.115,79 9.374,31 31/03/2024
579 418400 CLAUDIA REGINA MARTINS BONIFACIO OFICIAL DO MP ITUIUTABA - COMARCA; ITUIUTABA-PJ-06PJ 12.343,61 3.703,08 0,00 0,00 0,00 0,00 0,00 7.076,07 23.122,76 2.340,29 2.768,99 0,00 0,00 5.109,28 18.013,48 31/03/2024
580 498300 CLAUDIA SOUTO FARIAS BRAUN OFICIAL DO MP TEÓFILO OTONI - COMARCA; TEOFILO OTONI-PJ-SECRETARIA 7.506,70 1.501,34 0,00 0,00 0,00 0,00 0,00 2.583,00 11.591,04 1.214,11 1.143,06 0,00 0,00 2.357,17 9.233,87 31/03/2024
581 206500 CLAUDIA VALERIA FONSECA ANDRADE ANALISTA DO MP BELO HORIZONTE - COMARCA; BH-23PJ INF-FISC MED SOC FEC 23.070,31 16.149,22 0,00 0,00 0,00 6.047,95 0,00 8.015,10 53.282,58 6.047,95 9.889,37 0,00 0,00 15.937,32 37.345,26 31/03/2024
582 277500 CLAUDIO ANTONIO BORGES BRUNSWICK ALVARES OFICIAL DO MP BELO HORIZONTE - COMARCA; ASSESSORIA JURIDICA DO PROCON-MG 12.343,61 3.703,08 0,00 0,00 0,00 0,00 0,00 2.583,00 18.629,69 2.340,29 2.873,26 0,00 0,00 5.213,55 13.416,14 31/03/2024
583 444800 CLAUDIO ARESIO DO CARMO ANALISTA DO MP SETE LAGOAS - COMARCA; SETE LAGOAS-PJ-05PJ 15.447,01 6.178,80 0,00 0,00 0,00 0,00 0,00 8.638,23 30.264,04 3.232,95 4.109,90 0,00 0,00 7.342,85 22.921,19 31/03/2024
584 545100 CLAUDIO HENRIQUE MACEDO DE SOUZA FRANSOZO ANALISTA DO MP OURO PRETO - COMARCA; OURO PRETO-PJ-03PJ 12.343,61 2.468,72 0,00 0,00 0,00 0,00 0,00 3.729,58 18.541,91 1.018,60 2.752,36 0,00 0,00 3.770,96 14.770,95 31/03/2024
585 353500 CLAUDIO HENRIQUE PEDRO DA ROCHA OFICIAL DO MP BELO HORIZONTE - COMARCA; DIVISAO DE SERVICOS 12.343,61 3.703,08 0,00 0,00 0,00 0,00 0,00 7.076,07 23.122,76 2.340,29 2.768,99 0,00 0,00 5.109,28 18.013,48 31/03/2024
586 265800 CLAUDIO KUPIDLOWSKY FERNANDES OFICIAL DO MP BELO HORIZONTE - COMARCA; SECRETARIA DO PROCON-MG 12.343,61 4.937,44 0,00 0,00 0,00 0,00 0,00 7.421,69 24.702,74 2.537,79 1.803,45 0,00 0,00 4.341,24 20.361,50 31/03/2024
587 193600 CLAUDIO LEITE FONTES OFICIAL DO MP ITUIUTABA - COMARCA; ITUIUTABA-PJ-02PJ 12.343,61 6.171,81 0,00 0,00 0,00 0,00 0,00 9.654,51 28.169,93 2.735,29 3.055,24 0,00 0,00 5.790,53 22.379,40 31/03/2024
588 329400 CLAUDIO MARCIO BERNARDES OFICIAL DO MP ITAÚNA - COMARCA; ITAUNA-PJ-03PJ 12.343,61 9.874,89 0,00 0,00 0,00 0,00 0,00 3.729,58 25.948,08 3.327,78 4.246,81 0,00 0,00 7.574,59 18.373,49 31/03/2024
589 270200 CLAUDIO RABELO ALVES OFICIAL DO MP FORMIGA - COMARCA; FORMIGA-PJ-03PJ 15.447,01 6.178,80 0,00 0,00 0,00 0,00 0,00 8.664,22 30.290,03 3.232,95 4.005,62 0,00 0,00 7.238,57 23.051,46 31/03/2024
590 264700 CLAUDIO ROBERTO KFURI DE ARAUJO ANALISTA DO MP BELO HORIZONTE - COMARCA; CENTRAL DE APOIO TECNICO-SETOR DE INFORMATICA 23.070,31 9.228,12 0,00 0,00 0,00 0,00 0,00 2.583,00 34.881,43 4.940,57 6.523,14 0,00 0,00 11.463,71 23.417,72 31/03/2024
591 543300 CLAUDIO SILVA DE CARVALHO ANALISTA DO MP CAMPO BELO - COMARCA; CAMPO BELO-PJ-03PJ 11.954,43 1.195,44 0,00 0,00 0,00 0,00 0,00 4.160,98 17.310,85 1.876,80 2.151,96 0,00 0,00 4.028,76 13.282,09 31/03/2024
592 160700 CLAUDIO VICENTE HESS ASSESSOR DE GABINETE I BELO HORIZONTE - COMARCA; CENTRAL DE APOIO TECNICO-SETOR DE INFORMATICA 0,00 9.065,39 18.130,77 0,00 0,00 0,00 0,00 8.022,23 35.218,39 908,85 6.772,69 0,00 0,00 7.681,54 27.536,85 31/03/2024
593 312900 CLAUDIO VIEIRA FIRPE OFICIAL DO MP BELO HORIZONTE - COMARCA; DIR RELACOES INSTITUCIONAIS 12.343,61 3.703,08 0,00 0,00 0,00 0,00 0,00 7.076,07 23.122,76 2.340,29 2.873,26 0,00 0,00 5.213,55 17.909,21 31/03/2024
594 634100 CLEA CRISTINA GUERRA DE FREITAS COSTA OFICIAL DO MP BELO HORIZONTE - COMARCA; BH-18PJ VIOLENCIA DOMESTICA-SECRETARIA 7.506,70 750,67 0,00 0,00 0,00 0,00 0,00 2.583,00 10.840,37 1.094,00 1.021,79 0,00 0,00 2.115,79 8.724,58 31/03/2024
595 459200 CLEIA ZILLE PEREIRA ANALISTA DO MP BELO HORIZONTE - COMARCA; BH-07PJ 01 TRIBUNAL DO JURI-GAB 059PJ 12.343,61 2.468,72 0,00 0,00 0,00 0,00 0,00 7.265,34 22.077,67 2.142,79 2.588,12 0,00 0,00 4.730,91 17.346,76 31/03/2024
596 481800 CLEIDE CARDOSO DA SILVA ANALISTA DO MP MANHUAÇU - COMARCA; MANHUACU-PJ-04PJ 12.343,61 2.468,72 0,00 0,00 0,00 0,00 0,00 5.545,47 20.357,80 2.142,79 2.483,85 0,00 0,00 4.626,64 15.731,16 31/03/2024
597 347600 CLEIDIMAR DE OLIVEIRA SILVA OFICIAL DO MP PATOS DE MINAS - COMARCA; PATOS DE MINAS-PJ-03PJ 12.343,61 4.937,44 0,00 0,00 0,00 0,00 0,00 7.421,69 24.702,74 2.537,79 3.001,98 0,00 0,00 5.539,77 19.162,97 31/03/2024
598 396500 CLEIDISON BATISTA DE ANDRADE OFICIAL DO MP RESPLENDOR - COMARCA; RESPLENDOR-PJ-UNPJ 11.577,56 3.473,27 0,00 0,00 0,00 0,00 0,00 5.593,17 20.644,00 2.180,95 2.538,94 0,00 0,00 4.719,89 15.924,11 31/03/2024
599 535100 CLEISON ALVES DA SILVA ANALISTA DO MP BOA ESPERANÇA - COMARCA; BOA ESPERANCA-PJ-01PJ 12.343,61 3.703,08 0,00 0,00 0,00 0,00 0,00 7.076,07 23.122,76 2.340,29 2.768,99 0,00 0,00 5.109,28 18.013,48 31/03/2024
600 298100 CLEONICE AUGUSTA BARROS DE OLIVEIRA ANALISTA DO MP JUIZ DE FORA - COMARCA; JUIZ DE FORA-PJ-08PJ 23.070,31 6.921,09 0,00 0,00 0,00 0,00 0,00 2.583,00 32.574,40 4.571,45 6.094,49 0,00 0,00 10.665,94 21.908,46 31/03/2024
601 114301 CLERES PEREIRA DA SILVA JUNIOR ASSESSOR ADMINISTRATIVO I BELO HORIZONTE - COMARCA; GAECO - SECRETARIA 0,00 2.436,35 4.872,71 0,00 0,00 0,00 0,00 2.583,00 9.892,06 908,85 947,28 0,00 0,00 1.856,13 8.035,93 31/03/2024
602 264100 CLETO HENRIQUE ANDRADE SILVA ANALISTA DO MP BELO HORIZONTE - COMARCA; DIRETORIA DE SISTEMAS DE INFORMACAO 23.070,31 9.228,12 0,00 0,00 0,00 0,00 0,00 2.583,00 34.881,43 4.940,57 6.523,14 0,00 0,00 11.463,71 23.417,72 31/03/2024
603 334400 CLEUBA DE OLIVEIRA BARCELOS GONCALVES OFICIAL DO MP DIVINÓPOLIS - COMARCA; COORD REG SAUDE MACRORREGIAO SANITARIA OESTE 12.343,61 3.703,08 0,00 0,00 0,00 0,00 0,00 7.076,07 23.122,76 2.340,29 2.821,12 0,00 0,00 5.161,41 17.961,35 31/03/2024
604 347500 CLEUSA CORDEIRO DA MATA PIMENTA OFICIAL DO MP CAMPO BELO - COMARCA; CAMPO BELO-PJ-01PJ 12.343,61 11.109,25 0,00 0,00 0,00 3.525,28 0,00 7.978,63 34.956,77 3.525,28 5.501,40 0,00 0,00 9.026,68 25.930,09 31/03/2024
605 510200 CLEZIO SALES SILVA OFICIAL DO MP BRASÓPOLIS - COMARCA; BRASOPOLIS-PJ-UNPJ 7.506,70 1.501,34 0,00 0,00 0,00 0,00 0,00 4.800,82 13.808,86 1.214,11 1.247,33 0,00 0,00 2.461,44 11.347,42 31/03/2024
606 323000 CLOTILDE DE PADUA VIEIRA OFICIAL DO MP BELO HORIZONTE - COMARCA; BH-19PJ SAUDE-SECRETARIA 129PJ 12.343,61 3.703,08 0,00 0,00 0,00 0,00 0,00 2.583,00 18.629,69 2.340,29 2.873,26 0,00 0,00 5.213,55 13.416,14 31/03/2024
607 285200 CLOVIS ANDRE LUDTKE OFICIAL DO MP BELO HORIZONTE - COMARCA; DIVISAO DE MANUTENCAO PREDIAL 13.588,97 5.435,59 0,00 0,00 0,00 0,00 0,00 8.670,86 27.695,42 2.816,75 3.561,15 0,00 0,00 6.377,90 21.317,52 31/03/2024
608 381100 CONCEICAO APARECIDA TEIXEIRA ARANTES ANALISTA DO MP BELO HORIZONTE - COMARCA; BH-23PJ INFRACIONAL-ASS JURIDICA 19.751,60 5.925,48 0,00 0,00 0,00 0,00 5.847,04 9.892,08 41.416,20 3.881,15 6.498,33 0,00 0,00 10.379,48 31.036,72 31/03/2024
609 249900 CONSTANTINO CEZAR GOMES MOTA OFICIAL DO MP MONTES CLAROS - COMARCA; COORD REG BACIA RIOS VERDE GRANDE E PARDO 12.343,61 4.937,44 0,00 0,00 0,00 0,00 0,00 9.714,85 26.995,90 2.537,79 3.054,12 0,00 0,00 5.591,91 21.403,99 31/03/2024
610 481000 CRISHMA ANALIA LOMBELLO ANALISTA DO MP JUIZ DE FORA - COMARCA; JUIZ DE FORA-PJ-13PJ 12.343,61 2.468,72 0,00 0,00 0,00 0,00 0,00 2.583,00 17.395,33 2.142,79 2.535,99 0,00 0,00 4.678,78 12.716,55 31/03/2024
611 523900 CRISTHYANE BAZOLI COSTA GUEDES COUTO OFICIAL DO MP BELO HORIZONTE - COMARCA; BH-04PJ JUIZO REG PÚBLICOS-SECRETARIA 10.516,49 2.103,30 0,00 0,00 0,00 0,00 0,00 3.087,79 15.707,58 1.791,99 2.081,65 0,00 0,00 3.873,64 11.833,94 31/03/2024
612 187000 CRISTIAN DAYVSON EVANGELISTA OFICIAL DO MP JUIZ DE FORA - COMARCA; JUIZ DE FORA-PJ-13PJ 21.346,53 8.538,61 0,00 0,00 0,00 0,00 0,00 8.560,03 38.445,17 4.554,44 6.017,81 0,00 0,00 10.572,25 27.872,92 31/03/2024
613 682100 CRISTIAN TRISTAO DE ANDRADE ASSESSOR PROMOTOR JUSTICA TRÊS CORACOES - COMARCA; TRES CORACOES-PJ-04PJ 0,00 0,00 8.810,89 0,00 0,00 0,00 0,00 2.583,00 11.393,89 908,85 1.821,01 0,00 0,00 2.729,86 8.664,03 31/03/2024
614 319800 CRISTIANA GONCALVES DOS SANTOS GUSMAO OFICIAL DO MP SETE LAGOAS - COMARCA; SETE LAGOAS-PJ-04PJ 12.343,61 3.703,08 0,00 0,00 0,00 0,00 0,00 2.583,00 18.629,69 2.340,29 2.768,99 0,00 0,00 5.109,28 13.520,41 31/03/2024
615 520600 CRISTIANA JANAINA BARBOZA JUVENCIO DOS SANTOS ANALISTA DO MP BELO HORIZONTE - COMARCA; BH-02PJ FAMILIA-SECRETARIA 12.343,61 2.468,72 0,00 0,00 0,00 0,00 0,00 2.583,00 17.395,33 2.142,79 2.588,12 0,00 0,00 4.730,91 12.664,42 31/03/2024
616 195600 CRISTIANA SOARES HALABI OFICIAL DO MP UBERABA - COMARCA; UBERABA-PJ-01PJ 23.070,31 9.228,12 0,00 0,00 0,00 0,00 0,00 7.750,75 40.049,18 4.940,57 6.627,41 0,00 0,00 11.567,98 28.481,20 31/03/2024
617 218900 CRISTIANE ALVES BELLES OFICIAL DO MP JUIZ DE FORA - COMARCA; JUIZ DE FORA-PJ-10PJ 7.506,70 3.002,68 0,00 0,00 0,00 0,00 0,00 4.302,87 14.812,25 1.454,32 1.489,87 0,00 0,00 2.944,19 11.868,06 31/03/2024
618 263600 CRISTIANE CARVALHO COUTINHO OFICIAL DO MP BELO HORIZONTE - COMARCA; BH-23PJ INFRACIONAL-SEC EXP 14.960,00 5.984,00 0,00 0,00 0,00 0,00 0,00 2.583,00 23.527,00 3.123,86 3.952,40 0,00 0,00 7.076,26 16.450,74 31/03/2024
619 541000 CRISTIANE COELHO ALVES OFICIAL DO MP ITABIRA - COMARCA; ITABIRA-PJ-03PJ 7.506,70 1.501,34 0,00 0,00 0,00 0,00 0,00 2.583,00 11.591,04 1.214,11 1.195,19 0,00 0,00 2.409,30 9.181,74 31/03/2024
620 441700 CRISTIANE CORRADO DE ANDRADE ANALISTA DO MP BELO HORIZONTE - COMARCA; DIRETORIA DE SISTEMAS DE INFORMACAO 18.720,84 3.744,17 4.020,58 0,00 0,00 0,00 0,00 7.880,12 34.365,71 3.367,22 5.461,55 0,00 0,00 8.828,77 25.536,94 31/03/2024
621 375100 CRISTIANE DAS DORES ERCIO DE LIMA OFICIAL DO MP GOVERNADOR VALADARES - COMARCA; COOR REG APOIO COM INC MOB VALE DO RIO DOCE 11.954,43 3.586,33 0,00 0,00 0,00 0,00 0,00 5.691,15 21.231,91 2.259,34 2.756,39 0,00 0,00 5.015,73 16.216,18 31/03/2024
622 178800 CRISTIANE DE LIMA HOSKEN OFICIAL DO MP BELO HORIZONTE - COMARCA; DIRETORIA DE INTELIGENCIA 22.191,68 8.876,67 0,00 0,00 0,00 0,00 0,00 8.796,67 39.865,02 4.743,76 6.291,13 0,00 0,00 11.034,89 28.830,13 31/03/2024
623 494000 CRISTIANE DE MELO MARQUEZ OLIVEIRA ANALISTA DO MP UBERLÂNDIA - COMARCA; UBERLANDIA-PJ-06PJ 15.949,86 4.146,96 0,00 0,00 0,00 0,00 515,82 9.356,69 29.969,33 2.988,31 3.808,84 0,00 0,00 6.797,15 23.172,18 31/03/2024
624 266100 CRISTIANE DE OLIVEIRA CASTRO OFICIAL DO MP BELO HORIZONTE - COMARCA; BH-14PJ DEFESA CONSUMIDOR-SECRETARIA 18.130,77 7.252,31 0,00 0,00 0,00 0,00 1.771,66 2.583,00 29.737,74 3.834,11 5.412,90 0,00 0,00 9.247,01 20.490,73 31/03/2024
625 329500 CRISTIANE DOS REIS SILVA OFICIAL DO MP ARAXÁ - COMARCA; ARAXA-PJ-04PJ 12.343,61 3.703,08 0,00 0,00 0,00 0,00 0,00 2.583,00 18.629,69 2.340,29 2.768,99 0,00 0,00 5.109,28 13.520,41 31/03/2024
626 301600 CRISTIANE GODINHO PIRES ANALISTA DO MP BETIM - COMARCA; BETIM-PJ-06PJ 23.070,31 6.921,09 0,00 0,00 0,00 0,00 0,00 8.581,28 38.572,68 4.571,45 6.094,49 0,00 0,00 10.665,94 27.906,74 31/03/2024
627 406100 CRISTIANE GONCALVES CHAVES ANALISTA DO MP BELO HORIZONTE - COMARCA; BH-06PJ JUIZO CIVEL-SECRETARIA 20.533,67 8.213,47 0,00 0,00 0,00 0,00 0,00 2.583,00 31.330,14 4.372,36 5.807,06 0,00 0,00 10.179,42 21.150,72 31/03/2024
628 487600 CRISTIANE LOPES DE OLIVEIRA OFICIAL DO MP DIVINÓPOLIS - COMARCA; DIVINOPOLIS-PJ-03PJ 9.097,81 1.819,56 0,00 0,00 0,00 0,00 0,00 2.583,00 13.500,37 1.519,60 1.688,39 0,00 0,00 3.207,99 10.292,38 31/03/2024
629 502500 CRISTIANE MACIEL DE OLIVEIRA GOMES ANALISTA DO MP JUIZ DE FORA - COMARCA; JUIZ DE FORA-PJ-02PJ 12.343,61 2.468,72 0,00 0,00 0,00 0,00 0,00 6.692,05 21.504,38 2.142,79 2.588,12 0,00 0,00 4.730,91 16.773,47 31/03/2024
630 285500 CRISTIANE MAGALHAES LOURENCO ANALISTA DO MP BELO HORIZONTE - COMARCA; CENTRAL DE APOIO TECNICO-SETOR CONTABIL 23.070,31 9.228,12 0,00 0,00 0,00 0,00 473,71 7.750,75 40.522,89 4.940,57 6.575,27 0,00 0,00 11.515,84 29.007,05 31/03/2024
631 536500 CRISTIANE MICHELE DE SOUZA ANALISTA DO MP BARÃO DE COCAIS - COMARCA; BARAO DE COCAIS-PJ-UNPJ 12.343,61 2.468,72 0,00 0,00 0,00 0,00 0,00 2.583,00 17.395,33 2.142,79 2.483,85 0,00 0,00 4.626,64 12.768,69 31/03/2024
632 346600 CRISTIANE NOGUEIRA ANDRADE ANALISTA DO MP BELO HORIZONTE - COMARCA; CENTRAL DE APOIO TECNICO-SETOR CONTABIL 22.191,68 6.657,50 0,00 0,00 0,00 0,00 0,00 2.583,00 31.432,18 4.388,69 5.830,63 0,00 0,00 10.219,32 21.212,86 31/03/2024
633 234000 CRISTIANE OLIVEIRA TOSTES OFICIAL DO MP JUIZ DE FORA - COMARCA; JUIZ DE FORA-PJ-08PJ 20.533,67 8.213,47 0,00 0,00 0,00 0,00 0,00 9.479,01 38.226,15 4.372,36 5.807,06 0,00 0,00 10.179,42 28.046,73 31/03/2024
634 445800 CRISTIANE ORZIL COSTA OFICIAL DO MP SANTA LUZIA - COMARCA; SANTA LUZIA-PJ-05PJ 10.015,59 2.003,12 0,00 0,00 0,00 0,00 0,00 3.729,58 15.748,29 1.695,82 1.942,79 0,00 0,00 3.638,61 12.109,68 31/03/2024
635 616100 CRISTIANE PAES RODRIGUES MARCICANO ANALISTA DO MP CATAGUASES - COMARCA; CATAGUASES-PJ-05PJ 11.577,56 1.157,76 0,00 0,00 0,00 0,00 46,70 4.238,99 17.021,01 1.810,47 2.108,33 0,00 0,00 3.918,80 13.102,21 31/03/2024
636 612300 CRISTIANE RIBEIRO DOS REIS ARCANJO OFICIAL DO MP BELO HORIZONTE - COMARCA; DIRETORIA DE PAGAMENTO DE PESSOAL-DPAG 7.506,70 1.501,34 0,00 0,00 0,00 0,00 750,67 0,00 9.758,71 1.949,15 1.147,35 0,00 0,00 3.096,50 6.662,21 31/03/2024
637 257700 CRISTIANE RODRIGUES PAES NUNES ANALISTA DO MP BELO HORIZONTE - COMARCA; BH-22PJ PES COM DEF E IDOSOS-ORIENTACAO PSIC 23.070,31 9.228,12 0,00 0,00 0,00 0,00 473,71 8.897,33 41.669,47 4.940,57 6.575,27 0,00 0,00 11.515,84 30.153,63 31/03/2024
638 510800 CRISTIANE SANTOS FERNANDES ORNELES ANALISTA DO MP BELO HORIZONTE - COMARCA; BH-03PJ EMPRESARIAL-SECRETARIA 12.343,61 2.468,72 0,00 0,00 0,00 0,00 0,00 5.545,47 20.357,80 2.142,79 2.588,12 0,00 0,00 4.730,91 15.626,89 31/03/2024
639 535701 CRISTIANE SANTOS MIRANDA ANALISTA DO MP CONTAGEM - COMARCA; CONTAGEM-PJ-03PJ 11.212,54 1.794,00 0,00 0,00 0,00 0,00 0,00 3.103,26 16.109,80 1.853,87 2.170,98 0,00 0,00 4.024,85 12.084,95 31/03/2024
640 536200 CRISTIANO DE OLIVEIRA ANALISTA DO MP CONCEIÇÃO DO MATO DENTRO - COMARCA; CONCEICAO DO MATO DENTRO-PJ-UNPJ 12.343,61 2.468,72 0,00 0,00 0,00 0,00 0,00 7.838,63 22.650,96 2.142,79 2.483,85 0,00 0,00 4.626,64 18.024,32 31/03/2024
641 477400 CRISTIANO SOARES ELEUTERIO ANALISTA DO MP BELO HORIZONTE - COMARCA; GABINETE DE PROCURADOR DE JUSTIÇA-SALA1109-T3 15.949,86 3.189,97 0,00 0,00 0,00 0,00 0,00 8.707,75 27.847,58 2.835,19 3.587,78 0,00 0,00 6.422,97 21.424,61 31/03/2024
642 449400 CRISTIANO TEIXEIRA RODRIGUES LANA ANALISTA DO MP BELO HORIZONTE - COMARCA; BH-18PJ VIOLENCIA DOMESTICA-SECRETARIA 14.960,00 3.889,60 0,00 0,00 0,00 0,00 0,00 8.614,87 27.464,47 2.788,76 3.520,73 0,00 0,00 6.309,49 21.154,98 31/03/2024
643 239400 CRISTINA DE FATIMA CRUZ E SILVA OFICIAL DO MP MONTE SANTO DE MINAS - COMARCA; MONTE SANTO DE MINAS-PJ-SECRETARIA 18.130,77 7.252,31 0,00 0,00 0,00 3.834,11 0,00 2.583,00 31.800,19 3.834,11 6.084,35 0,00 0,00 9.918,46 21.881,73 31/03/2024
644 544000 CRISTINA DE OLIVEIRA TERRA ANALISTA DO MP BELO HORIZONTE - COMARCA; BH-18PJ VIOLENCIA DOMESTICA-SECRETARIA 12.343,61 2.468,72 0,00 0,00 0,00 0,00 0,00 5.545,47 20.357,80 2.142,79 2.588,12 0,00 0,00 4.730,91 15.626,89 31/03/2024
645 356800 CRISTINA DE PINHO BARROSO OFICIAL DO MP SABINÓPOLIS - COMARCA; SABINOPOLIS-PJ-UNPJ 11.577,56 4.631,02 0,00 0,00 0,00 0,00 0,00 3.729,58 19.938,16 2.366,19 2.806,38 0,00 0,00 5.172,57 14.765,59 31/03/2024
646 649500 CRISTINA DO DIVINO ESPIRITO SANTOS OFICIAL DO MP DIVINÓPOLIS - COMARCA; DIVINOPOLIS-PJ-12PJ 7.270,07 727,01 0,00 0,00 0,00 0,00 0,00 2.583,00 10.580,08 1.052,35 1.013,80 0,00 0,00 2.066,15 8.513,93 31/03/2024
647 727100 CRISTINA DORNELLES CLARET ASSESSOR ADMINISTRATIVO III BELO HORIZONTE - COMARCA; CAO-MEIO AMBIENTE 0,00 0,00 10.858,90 0,00 0,00 0,00 0,00 2.583,00 13.441,90 908,85 2.384,21 0,00 0,00 3.293,06 10.148,84 31/03/2024
648 348201 CRISTINA MARIA DA SILVA ANALISTA DO MP BELO HORIZONTE - COMARCA; CENT ESTAD COOPERACAO TECNICO-JURIDICA 12.343,61 2.468,72 0,00 0,00 0,00 0,00 0,00 4.302,87 19.115,20 2.142,79 2.588,12 0,00 0,00 4.730,91 14.384,29 31/03/2024
649 434900 CRISTINA MELO DE MADUREIRA ANALISTA DO MP BELO HORIZONTE - COMARCA; BH-07PJ 01 TRIBUNAL JURI-SECRETARIA 18.720,84 3.744,17 0,00 0,00 0,00 0,00 0,00 2.583,00 25.048,01 3.367,22 4.355,89 0,00 0,00 7.723,11 17.324,90 31/03/2024
650 307700 CRISTINA TEIXEIRA MARQUES OFICIAL DO MP BELO HORIZONTE - COMARCA; CENTRAL DE APOIO TECNICO-SETOR CONTABIL 12.343,61 3.703,08 0,00 0,00 0,00 0,00 0,00 2.583,00 18.629,69 2.340,29 2.873,26 0,00 0,00 5.213,55 13.416,14 31/03/2024
651 743100 CRISTOVAO JOSE DOS SANTOS JUNIOR ANALISTA DO MP BELO HORIZONTE - COMARCA; CGMP-DIR ESTAGIO PROBATORIO E ORIENT 7.040,78 0,00 0,00 0,00 0,00 0,00 0,00 2.583,00 9.623,78 903,07 791,87 0,00 0,00 1.694,94 7.928,84 31/03/2024
652 265300 CRISTOVAO SANCHES DE MEDEIROS ANALISTA DO MP BELO HORIZONTE - COMARCA; DIRETORIA DE CONTABILIDADE 23.070,31 9.228,12 0,00 0,00 0,00 0,00 0,00 2.583,00 34.881,43 4.940,57 6.627,41 0,00 0,00 11.567,98 23.313,45 31/03/2024
653 349800 CROZEIR LUIZ DA SILVA OFICIAL DO MP UNAÍ - COMARCA; UNAI-PJ-SECRETARIA 12.343,61 3.703,08 0,00 0,00 0,00 0,00 411,86 8.452,69 24.911,24 2.340,29 2.821,12 0,00 0,00 5.161,41 19.749,83 31/03/2024
654 490500 CYNTHIA CRISTINA DE SOUZA OLIVEIRA VALENTE ANALISTA DO MP BELO HORIZONTE - COMARCA; BH-09PJ AUDITORIA MILITAR-GAB 074PJ 12.343,61 2.468,72 0,00 0,00 0,00 0,00 543,12 8.507,93 23.863,38 2.142,79 2.588,12 0,00 0,00 4.730,91 19.132,47 31/03/2024
655 389800 CYNTHIA GARIGLIO DOS SANTOS OFICIAL DO MP PERDIZES - COMARCA; PERDIZES-PJ-SECRETARIA 11.212,54 3.363,76 0,00 0,00 0,00 0,00 0,00 2.583,00 17.159,30 2.105,03 2.377,19 0,00 0,00 4.482,22 12.677,08 31/03/2024
656 335101 CYNTHIA GONTIJO D ASSUNCAO ANALISTA DO MP BELO HORIZONTE - COMARCA; FEPDC-SECRETARIA EXECUTIVA 12.343,61 3.703,08 4.020,58 0,00 0,00 0,00 0,00 3.729,58 23.796,85 2.340,29 3.978,92 0,00 0,00 6.319,21 17.477,64 31/03/2024
657 269700 CYNTIA ROCHA CAVALCANTI OFICIAL DO MP UBERLÂNDIA - COMARCA; UBERLANDIA-PJ-06PJ 18.130,77 7.252,31 0,00 0,00 0,00 0,00 0,00 9.821,52 35.204,60 3.834,11 5.029,97 0,00 0,00 8.864,08 26.340,52 31/03/2024
658 278000 DAIRTON LOPES MARTINS FILHO COORDENADOR II BELO HORIZONTE - COMARCA; DIRETORIA DE SISTEMAS DE INFORMACAO 20.533,67 8.213,47 0,00 0,00 0,00 0,00 0,00 8.332,43 37.079,57 2.537,79 6.311,57 0,00 0,00 8.849,36 28.230,21 31/03/2024
659 392700 DALIANA CHAVES IBRAIM MARINHO OFICIAL DO MP ITAÚNA - COMARCA; ITAUNA-PJ-04PJ 10.341,72 2.068,34 0,00 0,00 0,00 0,00 45,50 3.079,40 15.534,96 1.758,43 2.033,20 0,00 0,00 3.791,63 11.743,33 31/03/2024
660 558101 DALLEY TASSIA SILVA ANALISTA DO MP MORADA NOVA DE MINAS - COMARCA; MORADA NOVA DE MINAS-PJ-UNPJ 12.343,61 2.468,72 0,00 0,00 0,00 0,00 1.234,36 3.729,58 19.776,27 2.340,29 2.768,99 0,00 0,00 5.109,28 14.666,99 31/03/2024
661 476700 DALTON DAUD ANALISTA DO MP ARAGUARI - COMARCA; ARAGUARI-PJ-05PJ 12.343,61 2.468,72 0,00 0,00 0,00 0,00 271,56 5.545,47 20.629,36 2.142,79 2.483,85 0,00 0,00 4.626,64 16.002,72 31/03/2024
662 750500 DANIEL ALMEIDA RIBEIRO OFICIAL DO MP ESPERA FELIZ - COMARCA; ESPERA FELIZ-PJ-UNPJ 4.570,25 0,00 0,00 0,00 0,00 0,00 0,00 4.177,40 8.747,65 544,12 238,46 0,00 0,00 782,58 7.965,07 31/03/2024
663 426900 DANIEL ALVES DA SILVA OFICIAL DO MP BELO HORIZONTE - COMARCA; DIVISÃO DE FISCALIZAÇÃO DAS RELAÇÕES DE CONSU 7.506,70 2.252,01 0,00 0,00 0,00 0,00 2.522,33 8.578,79 20.859,83 1.454,32 1.977,07 0,00 0,00 3.431,39 17.428,44 31/03/2024
664 536302 DANIEL BATISTA MARIANO OFICIAL DO MP LAGOA SANTA - COMARCA; LAGOA SANTA-PJ-SECRETARIA 4.570,25 731,24 0,00 0,00 0,00 0,00 0,00 4.876,16 10.177,65 646,49 384,61 0,00 0,00 1.031,10 9.146,55 31/03/2024
665 714000 DANIEL FERREIRA CAMARA ASSESSOR PROMOTOR JUSTICA RIBEIRÃO DAS NEVES - COMARCA; RIBEIRAO DAS NEVES-PJ-12PJ 0,00 0,00 8.810,89 0,00 0,00 0,00 0,00 2.583,00 11.393,89 908,85 1.821,01 0,00 0,00 2.729,86 8.664,03 31/03/2024
666 411000 DANIEL FERREIRA DA SILVA ANALISTA DO MP GOVERNADOR VALADARES - COMARCA; GOVERNADOR VALADARES-PJ-15PJ 18.130,77 7.252,31 0,00 0,00 0,00 0,00 0,00 11.541,39 36.924,47 3.834,11 4.821,42 0,00 0,00 8.655,53 28.268,94 31/03/2024
667 703500 DANIEL FILIPE DE DEUS SOARES ASSESSOR PROMOTOR JUSTICA ITABIRITO - COMARCA; ITABIRITO-PJ-02PJ 0,00 0,00 8.810,89 0,00 0,00 0,00 0,00 2.583,00 11.393,89 908,85 1.821,01 0,00 0,00 2.729,86 8.664,03 31/03/2024
668 309000 DANIEL GOMES DOS SANTOS ANALISTA DO MP POÇOS DE CALDAS - COMARCA; POCOS DE CALDAS-PJ-05PJ 23.070,31 6.921,09 0,00 0,00 0,00 0,00 0,00 8.581,28 38.572,68 4.571,45 6.094,49 0,00 0,00 10.665,94 27.906,74 31/03/2024
669 554500 DANIEL GOMES PEREIRA OFICIAL DO MP NANUQUE - COMARCA; NANUQUE-PJ-02PJ 7.506,70 1.501,34 0,00 0,00 0,00 0,00 0,00 2.583,00 11.591,04 1.214,11 1.247,33 0,00 0,00 2.461,44 9.129,60 31/03/2024
670 453000 DANIEL GONCALVES PEREIRA ANALISTA DO MP UNAÍ - COMARCA; UNAI-PJ-02PJ 12.343,61 3.209,34 0,00 0,00 0,00 0,00 0,00 8.560,04 24.112,99 2.261,29 2.759,21 0,00 0,00 5.020,50 19.092,49 31/03/2024
671 495500 DANIEL GUIMARAES CABRAL OFICIAL DO MP BELO HORIZONTE - COMARCA; BH-17PJ PATRIMONIO PUBLICO-SECRETARIA 10.341,72 2.068,34 0,00 0,00 0,00 0,00 0,00 3.729,58 16.139,64 1.758,43 2.033,20 0,00 0,00 3.791,63 12.348,01 31/03/2024
672 442900 DANIEL GUIMARAES GONCALVES ANALISTA DO MP UBERLÂNDIA - COMARCA; UBERLANDIA-PJ-03PJ 18.130,77 4.714,00 0,00 0,00 0,00 0,00 0,00 8.065,74 30.910,51 1.018,60 4.795,61 0,00 0,00 5.814,21 25.096,30 31/03/2024
673 655900 DANIEL LUIZ DA SILVA ASSESSOR ADMINISTRATIVO II BELO HORIZONTE - COMARCA; DIV FISCAL ADM CONT TERCEIRIZACAO 0,00 0,00 7.506,70 0,00 0,00 0,00 0,00 3.729,58 11.236,28 908,85 1.462,36 0,00 0,00 2.371,21 8.865,07 31/03/2024
674 464600 DANIEL PIACENTINI STIVANIN ANALISTA DO MP ANDRADAS - COMARCA; ANDRADAS-PJ-02PJ 12.343,61 2.468,72 0,00 0,00 0,00 0,00 0,00 2.583,00 17.395,33 2.142,79 2.588,12 0,00 0,00 4.730,91 12.664,42 31/03/2024
675 417000 DANIEL QUEIROZ FERREIRA ANALISTA DO MP PASSOS - COMARCA; PASSOS-PJ-06PJ 18.130,77 5.439,23 0,00 0,00 0,00 0,00 0,00 9.386,38 32.956,38 1.018,60 4.980,09 0,00 0,00 5.998,69 26.957,69 31/03/2024
676 396700 DANIEL SILVA CARNEVALLI SUPERINTENDENTE BELO HORIZONTE - COMARCA; SUPERINTENDENCIA DE TECNOLOGIA DA INFORMACAO 28.013,39 8.404,02 0,00 0,00 0,00 0,00 0,00 9.556,37 45.973,78 4.043,82 8.006,74 0,00 0,00 12.050,56 33.923,22 31/03/2024
677 489300 DANIEL TABOZA ROCHA ANALISTA DO MP IPATINGA - COMARCA; IPATINGA-PJ-08PJ 12.343,61 2.468,72 0,00 0,00 0,00 0,00 0,00 3.729,58 18.541,91 1.018,60 2.607,44 0,00 0,00 3.626,04 14.915,87 31/03/2024
678 414100 DANIEL TARDELI VALADAO ANALISTA DO MP TRÊS CORACOES - COMARCA; TRES CORACOES-PJ-02PJ 18.130,77 5.439,23 0,00 0,00 0,00 0,00 0,00 3.882,46 27.452,46 1.018,60 4.771,54 0,00 0,00 5.790,14 21.662,32 31/03/2024
679 731800 DANIEL VASCONCELOS ARAUJO SILVA ASSESSOR ADMINISTRATIVO IV BELO HORIZONTE - COMARCA; DIRETORIA DE REDES E BANCOS DE DADOS 0,00 0,00 14.488,22 0,00 0,00 0,00 0,00 2.583,00 17.071,22 908,85 3.382,28 0,00 0,00 4.291,13 12.780,09 31/03/2024
680 446601 DANIEL VIEIRA BUENO ANALISTA DO MP SÃO DOMINGOS DO PRATA - COMARCA; SAO DOMINGOS DO PRATA-PJ-UNPJ 12.343,61 2.468,72 0,00 0,00 0,00 0,00 0,00 3.729,58 18.541,91 2.142,79 2.535,99 0,00 0,00 4.678,78 13.863,13 31/03/2024
681 253200 DANIELA BATISTA LIMA BARBOSA ASSESSOR ADMINISTRATIVO II BELO HORIZONTE - COMARCA; CENTRAL DE APOIO TECN-SETOR DE MEIO AMBIENTE 0,00 3.002,68 7.506,70 0,00 0,00 0,00 0,00 2.583,00 13.092,38 908,85 2.288,10 0,00 0,00 3.196,95 9.895,43 31/03/2024
682 505800 DANIELA BORGES DE MATTOS RESENDE ANALISTA DO MP JUIZ DE FORA - COMARCA; JUIZ DE FORA-PJ-20PJ 12.343,61 2.468,72 0,00 0,00 0,00 0,00 0,00 5.545,47 20.357,80 2.142,79 2.588,12 0,00 0,00 4.730,91 15.626,89 31/03/2024
683 478000 DANIELA CARVALHO SOARES ANALISTA DO MP SÃO JOÃO DEL REI - COMARCA; SAO JOAO DEL REI-PJ-01PJ 12.343,61 2.468,72 0,00 0,00 0,00 0,00 0,00 2.583,00 17.395,33 2.142,79 2.588,12 0,00 0,00 4.730,91 12.664,42 31/03/2024
684 275900 DANIELA CHAGAS SODRE ANALISTA DO MP BELO HORIZONTE - COMARCA; CENTRAL DE APOIO TECNICO-SETOR CONTABIL 23.070,31 9.228,12 0,00 0,00 0,00 0,00 0,00 2.583,00 34.881,43 4.940,57 6.575,27 0,00 0,00 11.515,84 23.365,59 31/03/2024
685 234301 DANIELA CRUZ SOARES ANALISTA DO MP BELO HORIZONTE - COMARCA; LABORATORIO TECNOLOGIA INTELIGENCIA 23.070,31 9.228,12 0,00 0,00 0,00 0,00 0,00 7.750,75 40.049,18 4.940,57 6.627,41 0,00 0,00 11.567,98 28.481,20 31/03/2024
686 638000 DANIELA DE ALMEIDA BATISTA ANALISTA DO MP ANDRELÂNDIA - COMARCA; ANDRELANDIA-PJ-UNPJ 11.577,56 1.157,76 0,00 0,00 0,00 0,00 0,00 3.729,58 16.464,90 1.018,60 2.326,10 0,00 0,00 3.344,70 13.120,20 31/03/2024
687 301000 DANIELA DE ALMEIDA E OLIVEIRA ANALISTA DO MP BELO HORIZONTE - COMARCA; DIRETORIA DE SISTEMAS DE INFORMACAO 23.070,31 6.921,09 0,00 0,00 0,00 4.571,45 0,00 2.583,00 37.145,85 4.571,45 7.351,64 0,00 0,00 11.923,09 25.222,76 31/03/2024
688 296000 DANIELA DE AZEVEDO SILVA ANALISTA DO MP BRASÓPOLIS - COMARCA; BRASOPOLIS-PJ-UNPJ 23.070,31 9.228,12 0,00 0,00 0,00 0,00 0,00 2.583,00 34.881,43 4.940,57 6.627,41 0,00 0,00 11.567,98 23.313,45 31/03/2024
689 453500 DANIELA DE CASTRO SOUSA BARBOSA ANALISTA DO MP BELO HORIZONTE - COMARCA; BH-08PJ JUIZADO ESPECIAL-GAB 070PJ 14.960,00 3.889,60 0,00 0,00 0,00 0,00 0,00 8.614,87 27.464,47 2.788,76 3.520,73 0,00 0,00 6.309,49 21.154,98 31/03/2024
690 506000 DANIELA DE OLIVEIRA CAVALIERI ANALISTA DO MP BELO HORIZONTE - COMARCA; BH-14PJ DEFESA CONSUMIDOR-GAB 005PJ 12.343,61 2.468,72 0,00 0,00 0,00 0,00 0,00 5.545,47 20.357,80 2.142,79 2.588,12 0,00 0,00 4.730,91 15.626,89 31/03/2024
691 546200 DANIELA DE VILHENA LEMES GONCALVES OFICIAL DO MP TRÊS CORACOES - COMARCA; TRES CORACOES-PJ-05PJ 7.506,70 750,67 0,00 0,00 0,00 0,00 0,00 2.583,00 10.840,37 1.094,00 969,65 0,00 0,00 2.063,65 8.776,72 31/03/2024
692 356400 DANIELA LEAL FERRAZ ANALISTA DO MP MONTES CLAROS - COMARCA; COORD REG PJ DEF EDUC DIR CRIANCA ADOL NORTE 21.346,53 6.403,96 0,00 0,00 0,00 0,00 508,76 9.279,68 37.538,93 4.212,90 5.576,84 0,00 0,00 9.789,74 27.749,19 31/03/2024
693 501000 DANIELA LOURENCO SANTOS DA SILVA GUIMARAES ANALISTA DO MP BELO HORIZONTE - COMARCA; BH-12PJ JUIZO CRIMINAL-GAB 095PJ 12.343,61 2.468,72 0,00 0,00 0,00 0,00 543,12 8.507,93 23.863,38 2.142,79 2.535,99 0,00 0,00 4.678,78 19.184,60 31/03/2024
694 762100 DANIELA MARIA ALTIERI PEREIRA OFICIAL DO MP BELO HORIZONTE - COMARCA; SUPER DE GESTAO DE PESSOAS-LOTACAO TEMPORARIA 4.570,25 0,00 0,00 0,00 0,00 0,00 0,00 2.583,00 7.153,25 544,12 238,46 0,00 0,00 782,58 6.370,67 31/03/2024
695 195801 DANIELA MARIA DE OLIVEIRA QUEIROZ ANALISTA DO MP ARAGUARI - COMARCA; ARAGUARI-PJ-06PJ 18.720,84 7.488,34 0,00 0,00 0,00 0,00 0,00 7.824,84 34.034,02 3.966,29 5.220,79 0,00 0,00 9.187,08 24.846,94 31/03/2024
696 511400 DANIELA MARIA LARA DE OLIVEIRA ANALISTA DO MP BOA ESPERANÇA - COMARCA; BOA ESPERANCA-PJ-02PJ 12.343,61 3.703,08 0,00 0,00 0,00 0,00 0,00 8.222,65 24.269,34 2.340,29 2.821,12 0,00 0,00 5.161,41 19.107,93 31/03/2024
697 252101 DANIELA PAULA ALVES PENA ANALISTA DO MP CONTAGEM - COMARCA; CONTAGEM-PJ-APO TECNICO 20.533,67 10.266,84 0,00 0,00 0,00 0,00 2.053,37 9.153,77 42.007,65 5.029,44 6.755,72 0,00 0,00 11.785,16 30.222,49 31/03/2024
698 604700 DANIELA PEIXOTO NOGUEIRA COORDENADOR II BELO HORIZONTE - COMARCA; DIRET DE FORMACAO, APERFEIC. E POS-GRADUACAO 20.533,67 4.106,73 0,00 0,00 0,00 0,00 0,00 6.686,43 31.326,83 1.214,11 5.546,23 0,00 0,00 6.760,34 24.566,49 31/03/2024
699 755700 DANIELA PIMENTEL PEREIRA ASSESSOR ADMINISTRATIVO I BELO HORIZONTE - COMARCA; DIRET DE ESTAGIOS E CONVENIOS ACADEMICOS 0,00 0,00 4.872,71 0,00 0,00 0,00 0,00 2.583,00 7.455,71 777,91 774,02 0,00 0,00 1.551,93 5.903,78 31/03/2024
700 662000 DANIELA RIBAS DE AVILA ASSESSOR ADMINISTRATIVO III BELO HORIZONTE - COMARCA; JUNTA RECURSAL DO PROCON ESTADUAL 0,00 0,00 10.858,90 0,00 0,00 0,00 0,00 2.583,00 13.441,90 908,85 2.384,21 0,00 0,00 3.293,06 10.148,84 31/03/2024
701 462000 DANIELA SOUSA GOMES DO AMARAL ANALISTA DO MP BETIM - COMARCA; BETIM-PJ-04PJ 15.447,01 3.089,40 0,00 0,00 0,00 0,00 0,00 8.514,65 27.051,06 2.738,65 3.448,38 0,00 0,00 6.187,03 20.864,03 31/03/2024
702 427000 DANIELA TEIXEIRA DINIZ ANDRADE ANALISTA DO MP BELO HORIZONTE - COMARCA; DIRETORIA DE PROJETOS DE EDIFICACOES 13.588,97 4.076,69 4.020,58 0,00 0,00 0,00 1.358,90 9.416,13 32.461,27 2.816,75 4.614,67 0,00 0,00 7.431,42 25.029,85 31/03/2024
703 337200 DANIELA TOLEDO SENIUK ANALISTA DO MP BELO HORIZONTE - COMARCA; GABINETE DE PROCURADOR DE JUSTIÇA - SALA 412 23.070,31 6.921,09 0,00 0,00 0,00 0,00 0,00 8.581,28 38.572,68 4.571,45 6.094,49 0,00 0,00 10.665,94 27.906,74 31/03/2024
704 605600 DANIELE ALZIRA SILVA CABRAL MOREIRA OFICIAL DO MP BELO HORIZONTE - COMARCA; BH-10PJ EXECUÇÃO PENAL-SECRETARIA 7.506,70 1.501,34 0,00 0,00 0,00 0,00 0,00 2.583,00 11.591,04 1.214,11 1.247,33 0,00 0,00 2.461,44 9.129,60 31/03/2024
705 195500 DANIELE CHAVES FONSECA OFICIAL DO MP BELO HORIZONTE - COMARCA; CGMP-DIR INSP CORR PROCED PROC DISC 23.070,31 9.228,12 0,00 0,00 0,00 0,00 0,00 7.750,75 40.049,18 4.940,57 6.627,41 0,00 0,00 11.567,98 28.481,20 31/03/2024
706 323400 DANIELE MEGALE SANTINI OFICIAL DO MP BELO HORIZONTE - COMARCA; CGMP-DIR INSP CORR PROCED PROC DISC 14.960,00 4.488,00 0,00 0,00 0,00 0,00 0,00 8.806,36 28.254,36 2.884,50 3.606,83 0,00 0,00 6.491,33 21.763,03 31/03/2024
707 357900 DANIELE REJANE PINTO VERSIEUX OFICIAL DO MP BELO HORIZONTE - COMARCA; BH-12PJ JUIZO CRIMINAL-SECRETARIA 12.343,61 3.703,08 0,00 0,00 0,00 0,00 0,00 7.076,07 23.122,76 2.340,29 2.873,26 0,00 0,00 5.213,55 17.909,21 31/03/2024
708 389500 DANIELE VASCONCELOS AMORIM OFICIAL DO MP SÃO SEBASTIÃO DO PARAÍSO - COMARCA; SAO SEBASTIAO DO PARAISO-PJ-04PJ 12.343,61 3.703,08 0,00 0,00 0,00 0,00 529,54 8.359,81 24.936,04 2.340,29 2.873,26 0,00 0,00 5.213,55 19.722,49 31/03/2024
709 629700 DANIELLA BASTOS MARTINS BICALHO OFICIAL DO MP GOVERNADOR VALADARES - COMARCA; GOVERNADOR VALADARES-PJ-16PJ 7.506,70 750,67 0,00 0,00 0,00 0,00 0,00 2.583,00 10.840,37 1.094,00 1.073,93 0,00 0,00 2.167,93 8.672,44 31/03/2024
710 725500 DANIELLE CAMILE OLIVEIRA FONSECA ASSESSOR PROCURADOR JUSTICA BELO HORIZONTE - COMARCA; PROC JUST ATUACAO TRIBUNAIS SUPERIORES-GAB007 0,00 0,00 8.810,89 0,00 0,00 0,00 0,00 2.583,00 11.393,89 908,85 1.821,01 0,00 0,00 2.729,86 8.664,03 31/03/2024
711 265000 DANIELLE CASTANHEIRA SCALABRINI OFICIAL DO MP BELO HORIZONTE - COMARCA; JUNTA RECURSAL DO PROCON ESTADUAL 12.343,61 4.937,44 0,00 0,00 0,00 0,00 0,00 2.583,00 19.864,05 2.537,79 3.106,26 0,00 0,00 5.644,05 14.220,00 31/03/2024
712 490100 DANIELLE DE AVILA SILVA LOPES ANALISTA DO MP BELO HORIZONTE - COMARCA; PROC. JUSTICA DIR. DIFUSOS E COLETIVOS-SEC 12.343,61 4.937,44 0,00 0,00 0,00 0,00 0,00 3.729,58 21.010,63 2.537,79 3.158,40 0,00 0,00 5.696,19 15.314,44 31/03/2024
713 549600 DANIELLE GOMES LOPES RODRIGUES OFICIAL DO MP BELO HORIZONTE - COMARCA; COORD DE GABINETE DO PGJ 7.506,70 1.501,34 0,00 0,00 0,00 0,00 0,00 2.583,00 11.591,04 1.214,11 1.247,33 0,00 0,00 2.461,44 9.129,60 31/03/2024
714 613000 DANIELLE SILVA OLIVEIRA FRANKLIN COORDENADOR II BELO HORIZONTE - COMARCA; DIRETORIA DE ADMINISTRACAO FINANCEIRA 20.533,67 4.106,73 0,00 0,00 0,00 0,00 2.053,37 3.729,58 30.423,35 1.688,06 5.980,57 0,00 0,00 7.668,63 22.754,72 31/03/2024
715 722800 DANIELLE VALENTIM SOUZA ASSESSOR PROCURADOR JUSTICA BELO HORIZONTE - COMARCA; GABINETE DE PROCURADOR DE JUSTIÇA - SALA 606 0,00 0,00 8.810,89 0,00 0,00 0,00 0,00 2.583,00 11.393,89 908,85 1.821,01 0,00 0,00 2.729,86 8.664,03 31/03/2024
716 736400 DANIELLY VITORIA MARIA RUELA ASSESSOR PROMOTOR JUSTICA PARACATU - COMARCA; COORD REG PP NOROESTE MINAS GERAIS PARACATU 0,00 0,00 8.810,89 0,00 0,00 0,00 0,00 2.583,00 11.393,89 908,85 1.821,01 0,00 0,00 2.729,86 8.664,03 31/03/2024
717 380800 DANILLO RIBEIRO ANTUNES ANALISTA DO MP MONTES CLAROS - COMARCA; MONTES CLAROS-PJ-SECRETARIA 20.533,67 6.160,10 0,00 0,00 0,00 0,00 1.771,66 8.276,09 36.741,52 4.043,82 5.767,81 0,00 0,00 9.811,63 26.929,89 31/03/2024
718 453700 DANILO BOTELHO DE CARVALHO SUPERINTENDENTE BELO HORIZONTE - COMARCA; SUPERINTENDENCIA DE FINANCAS 28.013,39 5.602,68 0,00 0,00 0,00 0,00 0,00 7.961,57 41.577,64 3.253,93 7.453,59 0,00 0,00 10.707,52 30.870,12 31/03/2024
719 391200 DANILO D'AVILA MENDES ANALISTA DO MP MONTES CLAROS - COMARCA; GAECO REGIONAL DE MONTES CLAROS 20.533,67 6.160,10 0,00 0,00 0,00 0,00 0,00 9.068,33 35.762,10 4.043,82 5.332,74 0,00 0,00 9.376,56 26.385,54 31/03/2024
720 710900 DANILO DE SOUZA RODRIGUES ASSESSOR PROMOTOR JUSTICA IPANEMA - COMARCA; IPANEMA-PJ-01PJ 0,00 0,00 8.810,89 0,00 0,00 0,00 0,00 2.583,00 11.393,89 908,85 1.821,01 0,00 0,00 2.729,86 8.664,03 31/03/2024
721 494900 DANILO GAVIAO AVELINO DE MELLO ANALISTA DO MP POUSO ALEGRE - COMARCA; GAECO REGIONAL DE POUSO ALEGRE 12.343,61 2.468,72 0,00 0,00 0,00 0,00 0,00 2.583,00 17.395,33 2.142,79 2.588,12 0,00 0,00 4.730,91 12.664,42 31/03/2024
722 604300 DANILO NASCIMENTO SALGADO ANALISTA DO MP JANAÚBA - COMARCA; JANAUBA-PJ-01PJ 12.343,61 2.468,72 0,00 0,00 0,00 0,00 0,00 5.545,47 20.357,80 2.142,79 2.588,12 0,00 0,00 4.730,91 15.626,89 31/03/2024
723 298300 DANUZA MONICA DE SOUZA DINIZ ANALISTA DO MP DIVINÓPOLIS - COMARCA; COORD REG DEF CONSUMIDOR DIVINOPOLIS 23.070,31 9.228,12 0,00 0,00 0,00 0,00 2.823,04 8.212,16 43.333,63 5.309,70 7.108,20 0,00 0,00 12.417,90 30.915,73 31/03/2024
724 398700 DARCY LUIZ MILEO GREGATTI OFICIAL DO MP LAMBARI - COMARCA; LAMBARI-PJ-SECRETARIA 12.343,61 3.703,08 0,00 0,00 0,00 0,00 411,86 7.076,07 23.534,62 2.340,29 2.873,26 0,00 0,00 5.213,55 18.321,07 31/03/2024
725 406200 DARIANA AUGUSTA DE TOLEDO PATROCINIO RUIZ OFICIAL DO MP BELO HORIZONTE - COMARCA; DIRETORIA GESTAO COMPRAS LICITACOES 12.343,61 3.703,08 5.538,92 0,00 0,00 0,00 0,00 9.931,76 31.517,37 2.340,29 4.396,46 0,00 0,00 6.736,75 24.780,62 31/03/2024
726 586901 DARIO VITORINO DE CARVALHO SILVA ASSESSOR ADM. ESPECIAL BELO HORIZONTE - COMARCA; NUCLEO DE OPERACOES DE SEGURANCA DE PESSOAL 0,00 0,00 28.013,39 0,00 0,00 0,00 0,00 8.185,68 36.199,07 908,85 7.049,56 0,00 0,00 7.958,41 28.240,66 31/03/2024
727 305000 DARLI LEITE DE OLIVEIRA OFICIAL DO MP ARAÇUAÍ - COMARCA; ARACUAI-PJ-01PJ 7.506,70 2.252,01 0,00 0,00 0,00 0,00 0,00 2.583,00 12.341,71 1.334,22 1.264,32 0,00 0,00 2.598,54 9.743,17 31/03/2024
728 729400 DAVI PIMENTA ASSESSOR PROMOTOR JUSTICA CANDEIAS - COMARCA; CANDEIAS-PJ-UNPJ 0,00 0,00 8.810,89 0,00 0,00 0,00 0,00 2.583,00 11.393,89 908,85 1.821,01 0,00 0,00 2.729,86 8.664,03 31/03/2024
729 122200 DAVID RIBEIRO DOS SANTOS ANALISTA DO MP BORDA DA MATA - COMARCA; BORDA DA MATA-PJ-UNPJ 23.070,31 23.070,31 0,00 0,00 0,00 6.127,65 0,00 8.084,44 60.352,71 6.127,65 10.026,36 6.422,93 0,00 22.576,94 37.775,77 31/03/2024
730 389400 DAWSON CANEDO MARQUES OFICIAL DO MP POUSO ALEGRE - COMARCA; POUSO ALEGRE-PJ-08PJ 12.343,61 3.703,08 0,00 0,00 0,00 0,00 529,54 9.506,39 26.082,62 2.340,29 1.009,42 0,00 0,00 3.349,71 22.732,91 31/03/2024
731 537200 DAYANE TEIXEIRA DE OLIVEIRA CASELLI ANALISTA DO MP BELO HORIZONTE - COMARCA; ASSESS TECNICO-JUR JUNTO AS PROC. DE JUST 11.212,54 1.121,25 0,00 0,00 0,00 0,00 0,00 2.583,00 14.916,79 1.746,23 2.015,58 0,00 0,00 3.761,81 11.154,98 31/03/2024
732 256100 DAYSE ROSALY PEREIRA BATISTA OFICIAL DO MP BELO HORIZONTE - COMARCA; BH-08PJ JUIZADO ESPECIAL-SECRETARIA 12.343,61 4.937,44 0,00 0,00 0,00 0,00 0,00 7.421,69 24.702,74 2.537,79 3.158,40 0,00 0,00 5.696,19 19.006,55 31/03/2024
733 311901 DEBORA APARECIDA DA SILVA ASSESSOR ADMINISTRATIVO I BELO HORIZONTE - COMARCA; BH-23PJ CIVEL-SETOR JURIDICO 0,00 0,00 4.872,71 0,00 0,00 0,00 0,00 2.583,00 7.455,71 777,91 774,02 0,00 0,00 1.551,93 5.903,78 31/03/2024
734 194301 DEBORA APARECIDA DOS SANTOS ANALISTA DO MP UBERLÂNDIA - COMARCA; UBERLANDIA-PJ-SEC FAMILIA 23.070,31 9.228,12 0,00 0,00 0,00 0,00 0,00 7.750,75 40.049,18 4.940,57 6.627,41 0,00 0,00 11.567,98 28.481,20 31/03/2024
735 518800 DEBORA CARVALHO FIORATTO COORDENADOR II BELO HORIZONTE - COMARCA; DIRETORIA MATERIAIS E SERVICOS 20.533,67 4.106,73 0,00 0,00 0,00 0,00 0,00 5.539,85 30.180,25 1.791,99 5.387,31 0,00 0,00 7.179,30 23.000,95 31/03/2024
736 444900 DEBORA CLAUDIA PEREIRA ALVES ANALISTA DO MP BELO HORIZONTE - COMARCA; BH-08PJ JUIZADO ESPECIAL-GAB 168PJ 14.960,00 2.992,00 0,00 0,00 0,00 0,00 0,00 8.327,64 26.279,64 2.645,14 3.313,39 0,00 0,00 5.958,53 20.321,11 31/03/2024
737 617700 DEBORA COMANDUCI SCHREIDER ANALISTA DO MP BICAS - COMARCA; BICAS-PJ-UNPJ 12.343,61 1.234,36 0,00 0,00 0,00 0,00 0,00 2.583,00 16.160,97 1.945,30 2.250,85 0,00 0,00 4.196,15 11.964,82 31/03/2024
738 555700 DEBORA CRISTINA BUITRAGO PEREIRA ANALISTA DO MP BELO HORIZONTE - COMARCA; DIRETORIA GESTAO CONTRATOS CONVENIOS 12.343,61 2.468,72 4.020,58 0,00 0,00 0,00 0,00 3.729,58 22.562,49 2.142,79 3.693,78 0,00 0,00 5.836,57 16.725,92 31/03/2024
739 513100 DEBORA CRISTINA PEREIRA DE OLIVEIRA ANALISTA DO MP BELO HORIZONTE - COMARCA; BH-23PJ CIVEL-SETOR JURIDICO 14.960,00 2.992,00 0,00 0,00 0,00 0,00 131,65 5.739,03 23.822,68 2.645,14 3.313,39 0,00 0,00 5.958,53 17.864,15 31/03/2024
740 612100 DEBORA DUARTE SILVA DE SOUZA OFICIAL DO MP BELO HORIZONTE - COMARCA; BH-12PJ JUIZO CRIMINAL-SECRETARIA 7.506,70 3.002,68 0,00 0,00 0,00 0,00 0,00 2.583,00 13.092,38 1.454,32 1.489,87 0,00 0,00 2.944,19 10.148,19 31/03/2024
741 717500 DEBORA ENDREFFY ORSI PARENZI ASSESSOR PROMOTOR JUSTICA MATEUS LEME - COMARCA; MATEUS LEME-PJ-01PJ 0,00 0,00 8.810,89 0,00 0,00 0,00 0,00 2.583,00 11.393,89 908,85 1.821,01 0,00 0,00 2.729,86 8.664,03 31/03/2024
742 539700 DEBORA SALES CARVALHO ANALISTA DO MP PATOS DE MINAS - COMARCA; COORD REG PJ DEF EDU DIR CRI ADO AL PAR NOROE 12.343,61 2.468,72 0,00 0,00 0,00 0,00 0,00 2.583,00 17.395,33 1.018,60 2.752,36 0,00 0,00 3.770,96 13.624,37 31/03/2024
743 424100 DEBORA SANTOS E ALVES ANALISTA DO MP JANUÁRIA - COMARCA; JANUARIA-PJ-01PJ 18.720,84 5.616,25 0,00 0,00 0,00 0,00 535,42 9.570,48 34.442,99 3.666,76 4.788,34 0,00 0,00 8.455,10 25.987,89 31/03/2024
744 426301 DEBORA SCUCATO MACHADO SOARES OFICIAL DO MP ITABIRA - COMARCA; ITABIRA-PJ-01PJ 7.506,70 2.252,01 0,00 0,00 0,00 0,00 750,67 4.480,25 14.989,63 1.454,32 1.594,14 0,00 0,00 3.048,46 11.941,17 31/03/2024
745 678100 DEBORA SOUZA COSTA ASSESSOR PROMOTOR JUSTICA BOTELHOS - COMARCA; BOTELHOS-PJ-UNPJ 0,00 0,00 8.810,89 0,00 0,00 0,00 0,00 2.583,00 11.393,89 908,85 1.768,87 0,00 0,00 2.677,72 8.716,17 31/03/2024
746 550200 DEBORA TRINDADE LEITE ANALISTA DO MP MANHUAÇU - COMARCA; MANHUACU-PJ-06PJ 12.343,61 2.468,72 0,00 0,00 0,00 0,00 0,00 5.545,47 20.357,80 2.142,79 2.483,85 0,00 0,00 4.626,64 15.731,16 31/03/2024
747 438000 DEBORAH COSTA LAGE ANALISTA DO MP BELO HORIZONTE - COMARCA; PROC JUST ATUACAO TRIBUNAIS SUPERIORES-GAB006 18.720,84 3.744,17 0,00 0,00 0,00 0,00 0,00 2.583,00 25.048,01 3.367,22 4.355,89 0,00 0,00 7.723,11 17.324,90 31/03/2024
748 613700 DEISER MARIA FERREIRA ROSCOE OFICIAL DO MP BELO HORIZONTE - COMARCA; DIVISÃO DE EDUCAÇÃO PARA O CONSUMO 7.506,70 750,67 0,00 0,00 0,00 0,00 0,00 2.583,00 10.840,37 1.094,00 1.073,93 0,00 0,00 2.167,93 8.672,44 31/03/2024
749 753300 DEISIANE MARA DE OLIVEIRA OFICIAL DO MP CONSELHEIRO PENA - COMARCA; CONSELHEIRO PENA-PJ-01PJ 4.570,25 0,00 0,00 0,00 0,00 0,00 0,00 2.583,00 7.153,25 544,12 238,46 0,00 0,00 782,58 6.370,67 31/03/2024
750 551900 DEISY ROCHA DA SILVA ANALISTA DO MP JANAÚBA - COMARCA; JANAUBA-PJ-02PJ 12.343,61 2.468,72 0,00 0,00 0,00 0,00 0,00 2.583,00 17.395,33 2.142,79 2.535,99 0,00 0,00 4.678,78 12.716,55 31/03/2024
751 736800 DELANZIA APARECIDA JUNHO ASSESSOR DE CAO BELO HORIZONTE - COMARCA; CAO-FUNDACOES 0,00 0,00 7.506,70 0,00 0,00 0,00 0,00 2.583,00 10.089,70 908,85 1.462,36 0,00 0,00 2.371,21 7.718,49 31/03/2024
752 501900 DELI RAQUEL RODRIGUES ANALISTA DO MP ITUIUTABA - COMARCA; ITUIUTABA-PJ-04PJ 12.343,61 2.468,72 0,00 0,00 0,00 0,00 543,12 8.507,93 23.863,38 2.142,79 2.588,12 0,00 0,00 4.730,91 19.132,47 31/03/2024
753 378600 DELIANE LOPES VIEIRA BREIJAO ANALISTA DO MP JUIZ DE FORA - COMARCA; JUIZ DE FORA-PJ-04PJ 20.533,67 6.160,10 0,00 0,00 0,00 0,00 0,00 7.921,75 34.615,52 4.043,82 5.280,60 0,00 0,00 9.324,42 25.291,10 31/03/2024
754 730100 DELIENE FRACETE GUTIERREZ ASSESSOR ADMINISTRATIVO I TEÓFILO OTONI - COMARCA; COORD REG APOIO COM INC MOB SOC VALE MUCURI 0,00 0,00 4.872,71 0,00 0,00 0,00 0,00 2.583,00 7.455,71 777,91 774,02 0,00 0,00 1.551,93 5.903,78 31/03/2024
755 756600 DELZIRA DE OLIVEIRA BALDOINO ASSESSOR DE CAO BELO HORIZONTE - COMARCA; CENTRO ESTADUAL DE APOIO AS VITIMAS 0,00 0,00 7.506,70 0,00 0,00 0,00 0,00 2.583,00 10.089,70 908,85 1.462,36 0,00 0,00 2.371,21 7.718,49 31/03/2024
756 487700 DENIA FERREIRA MAIA SILVA OFICIAL DO MP TRÊS CORACOES - COMARCA; TRES CORACOES-PJ-04PJ 8.264,07 1.652,81 0,00 0,00 0,00 0,00 0,00 2.583,00 12.499,88 1.359,52 1.353,00 0,00 0,00 2.712,52 9.787,36 31/03/2024
757 726300 DENILZA RODRIGUES MORAES ASSESSOR ADMINISTRATIVO I BELO HORIZONTE - COMARCA; CENT DE ATENDIMENTO AS PROMOTORIAS DE JUSTICA 0,00 0,00 4.872,71 0,00 0,00 0,00 0,00 2.583,00 7.455,71 777,91 774,02 0,00 0,00 1.551,93 5.903,78 31/03/2024
758 424800 DENIS APARECIDO CAMPOS DELFINO ANALISTA DO MP LUZ - COMARCA; LUZ-PJ-UNPJ 18.130,77 5.439,23 0,00 0,00 0,00 0,00 0,00 8.239,80 31.809,80 3.544,02 4.402,60 0,00 0,00 7.946,62 23.863,18 31/03/2024
759 381400 DENISE ANGELICA MELLO DE PAULA OFICIAL DO MP BELO HORIZONTE - COMARCA; BH-18PJ DIREITOS HUMANOS-SECRETARIA 12.343,61 3.703,08 4.346,47 0,00 0,00 0,00 0,00 3.729,58 24.122,74 2.340,29 4.068,54 0,00 0,00 6.408,83 17.713,91 31/03/2024
760 196300 DENISE DE ALMEIDA VILELA FURTADO OFICIAL DO MP BELO HORIZONTE - COMARCA; CENTRAL DE APOIO TECNICO-SECRETARIA 21.346,53 8.538,61 0,00 0,00 0,00 0,00 0,00 10.279,90 40.165,04 4.554,44 6.069,94 0,00 0,00 10.624,38 29.540,66 31/03/2024
761 271100 DENISE ELOY PEIXOTO OFICIAL DO MP BELO HORIZONTE - COMARCA; DIRETORIA DE INTELIGENCIA 18.130,77 7.252,31 5.538,92 0,00 0,00 0,00 0,00 8.767,40 39.689,40 3.834,11 6.553,17 0,00 0,00 10.387,28 29.302,12 31/03/2024
762 385400 DENISE FREITAS DE ASSIS OFICIAL DO MP CARATINGA - COMARCA; CARATINGA-PJ-SECRETARIA 12.343,61 3.703,08 3.004,68 0,00 0,00 0,00 0,00 2.583,00 21.634,37 2.340,29 3.699,55 0,00 0,00 6.039,84 15.594,53 31/03/2024
763 437100 DENISE NOGUEIRA MAGRI MENDES ANALISTA DO MP BELO HORIZONTE - COMARCA; LAB TECNOLOGIA CONTRA LAVAGEM DINHEIRO 18.720,84 7.488,34 0,00 0,00 0,00 0,00 0,00 2.583,00 28.792,18 3.966,29 5.116,52 0,00 0,00 9.082,81 19.709,37 31/03/2024
764 524700 DENISE RAMOS GUIMARAES OFICIAL DO MP BELO HORIZONTE - COMARCA; BH-07PJ 01 TRIBUNAL JURI-SECRETARIA 7.506,70 1.501,34 0,00 0,00 0,00 0,00 0,00 2.583,00 11.591,04 1.214,11 1.247,33 0,00 0,00 2.461,44 9.129,60 31/03/2024
765 239100 DENISE RIBEIRO DOS SANTOS CAETANO OFICIAL DO MP ITANHANDU - COMARCA; ITANHANDU-PJ-SECRETARIA 18.130,77 7.252,31 0,00 0,00 0,00 0,00 0,00 8.674,94 34.058,02 3.834,11 4.977,83 0,00 0,00 8.811,94 25.246,08 31/03/2024
766 325500 DENISE ROSA TORRES OFICIAL DO MP BELO HORIZONTE - COMARCA; DIRETORIA DE PESSOAL ADMINISTRATIVO - DPAD 14.960,00 4.488,00 0,00 0,00 0,00 0,00 0,00 8.806,36 28.254,36 2.884,50 3.658,96 0,00 0,00 6.543,46 21.710,90 31/03/2024
767 437200 DENISE VIVIANE DOS SANTOS ANALISTA DO MP BELO HORIZONTE - COMARCA; CGMP-DIR ESTAGIO PROBATORIO E ORIENT 15.949,86 3.189,97 0,00 0,00 0,00 0,00 140,36 5.834,06 25.114,25 2.835,19 3.535,64 0,00 0,00 6.370,83 18.743,42 31/03/2024
768 267900 DENISIA ALMEIDA SALES OFICIAL DO MP BELO HORIZONTE - COMARCA; BH-18PJ DIREITOS HUMANOS-SECRETARIA 12.343,61 4.937,44 0,00 0,00 0,00 0,00 0,00 7.421,69 24.702,74 2.537,79 3.106,26 0,00 0,00 5.644,05 19.058,69 31/03/2024
769 755500 DENNER GUEDES NEIVA ASSESSOR PROMOTOR JUSTICA NOVO CRUZEIRO - COMARCA; NOVO CRUZEIRO-PJ-UNPJ 0,00 0,00 8.810,89 0,00 0,00 0,00 0,00 2.583,00 11.393,89 908,85 1.821,01 0,00 0,00 2.729,86 8.664,03 31/03/2024
770 355300 DEYSE CRISTINA MORAIS OFICIAL DO MP PASSOS - COMARCA; PASSOS-PJ-02PJ 12.343,61 3.703,08 0,00 0,00 0,00 0,00 0,00 7.076,07 23.122,76 2.340,29 2.873,26 0,00 0,00 5.213,55 17.909,21 31/03/2024
771 523700 DIANA CAMPOS RESENDE OFICIAL DO MP SÃO JOÃO DEL REI - COMARCA; SAO JOAO DEL REI-PJ-04PJ 10.516,49 7.361,54 0,00 0,00 0,00 0,00 0,00 2.583,00 20.461,03 2.633,31 3.244,16 0,00 0,00 5.877,47 14.583,56 31/03/2024
772 241900 DIANA CARDOSO MARTINS OFICIAL DO MP BELO HORIZONTE - COMARCA; CAO-DH CONT EXT ATIV POLIC E AP COMUNIT 12.343,61 4.937,44 0,00 0,00 0,00 0,00 0,00 2.583,00 19.864,05 2.537,79 3.158,40 0,00 0,00 5.696,19 14.167,86 31/03/2024
773 410100 DIANA GORDILHO SILVEIRA SENA ANALISTA DO MP BELO HORIZONTE - COMARCA; BH-14PJ DEFESA CONSUMIDOR-GAB 112PJ 18.720,84 5.616,25 0,00 0,00 0,00 0,00 0,00 8.423,90 32.760,99 3.666,76 4.788,34 0,00 0,00 8.455,10 24.305,89 31/03/2024
774 553000 DIANA MARIA MARQUES ANALISTA DO MP BETIM - COMARCA; BETIM-PJ-07PJ 12.343,61 2.468,72 0,00 0,00 0,00 0,00 0,00 2.583,00 17.395,33 2.142,79 2.535,99 0,00 0,00 4.678,78 12.716,55 31/03/2024
775 520000 DIARLE TOSTE DOS SANTOS ANALISTA DO MP MERCÊS - COMARCA; MERCES-PJ-UNPJ 12.343,61 2.468,72 0,00 0,00 0,00 0,00 0,00 5.545,47 20.357,80 2.142,79 1.811,52 0,00 0,00 3.954,31 16.403,49 31/03/2024
776 539800 DIEGO CAMARGOS RODRIGUES OFICIAL DO MP CONTAGEM - COMARCA; CONTAGEM-PJ-05PJ 7.506,70 1.501,34 0,00 0,00 0,00 0,00 0,00 2.583,00 11.591,04 1.214,11 1.247,33 0,00 0,00 2.461,44 9.129,60 31/03/2024
777 607300 DIEGO CERVEIRA DE SOUZA ANALISTA DO MP PATOS DE MINAS - COMARCA; COORD REG BACIAS PARACATU,URUCUIA E ABAETE 12.343,61 2.468,72 0,00 0,00 0,00 0,00 0,00 5.545,47 20.357,80 1.018,60 2.752,36 0,00 0,00 3.770,96 16.586,84 31/03/2024
778 446900 DIEGO DE FREITAS OFICIAL DO MP UBERABA - COMARCA; UBERABA-PJ-06PJ 11.577,56 2.315,51 0,00 0,00 0,00 0,00 0,00 4.250,17 18.143,24 1.995,71 2.375,77 0,00 0,00 4.371,48 13.771,76 31/03/2024
779 288800 DILENE NEPOMUCENO ALVES OFICIAL DO MP BELO HORIZONTE - COMARCA; DIRETORIA DE PESSOAL ADMINISTRATIVO - DPAD 12.343,61 4.937,44 0,00 0,00 0,00 0,00 0,00 7.421,69 24.702,74 2.537,79 3.158,40 0,00 0,00 5.696,19 19.006,55 31/03/2024
780 270101 DILSON DO AMARAL ANALISTA DO MP RIO CASCA - COMARCA; RIO CASCA-PJ-UNPJ 12.343,61 3.703,08 0,00 0,00 0,00 0,00 0,00 2.583,00 18.629,69 2.340,29 2.873,26 0,00 0,00 5.213,55 13.416,14 31/03/2024
781 466000 DIMITRI GUDE MARCIAL ANALISTA DO MP NANUQUE - COMARCA; NANUQUE-PJ-02PJ 12.343,61 2.468,72 0,00 0,00 0,00 0,00 0,00 7.838,63 22.650,96 2.142,79 2.431,71 0,00 0,00 4.574,50 18.076,46 31/03/2024
782 516300 DINORA APARECIDA MACEDO BRANDAO ANALISTA DO MP BELO HORIZONTE - COMARCA; BH-19PJ SAUDE-SECRETARIA 150PJ 12.343,61 2.468,72 0,00 0,00 0,00 0,00 0,00 5.545,47 20.357,80 2.142,79 2.588,12 0,00 0,00 4.730,91 15.626,89 31/03/2024
783 511700 DIOGENES HENRIQUES PEREIRA LOURENCO ANALISTA DO MP BELO HORIZONTE - COMARCA; BH-03PJ EMPRESARIAL-SECRETARIA 12.343,61 2.468,72 0,00 0,00 0,00 0,00 0,00 6.692,05 21.504,38 1.018,60 2.752,36 0,00 0,00 3.770,96 17.733,42 31/03/2024
784 604100 DIOGO CESAR DE OLIVEIRA HONORIO ASSESSOR ADMINISTRATIVO III PIUMHI - COMARCA; PIUMHI-PJ-02PJ 0,00 0,00 10.858,90 0,00 0,00 0,00 557,42 8.663,98 20.080,30 908,85 2.384,21 0,00 0,00 3.293,06 16.787,24 31/03/2024
785 259600 DIOGO MESQUITA MAIA ANALISTA DO MP BELO HORIZONTE - COMARCA; DIRET DE APOIO AS PROCURADORIAS DE JUSTICA 23.070,31 20.763,28 0,00 0,00 0,00 6.127,65 504,29 8.084,44 58.549,97 6.127,65 9.974,23 4.115,90 0,00 20.217,78 38.332,19 31/03/2024
786 386700 DIRCIMAR FERNANDES CARNEIRO OFICIAL DO MP BELO HORIZONTE - COMARCA; BH-16PJ HABITACAO URBANISMO-GAB 117PJ 12.343,61 9.874,89 0,00 0,00 0,00 0,00 0,00 8.804,18 31.022,68 3.327,78 4.298,95 0,00 0,00 7.626,73 23.395,95 31/03/2024
787 216700 DOMICIO VALDETE PEREIRA OFICIAL DO MP TEÓFILO OTONI - COMARCA; COORD REG PJ DEF EDU DIR CRIAN ADOL JEQUI MUC 21.346,53 8.538,61 0,00 0,00 0,00 0,00 0,00 8.560,03 38.445,17 4.554,44 5.965,67 0,00 0,00 10.520,11 27.925,06 31/03/2024
788 192701 DONIZETTI APARECIDO AMORIM ANALISTA DO MP PRATÁPOLIS - COMARCA; PRATAPOLIS-PJ-UNPJ 12.273,66 4.937,44 0,00 0,00 0,00 0,00 0,00 2.583,00 19.794,10 2.537,79 3.087,02 0,00 0,00 5.624,81 14.169,29 31/03/2024
789 558700 DORCILIA FATIMA DE OLIVEIRA OFICIAL DO MP DIVINÓPOLIS - COMARCA; DIVINOPOLIS-PJ-02PJ 7.506,70 1.501,34 0,00 0,00 0,00 1.214,11 0,00 2.583,00 12.805,15 1.214,11 1.529,07 0,00 0,00 2.743,18 10.061,97 31/03/2024
790 555300 DOUGLAS CUNHA DE SOUZA ANALISTA DO MP VARZEA DA PALMA - COMARCA; VARZEA DA PALMA-PJ-01PJ 12.343,61 2.468,72 0,00 0,00 0,00 0,00 0,00 6.692,05 21.504,38 1.018,60 2.752,36 0,00 0,00 3.770,96 17.733,42 31/03/2024
791 265900 DOUGLAS GOMES MOREIRA ANALISTA DO MP BELO HORIZONTE - COMARCA; CENTRAL DE APOIO TECNICO-SETOR DE ENGENHARIA 23.070,31 9.228,12 0,00 0,00 0,00 0,00 0,00 2.583,00 34.881,43 4.940,57 6.627,41 0,00 0,00 11.567,98 23.313,45 31/03/2024
792 241000 DOUGLAS MEIRELLES DE CASTRO OFICIAL DO MP CONCEIÇÃO DO RIO VERDE - COMARCA; CONCEICAO DO RIO VERDE-PJ-UNPJ 18.130,77 9.065,39 0,00 0,00 0,00 0,00 0,00 8.022,23 35.218,39 4.124,21 5.396,65 0,00 0,00 9.520,86 25.697,53 31/03/2024
793 534900 DOUGLAS SILVA E SOUZA ANALISTA DO MP CAMPOS GERAIS - COMARCA; CAMPOS GERAIS-PJ-02PJ 12.343,61 2.468,72 0,00 0,00 0,00 0,00 0,00 5.545,47 20.357,80 1.018,60 2.700,22 0,00 0,00 3.718,82 16.638,98 31/03/2024
794 638900 DOUGLAS WALLAS CONCEICAO NEVES OFICIAL DO MP RIBEIRÃO DAS NEVES - COMARCA; RIBEIRAO DAS NEVES-PJ-03PJ 6.818,83 681,88 0,00 0,00 0,00 0,00 0,00 2.583,00 10.083,71 974,36 898,75 0,00 0,00 1.873,11 8.210,60 31/03/2024
795 146800 DUCINALVA AMARAL LOPES REIS OFICIAL DO MP PARAISÓPOLIS - COMARCA; PARAISOPOLIS-PJ-UNPJ 23.070,31 18.456,25 0,00 0,00 0,00 6.127,65 0,00 8.084,45 55.738,66 6.127,65 9.922,09 1.808,87 0,00 17.858,61 37.880,05 31/03/2024
796 122500 DUILIO CARLOS FERREIRA UTSCH OFICIAL DO MP CONCEIÇÃO DO MATO DENTRO - COMARCA; CONCEICAO DO MATO DENTRO-PJ-UNPJ 21.346,53 19.211,88 0,00 0,00 0,00 6.127,65 0,00 2.583,00 49.269,06 6.127,65 10.026,36 840,72 0,00 16.994,73 32.274,33 31/03/2024
797 201800 DULCINEIA ANDRE DE SOUZA OFICIAL DO MP JEQUITINHONHA - COMARCA; JEQUITINHONHA-PJ-SECRETARIA 21.346,53 8.538,61 0,00 0,00 0,00 0,00 0,00 2.583,00 32.468,14 4.554,44 5.913,53 0,00 0,00 10.467,97 22.000,17 31/03/2024
798 395800 DUVIDIER MEDIRCIO JUNIOR ANALISTA DO MP BELO HORIZONTE - COMARCA; CAO-PATRIMONIO PUBLICO 20.533,67 6.160,10 0,00 0,00 0,00 0,00 0,00 2.583,00 29.276,77 4.043,82 5.332,74 0,00 0,00 9.376,56 19.900,21 31/03/2024
799 604800 ECIA RAMILIS ISSA DE ABREU ANALISTA DO MP BRASÍLIA DE MINAS - COMARCA; BRASILIA DE MINAS-PJ-01PJ 12.343,61 2.468,72 0,00 0,00 0,00 0,00 543,12 9.654,51 25.009,96 2.142,79 2.588,12 0,00 0,00 4.730,91 20.279,05 31/03/2024
800 273000 EDELFINA APARECIDA GUIMARAES OFICIAL DO MP CACHOEIRA DE MINAS - COMARCA; CACHOEIRA DE MINAS-PJ-UNPJ 14.960,00 11.968,00 0,00 0,00 0,00 0,00 0,00 2.583,00 29.511,00 4.081,30 5.334,71 0,00 0,00 9.416,01 20.094,99 31/03/2024
801 523300 EDER DOS SANTOS PATRICIO ANALISTA DO MP NOVA SERRANA - COMARCA; NOVA SERRANA-PJ-03PJ 12.343,61 2.468,72 0,00 0,00 0,00 0,00 0,00 6.692,05 21.504,38 1.018,60 2.700,22 0,00 0,00 3.718,82 17.785,56 31/03/2024
802 356700 EDER JOSE PACHECO OFICIAL DO MP CAMPO BELO - COMARCA; CAMPO BELO-PJ-04PJ 12.343,61 3.703,08 0,00 0,00 0,00 0,00 4.960,64 7.572,14 28.579,47 2.340,29 4.185,30 0,00 0,00 6.525,59 22.053,88 31/03/2024
803 507900 EDERSON SILVA LOPES OFICIAL DO MP BELO HORIZONTE - COMARCA; LABORATORIO TECNOLOGIA INTELIGENCIA 10.015,59 2.003,12 0,00 0,00 0,00 0,00 0,00 2.583,00 14.601,71 1.695,82 1.838,52 0,00 0,00 3.534,34 11.067,37 31/03/2024
804 296200 EDGARD GOULART MATOSINHO DE LAET JR ANALISTA DO MP GOVERNADOR VALADARES - COMARCA; GOVERNADOR VALADARES-PJ-12PJ 23.070,31 9.228,12 0,00 0,00 0,00 0,00 2.307,03 8.673,57 43.279,03 5.309,70 7.056,06 0,00 0,00 12.365,76 30.913,27 31/03/2024
805 332300 EDILA MARILAC MIRANDA PRADO OFICIAL DO MP DIAMANTINA - COMARCA; DIAMANTINA-PJ-01PJ 12.343,61 8.640,53 0,00 0,00 0,00 0,00 0,00 8.458,56 29.442,70 3.130,28 3.909,54 0,00 0,00 7.039,82 22.402,88 31/03/2024
806 376600 EDILANE CONSOLACAO ROSA NAZARETH ANALISTA DO MP BETIM - COMARCA; BETIM-PJ-10PJ 20.533,67 6.160,10 0,00 0,00 0,00 0,00 0,00 2.583,00 29.276,77 1.018,60 5.774,70 0,00 0,00 6.793,30 22.483,47 31/03/2024
807 309800 EDILZA DOS REIS OFICIAL DO MP UBERLÂNDIA - COMARCA; UBERLANDIA-PJ-03PJ 12.343,61 3.703,08 0,00 0,00 0,00 0,00 0,00 7.076,07 23.122,76 2.340,29 2.821,12 0,00 0,00 5.161,41 17.961,35 31/03/2024
808 200500 EDINEIA MARIA DE OLIVEIRA ANTUNES OFICIAL DO MP MONTES CLAROS - COMARCA; MONTES CLAROS-PJ-10PJ 21.346,53 10.673,27 0,00 0,00 0,00 0,00 469,62 7.706,17 40.195,59 4.895,99 6.563,05 0,00 0,00 11.459,04 28.736,55 31/03/2024
809 427700 EDISANGELA SOARES LOPES OFICIAL DO MP PIRAPORA - COMARCA; PIRAPORA-PJ-02PJ 7.506,70 2.252,01 0,00 0,00 0,00 0,00 750,67 2.583,00 13.092,38 1.454,32 1.594,14 0,00 0,00 3.048,46 10.043,92 31/03/2024
810 555400 EDISON MONTEIRO SAMPAIO NETO ANALISTA DO MP BELO HORIZONTE - COMARCA; BH-12PJ JUIZO CRIMINAL-GAB 098PJ 12.343,61 2.468,72 0,00 0,00 0,00 0,00 0,00 5.545,47 20.357,80 2.142,79 2.588,12 0,00 0,00 4.730,91 15.626,89 31/03/2024
811 517700 EDMILSON TADEU FERNANDES OFICIAL DO MP POUSO ALEGRE - COMARCA; GAECO REGIONAL DE POUSO ALEGRE 9.699,77 1.939,95 0,00 0,00 0,00 0,00 0,00 3.729,58 15.369,30 1.635,18 1.855,25 0,00 0,00 3.490,43 11.878,87 31/03/2024
812 358400 EDNA APARECIDA SILVA FERREIRA OFICIAL DO MP CORONEL FABRICIANO - COMARCA; CORONEL FABRICIANO-PJ-02PJ 14.960,00 4.488,00 0,00 0,00 0,00 0,00 0,00 8.806,36 28.254,36 2.884,50 3.606,83 0,00 0,00 6.491,33 21.763,03 31/03/2024
813 331800 EDNA MARCIA CAMILO DA SILVA OFICIAL DO MP SETE LAGOAS - COMARCA; SETE LAGOAS-PJ-SEC CRIMINAIS 12.343,61 3.703,08 0,00 0,00 0,00 0,00 0,00 2.583,00 18.629,69 2.340,29 2.821,12 0,00 0,00 5.161,41 13.468,28 31/03/2024
814 327900 EDRIEL SANTANA PEREIRA OFICIAL DO MP TUPACIGUARA - COMARCA; TUPACIGUARA-PJ-02PJ 12.343,61 3.703,08 0,00 0,00 0,00 0,00 0,00 8.299,72 24.346,41 2.340,29 2.873,26 0,00 0,00 5.213,55 19.132,86 31/03/2024
815 482400 EDSON GARCIA OFICIAL DO MP MACHADO - COMARCA; MACHADO-PJ-02PJ 7.506,70 1.501,34 0,00 0,00 0,00 0,00 0,00 2.583,00 11.591,04 1.214,11 1.143,06 0,00 0,00 2.357,17 9.233,87 31/03/2024
816 225601 EDSON LABRE FILHO ANALISTA DO MP VARGINHA - COMARCA; VARGINHA-PJ-01PJ 23.070,31 9.228,12 0,00 0,00 0,00 0,00 0,00 7.750,75 40.049,18 4.940,57 6.575,27 0,00 0,00 11.515,84 28.533,34 31/03/2024
817 602700 EDSON NOGUEIRA BUENO OFICIAL DO MP PITANGUI - COMARCA; PITANGUI-PJ-01PJ 7.506,70 1.501,34 0,00 0,00 0,00 0,00 0,00 2.583,00 11.591,04 1.214,11 1.247,33 0,00 0,00 2.461,44 9.129,60 31/03/2024
818 716500 EDUARDA CORREA MOREIRA ASSESSOR ADMINISTRATIVO I BELO HORIZONTE - COMARCA; DIRET DE FORMACAO, APERFEIC. E POS-GRADUACAO 0,00 0,00 4.872,71 0,00 0,00 0,00 0,00 6.022,74 10.895,45 777,91 774,02 0,00 0,00 1.551,93 9.343,52 31/03/2024
819 414400 EDUARDO ABRANTES CAMPOS ANALISTA DO MP SÃO JOÃO DEL REI - COMARCA; SAO JOAO DEL REI-PJ-02PJ 18.720,84 5.616,25 0,00 0,00 0,00 0,00 0,00 8.423,90 32.760,99 3.666,76 4.788,34 0,00 0,00 8.455,10 24.305,89 31/03/2024
820 476800 EDUARDO ALVES DE MOURA ANALISTA DO MP UBERLÂNDIA - COMARCA; UBERLANDIA-PJ-01PJ 12.343,61 2.468,72 0,00 0,00 0,00 0,00 0,00 6.692,05 21.504,38 1.018,60 2.595,95 0,00 0,00 3.614,55 17.889,83 31/03/2024
821 390800 EDUARDO AMORIM PETTERSEN OFICIAL DO MP CARANGOLA - COMARCA; CARANGOLA-PJ-SECRETARIA 12.343,61 3.703,08 0,00 0,00 0,00 0,00 0,00 7.076,07 23.122,76 2.340,29 2.873,26 0,00 0,00 5.213,55 17.909,21 31/03/2024
822 461600 EDUARDO ANTONIO DE ASSIS FARIA ASSESSOR ADMINISTRATIVO III BELO HORIZONTE - COMARCA; ASSESS EXECUTIVA DO CONSELHO SUPERIOR DO MP 0,00 0,00 10.858,90 0,00 0,00 0,00 0,00 2.583,00 13.441,90 908,85 2.332,08 0,00 0,00 3.240,93 10.200,97 31/03/2024
823 248800 EDUARDO DE CASTRO AMORIM ANALISTA DO MP BELO HORIZONTE - COMARCA; SUPER DE GESTAO DE PESSOAS-LOTACAO TEMPORARIA 23.070,31 9.228,12 0,00 0,00 0,00 0,00 473,71 7.750,75 40.522,89 4.940,57 6.627,41 0,00 0,00 11.567,98 28.954,91 31/03/2024
824 209100 EDUARDO DE SOUZA MAIA ANALISTA DO MP BELO HORIZONTE - COMARCA; SUPER DE GESTAO DE PESSOAS-LOTACAO TEMPORARIA 23.070,31 9.228,12 0,00 0,00 0,00 0,00 0,00 7.750,75 40.049,18 4.940,57 6.523,14 0,00 0,00 11.463,71 28.585,47 31/03/2024
825 633900 EDUARDO GONCALVES PIRES OFICIAL DO MP BELO HORIZONTE - COMARCA; DIRETORIA DE PAGAMENTO DE PESSOAL-DPAG 9.097,81 3.639,12 0,00 0,00 0,00 0,00 0,00 2.583,00 15.319,93 1.810,73 2.108,71 0,00 0,00 3.919,44 11.400,49 31/03/2024
826 350500 EDUARDO GONCALVES RIBEIRO OFICIAL DO MP VESPASIANO - COMARCA; VESPASIANO-PJ-SECRETARIA 12.343,61 3.703,08 3.004,68 0,00 0,00 0,00 0,00 8.679,44 27.730,81 2.340,29 3.699,55 0,00 0,00 6.039,84 21.690,97 31/03/2024
827 115800 EDUARDO HENRIQUE DE CAMPOS MAIA OFICIAL DO MP BELO HORIZONTE - COMARCA; DIV FISCAL ADM CONT TERCEIRIZACAO 23.070,31 16.149,22 0,00 0,00 0,00 0,00 0,00 7.289,34 46.508,87 6.047,95 8.069,77 0,00 0,00 14.117,72 32.391,15 31/03/2024
828 392600 EDUARDO HENRIQUE DOS SANTOS COSTA ELIAZAR OFICIAL DO MP MATOZINHOS - COMARCA; MATOZINHOS-PJ-01PJ 11.212,54 3.363,76 0,00 0,00 0,00 0,00 0,00 5.498,26 20.074,56 2.105,03 2.429,32 0,00 0,00 4.534,35 15.540,21 31/03/2024
829 99101 EDUARDO JOSE DE FREITAS NUNES ASSESSOR ADMINISTRATIVO II BELO HORIZONTE - COMARCA; JUNTA RECURSAL DO PROCON ESTADUAL 0,00 3.753,35 7.506,70 0,00 0,00 0,00 0,00 2.583,00 13.843,05 908,85 2.494,53 0,00 0,00 3.403,38 10.439,67 31/03/2024
830 407500 EDUARDO MASCARENHAS CURI AZEVEDO ANALISTA DO MP BELO HORIZONTE - COMARCA; DIR CONTEUDO JORNALISTICO 12.343,61 3.703,08 0,00 0,00 0,00 0,00 0,00 3.729,58 19.776,27 2.340,29 2.873,26 0,00 0,00 5.213,55 14.562,72 31/03/2024
831 754700 EDUARDO NOBRE LEITE OFICIAL DO MP MANGA - COMARCA; MANGA-PJ-02PJ 4.570,25 0,00 0,00 0,00 0,00 0,00 0,00 2.888,56 7.458,81 544,12 238,46 0,00 0,00 782,58 6.676,23 31/03/2024
832 752000 EDUARDO SOUZA PRADO JUNIOR OFICIAL DO MP ITAMONTE - COMARCA; ITAMONTE-PJ-UNPJ 4.570,25 0,00 0,00 0,00 0,00 0,00 0,00 2.583,00 7.153,25 544,12 238,46 0,00 0,00 782,58 6.370,67 31/03/2024
833 257600 EDUARDO VALADARES CABRAL ANALISTA DO MP BELO HORIZONTE - COMARCA; CAO APOIO COMUNIT INCLUSAO E MOB SOCIAIS 23.070,31 9.228,12 0,00 0,00 0,00 0,00 0,00 2.583,00 34.881,43 4.940,57 6.627,41 0,00 0,00 11.567,98 23.313,45 31/03/2024
834 746800 EDUARDO XAVIER ARAUJO OFICIAL DO MP RIBEIRÃO DAS NEVES - COMARCA; RIBEIRAO DAS NEVES-PJ-02PJ 4.570,25 0,00 0,00 0,00 0,00 0,00 0,00 2.583,00 7.153,25 544,12 238,46 0,00 0,00 782,58 6.370,67 31/03/2024
835 545700 EDVAIR FERREIRA DE CARVALHO OFICIAL DO MP ARAGUARI - COMARCA; ARAGUARI-PJ-06PJ 7.506,70 1.501,34 0,00 0,00 0,00 0,00 0,00 2.583,00 11.591,04 1.214,11 1.195,19 0,00 0,00 2.409,30 9.181,74 31/03/2024
836 401700 EDWANIA AMORIM DO CARMO OFICIAL DO MP BELO HORIZONTE - COMARCA; BH-12PJ JUIZO CRIMINAL-SECRETARIA 12.343,61 3.703,08 0,00 0,00 0,00 0,00 0,00 7.076,07 23.122,76 2.340,29 2.873,26 0,00 0,00 5.213,55 17.909,21 31/03/2024
837 303600 EFIGENIO SARAIVA LOPES ANALISTA DO MP BELO HORIZONTE - COMARCA; DIRETORIA DE PAGAMENTO DE PESSOAL-DPAG 23.070,31 6.921,09 5.538,92 0,00 0,00 0,00 0,00 2.583,00 38.113,32 4.571,45 7.513,41 0,00 0,00 12.084,86 26.028,46 31/03/2024
838 286000 ELAINE APARECIDA SILVA BERZOINI OFICIAL DO MP JUIZ DE FORA - COMARCA; JUIZ DE FORA-PJ-07PJ 12.343,61 4.937,44 0,00 0,00 0,00 0,00 0,00 2.583,00 19.864,05 2.537,79 3.158,40 0,00 0,00 5.696,19 14.167,86 31/03/2024
839 509000 ELAINE CANDIDA PONTES OFICIAL DO MP BELO HORIZONTE - COMARCA; BH-02PJ FAMILIA-SECRETARIA 10.516,49 2.103,30 0,00 0,00 0,00 0,00 0,00 2.583,00 15.202,79 1.791,99 2.081,65 0,00 0,00 3.873,64 11.329,15 31/03/2024
840 283601 ELAINE CRISTINA MEQUELINO DUARTE ANALISTA DO MP ALFENAS - COMARCA; ALFENAS-PJ-02PJ 20.533,67 7.392,12 0,00 0,00 0,00 0,00 0,00 8.168,16 36.093,95 4.240,95 5.513,06 0,00 0,00 9.754,01 26.339,94 31/03/2024
841 535500 ELAINE DE OLIVEIRA CAMPOS REIS OFICIAL DO MP SANTA LUZIA - COMARCA; SANTA LUZIA-PJ-07PJ 7.506,70 1.501,34 0,00 0,00 0,00 0,00 0,00 2.583,00 11.591,04 1.214,11 1.247,33 0,00 0,00 2.461,44 9.129,60 31/03/2024
842 455700 ELAINE DE OLIVEIRA CASTRO ANALISTA DO MP POMPÉU - COMARCA; POMPEU-PJ-UNPJ 12.343,61 2.468,72 0,00 0,00 0,00 0,00 0,00 3.729,58 18.541,91 2.142,79 2.483,85 0,00 0,00 4.626,64 13.915,27 31/03/2024
843 367200 ELAINE MUNIZ BARBOSA ANALISTA DO MP BELO HORIZONTE - COMARCA; DIRETORIA DE SISTEMAS DE INFORMACAO 21.346,53 6.403,96 0,00 0,00 0,00 0,00 0,00 3.729,58 31.480,07 4.212,90 5.524,70 0,00 0,00 9.737,60 21.742,47 31/03/2024
844 679200 ELAINE RIBEIRO CHAVES ASSESSOR PROCURADOR JUSTICA BELO HORIZONTE - COMARCA; GABINETE DE PROCURADOR DE JUSTIÇA - SALA 614 0,00 0,00 8.810,89 0,00 0,00 0,00 0,00 2.583,00 11.393,89 908,85 1.768,87 0,00 0,00 2.677,72 8.716,17 31/03/2024
845 176900 ELAINE RIBEIRO TAVEIRA OFICIAL DO MP BELO HORIZONTE - COMARCA; DIVISAO FROTA 18.720,84 9.360,42 0,00 0,00 0,00 0,00 0,00 8.199,25 36.280,51 4.265,82 5.653,25 0,00 0,00 9.919,07 26.361,44 31/03/2024
846 496200 ELAINE SABRINA MOREIRA SCHUWARTEN ANALISTA DO MP CORONEL FABRICIANO - COMARCA; CORONEL FABRICIANO-PJ-06PJ 14.960,00 2.992,00 0,00 0,00 0,00 0,00 0,00 2.583,00 20.535,00 2.645,14 3.313,39 0,00 0,00 5.958,53 14.576,47 31/03/2024
847 489200 ELAINE VICENTINO ANALISTA DO MP BELO HORIZONTE - COMARCA; CENTRAL DE APOIO TECNICO-SETOR CONTABIL 12.343,61 4.937,44 0,00 0,00 0,00 0,00 0,00 2.583,00 19.864,05 2.537,79 3.054,12 0,00 0,00 5.591,91 14.272,14 31/03/2024
848 731400 ELBERT MENDES PINHEIRO ASSESSOR PROMOTOR JUSTICA BELO HORIZONTE - COMARCA; COORD ESTADUAL DAS PJS DE HAB. E URBANISMO 0,00 0,00 8.810,89 0,00 0,00 0,00 549,21 8.574,41 17.934,51 908,85 1.821,01 0,00 0,00 2.729,86 15.204,65 31/03/2024
849 244500 ELCI ALVES DE SOUZA ASSESSOR ADMINISTRATIVO II BELO HORIZONTE - COMARCA; CAO-CONFLITOS AGRARIOS-SECRETARIA 0,00 3.002,68 7.506,70 0,00 0,00 0,00 0,00 2.583,00 13.092,38 908,85 2.235,96 0,00 0,00 3.144,81 9.947,57 31/03/2024
850 472500 ELCI VAZ DE OLIVEIRA FILHO ANALISTA DO MP PIUMHI - COMARCA; PIUMHI-PJ-02PJ 12.343,61 8.640,53 0,00 0,00 0,00 0,00 0,00 2.583,00 23.567,14 3.130,28 4.013,81 0,00 0,00 7.144,09 16.423,05 31/03/2024
851 385200 ELCI VIANA REIS OFICIAL DO MP RIO PARDO DE MINAS - COMARCA; RIO PARDO DE MINAS-PJ-SECRETARIA 12.343,61 6.171,81 0,00 0,00 0,00 0,00 0,00 8.507,93 27.023,35 2.735,29 3.443,54 0,00 0,00 6.178,83 20.844,52 31/03/2024
852 289801 ELCIO JOSE DOS SANTOS ANALISTA DO MP BELO HORIZONTE - COMARCA; DIVISAO DE TERCEIRIZACAO 12.343,61 3.703,08 5.538,92 0,00 0,00 0,00 0,00 2.583,00 24.168,61 2.340,29 4.396,46 0,00 0,00 6.736,75 17.431,86 31/03/2024
853 319600 ELEN TULER DE ALBERGARIA ANALISTA DO MP BELO HORIZONTE - COMARCA; BH-19PJ SAUDE-SECRETARIA 130PJ 23.070,31 11.535,16 0,00 0,00 0,00 0,00 0,00 8.119,88 42.725,35 5.309,70 7.160,34 0,00 0,00 12.470,04 30.255,31 31/03/2024
854 205500 ELIANA ALVES DE SOUSA OFICIAL DO MP GOVERNADOR VALADARES - COMARCA; GOVERNADOR VALADARES-PJ-07PJ 12.343,61 4.937,44 0,00 0,00 0,00 0,00 0,00 2.583,00 19.864,05 2.537,79 3.158,40 0,00 0,00 5.696,19 14.167,86 31/03/2024
855 628800 ELIANA APARECIDA PEREIRA ANALISTA DO MP EXTREMA - COMARCA; EXTREMA-PJ-01PJ 11.577,56 1.157,76 0,00 0,00 0,00 0,00 0,00 2.583,00 15.318,32 1.810,47 2.056,20 0,00 0,00 3.866,67 11.451,65 31/03/2024
856 301700 ELIANA DA SILVEIRA ANALISTA DO MP BELO HORIZONTE - COMARCA; BH-11PJ COMB CRIME ORGANIZ-GAB 081PJ 22.191,68 6.657,50 0,00 0,00 0,00 0,00 0,00 2.583,00 31.432,18 4.388,69 5.830,63 0,00 0,00 10.219,32 21.212,86 31/03/2024
857 251500 ELIANA DE LIMA MILAGRES FONSECA ANALISTA DO MP CONTAGEM - COMARCA; CONTAGEM-PJ-16PJ 23.070,31 9.228,12 0,00 0,00 0,00 0,00 0,00 7.750,75 40.049,18 4.940,57 6.575,27 0,00 0,00 11.515,84 28.533,34 31/03/2024
858 503900 ELIANA DIAS DUTRA FERREIRA OFICIAL DO MP BELO HORIZONTE - COMARCA; DIRETORIA DE CONTABILIDADE 10.858,90 2.171,78 0,00 0,00 0,00 0,00 573,35 8.837,73 22.441,76 1.857,73 2.124,42 0,00 0,00 3.982,15 18.459,61 31/03/2024
859 413900 ELIANA PINTO DE OLIVEIRA NEVES ANALISTA DO MP CAMPO BELO - COMARCA; CAMPO BELO-PJ-04PJ 18.130,77 5.439,23 0,00 0,00 0,00 0,00 0,00 8.239,80 31.809,80 3.544,02 4.611,14 0,00 0,00 8.155,16 23.654,64 31/03/2024
860 228200 ELIANA RODRIGUES DA CUNHA PINHEIRO OFICIAL DO MP BELO HORIZONTE - COMARCA; DIRETORIA DE PROJETOS DE EDIFICACOES 18.130,77 7.252,31 0,00 0,00 0,00 3.834,11 0,00 8.426,45 37.643,64 3.834,11 6.084,35 0,00 0,00 9.918,46 27.725,18 31/03/2024
861 386600 ELIANA SABINO CHAVES PESSOA ANALISTA DO MP CARATINGA - COMARCA; CARATINGA-PJ-06PJ 18.130,77 14.504,62 0,00 0,00 0,00 4.994,48 0,00 8.603,78 46.233,65 4.994,48 8.026,60 0,00 0,00 13.021,08 33.212,57 31/03/2024
862 677500 ELIANA SILVA ANDRADE ASSESSOR PROMOTOR JUSTICA TRÊS CORACOES - COMARCA; TRES CORACOES-PJ-06PJ 0,00 0,00 8.810,89 0,00 0,00 0,00 0,00 2.583,00 11.393,89 908,85 1.821,01 0,00 0,00 2.729,86 8.664,03 31/03/2024
863 297400 ELIANE AUGUSTA RIBEIRO COSTA ANALISTA DO MP CONSELHEIRO LAFAIETE - COMARCA; CONSELHEIRO LAFAIETE-PJ-05PJ 23.070,31 9.228,12 0,00 0,00 0,00 0,00 2.307,03 3.505,82 38.111,28 5.309,70 7.056,06 0,00 0,00 12.365,76 25.745,52 31/03/2024
864 510600 ELIANE CAROLINA MAIA ANALISTA DO MP IGARAPÉ - COMARCA; IGARAPE-PJ-03PJ 12.343,61 3.703,08 0,00 0,00 0,00 0,00 0,00 7.076,07 23.122,76 2.340,29 2.768,99 0,00 0,00 5.109,28 18.013,48 31/03/2024
865 262600 ELIANE FERREIRA SOARES ASSESSOR ADMINISTRATIVO II BELO HORIZONTE - COMARCA; BH-18PJ DIREITOS HUMANOS-SECRETARIA 0,00 3.753,35 7.506,70 0,00 0,00 0,00 0,00 2.583,00 13.843,05 908,85 2.494,53 0,00 0,00 3.403,38 10.439,67 31/03/2024
866 204400 ELIANE GLAUCE DE QUEIROS MAIA OFICIAL DO MP GUANHÃES - COMARCA; GUANHAES-PJ-02PJ 21.346,53 8.538,61 0,00 0,00 0,00 0,00 0,00 2.583,00 32.468,14 4.554,44 6.069,94 0,00 0,00 10.624,38 21.843,76 31/03/2024
867 91800 ELIANE KAPLER ALVES OFICIAL DO MP BELO HORIZONTE - COMARCA; DIVISAO DE CONTROLE IMOBILIARIO 23.070,31 16.149,22 0,00 0,00 0,00 6.047,95 0,00 8.015,10 53.282,58 6.047,95 9.785,10 0,00 0,00 15.833,05 37.449,53 31/03/2024
868 334200 ELIANE MARCIA DE OLIVEIRA BRITO OFICIAL DO MP BELO HORIZONTE - COMARCA; BH-08PJ JUIZADO ESPECIAL-SECRETARIA 7.506,70 2.252,01 0,00 0,00 0,00 0,00 0,00 2.583,00 12.341,71 1.334,22 1.420,73 0,00 0,00 2.754,95 9.586,76 31/03/2024
869 365900 ELIANE MARIA DE OLIVEIRA FERREIRA OFICIAL DO MP SETE LAGOAS - COMARCA; SETE LAGOAS-PJ-SEC CRIMINAIS 12.343,61 8.640,53 0,00 0,00 0,00 0,00 0,00 2.583,00 23.567,14 3.130,28 4.013,81 0,00 0,00 7.144,09 16.423,05 31/03/2024
870 320600 ELIANE STADLER DE SOUZA OFICIAL DO MP MONTES CLAROS - COMARCA; MONTES CLAROS-PJ-13PJ 11.954,43 3.586,33 0,00 0,00 0,00 0,00 0,00 2.583,00 18.123,76 2.259,34 2.704,25 0,00 0,00 4.963,59 13.160,17 31/03/2024
871 448900 ELIAS PEREIRA OTONI ASSESSOR ADMINISTRATIVO II BELO HORIZONTE - COMARCA; BH-18PJ DIREITOS HUMANOS-SECRETARIA 0,00 0,00 7.506,70 0,00 0,00 0,00 137,62 4.084,34 11.728,66 908,85 1.358,08 0,00 0,00 2.266,93 9.461,73 31/03/2024
872 495400 ELICA SOUZA GASPARONI MATTOS OFICIAL DO MP UBÁ - COMARCA; UBA-PJ-06PJ 10.858,90 2.171,78 0,00 0,00 0,00 0,00 0,00 3.104,23 16.134,91 1.857,73 2.176,56 0,00 0,00 4.034,29 12.100,62 31/03/2024
873 86600 ELIENE FERREIRA DA SILVA OFICIAL DO MP BELO HORIZONTE - COMARCA; BH-22PJ PES COM DEF E IDOSOS-SECRETARIA 25.920,35 20.736,29 0,00 0,00 0,00 6.127,65 0,00 8.084,45 60.868,74 6.127,65 9.869,95 6.938,95 0,00 22.936,55 37.932,19 31/03/2024
874 183800 ELIENE MARIA CUNHA OFICIAL DO MP BELO HORIZONTE - COMARCA; DIRETORIA DE PESSOAL ADMINISTRATIVO - DPAD 22.191,68 8.876,67 0,00 0,00 0,00 0,00 0,00 8.796,67 39.865,02 4.743,76 6.291,13 0,00 0,00 11.034,89 28.830,13 31/03/2024
875 172300 ELINA APARECIDA SILVA ASSESSOR ADMINISTRATIVO I BELO HORIZONTE - COMARCA; BH-19PJ SAUDE-SECRETARIA 130PJ 0,00 2.436,36 4.872,71 0,00 0,00 0,00 0,00 2.583,00 9.892,07 908,85 1.355,87 0,00 0,00 2.264,72 7.627,35 31/03/2024
876 492501 ELINE CAMPOS DA FONSECA CUNHA ANALISTA DO MP PONTE NOVA - COMARCA; PONTE NOVA-PJ-05PJ 12.343,61 2.468,72 0,00 0,00 0,00 0,00 0,00 5.545,47 20.357,80 2.142,79 2.588,12 0,00 0,00 4.730,91 15.626,89 31/03/2024
877 618900 ELISA MOURA VIEIRA MARCATTI OFICIAL DO MP BELO HORIZONTE - COMARCA; GRUPO ESP PROM JUST DEF PROB ADM PAT PUB 7.506,70 750,67 0,00 0,00 0,00 0,00 0,00 3.729,58 11.986,95 1.094,00 1.073,93 0,00 0,00 2.167,93 9.819,02 31/03/2024
878 256500 ELISABETE NOGUEIRA ANALISTA DO MP RIBEIRÃO DAS NEVES - COMARCA; RIBEIRAO NEVES-SEC PJ EXECUCAO PENAL 18.720,84 13.104,58 0,00 0,00 0,00 0,00 0,00 2.583,00 34.408,42 4.864,89 6.309,60 0,00 0,00 11.174,49 23.233,93 31/03/2024
879 355000 ELISANGELA DARLANTONI RIBEIRO OFICIAL DO MP ARAXÁ - COMARCA; ARAXA-PJ-05PJ 12.343,61 3.703,08 0,00 0,00 0,00 0,00 0,00 7.076,07 23.122,76 2.340,29 2.821,12 0,00 0,00 5.161,41 17.961,35 31/03/2024
880 604400 ELISANGELA DEMASI FERREIRA MOREIRA ANALISTA DO MP CABO VERDE - COMARCA; CABO VERDE-PJ-UNPJ 12.343,61 2.468,72 0,00 0,00 0,00 0,00 0,00 5.545,47 20.357,80 1.018,60 2.752,36 0,00 0,00 3.770,96 16.586,84 31/03/2024
881 323800 ELISANGELA GONCALVES DE JESUS OFICIAL DO MP BELO HORIZONTE - COMARCA; DIRETORIA DE PESSOAL ADMINISTRATIVO - DPAD 12.343,61 3.703,08 0,00 0,00 0,00 0,00 0,00 7.076,07 23.122,76 2.340,29 2.821,12 0,00 0,00 5.161,41 17.961,35 31/03/2024
882 507400 ELISANGELA MIGUEL DA ROCHA SILVA ASSESSOR ADMINISTRATIVO II BELO HORIZONTE - COMARCA; CGMP-DIR INSP CORR PROCED PROC DISC 0,00 0,00 7.506,70 0,00 0,00 0,00 0,00 2.583,00 10.089,70 908,85 1.410,22 0,00 0,00 2.319,07 7.770,63 31/03/2024
883 261400 ELISANGELA REZENDE MENDES OFICIAL DO MP POUSO ALEGRE - COMARCA; POUSO ALEGRE-PJ-05PJ 12.343,61 4.937,44 0,00 0,00 0,00 0,00 0,00 7.421,69 24.702,74 2.537,79 3.158,40 0,00 0,00 5.696,19 19.006,55 31/03/2024
884 534100 ELISANGELA ROSINE SILVA OFICIAL DO MP UBERABA - COMARCA; UBERABA-PJ-06PJ 7.506,70 1.501,34 0,00 0,00 0,00 0,00 0,00 2.583,00 11.591,04 1.214,11 1.247,33 0,00 0,00 2.461,44 9.129,60 31/03/2024
885 634300 ELIUDE GRACA DAMASIO ROSARIO FRANCELINO OFICIAL DO MP BELO HORIZONTE - COMARCA; BH-18PJ VIOLENCIA DOMESTICA-SECRETARIA 6.818,83 681,88 0,00 0,00 0,00 0,00 0,00 4.876,16 12.376,87 974,36 898,75 0,00 0,00 1.873,11 10.503,76 31/03/2024
886 461700 ELIZABETH ALEIXO DA PAZ ANALISTA DO MP JUIZ DE FORA - COMARCA; JUIZ DE FORA-PJ-18PJ 12.343,61 2.468,72 0,00 0,00 0,00 0,00 0,00 5.545,47 20.357,80 2.142,79 2.588,12 0,00 0,00 4.730,91 15.626,89 31/03/2024
887 227300 ELIZABETH COIMBRA FELIX OFICIAL DO MP JABOTICATUBAS - COMARCA; JABOTICATUBAS-PJ-UNPJ 18.720,84 9.360,42 0,00 0,00 0,00 0,00 0,00 8.199,25 36.280,51 4.265,82 5.548,97 0,00 0,00 9.814,79 26.465,72 31/03/2024
888 354800 ELIZABETH DOS REIS OFICIAL DO MP BELO HORIZONTE - COMARCA; DIVISAO DE MATERIAIS 12.343,61 3.703,08 0,00 0,00 0,00 0,00 0,00 2.583,00 18.629,69 2.340,29 2.821,12 0,00 0,00 5.161,41 13.468,28 31/03/2024
889 612000 ELIZABETH MARIA DE QUEIROZ TANIGUCHI OFICIAL DO MP BELO HORIZONTE - COMARCA; SUPERINTENDENCIA GESTÃO DE PESSOAS 7.506,70 1.501,34 0,00 0,00 0,00 0,00 750,67 2.583,00 12.341,71 1.334,22 1.420,73 0,00 0,00 2.754,95 9.586,76 31/03/2024
890 452800 ELIZANGELA MARIA DAVI OFICIAL DO MP ARCOS - COMARCA; ARCOS-PJ-01PJ 7.506,70 1.501,34 0,00 0,00 0,00 0,00 0,00 2.583,00 11.591,04 1.214,11 1.195,19 0,00 0,00 2.409,30 9.181,74 31/03/2024
891 496300 ELIZANGELA MARQUES PINTO COELHO OFICIAL DO MP BELO HORIZONTE - COMARCA; DIRETORIA DE PESSOAL ADMINISTRATIVO - DPAD 10.858,90 2.171,78 0,00 0,00 0,00 0,00 0,00 3.104,23 16.134,91 1.857,73 2.176,56 0,00 0,00 4.034,29 12.100,62 31/03/2024
892 422500 ELIZETE FORTES DA CUNHA ANALISTA DO MP RIBEIRÃO DAS NEVES - COMARCA; RIBEIRAO DAS NEVES-PJ-07PJ 18.720,84 5.616,25 0,00 0,00 0,00 0,00 0,00 8.423,90 32.760,99 3.666,76 4.736,20 0,00 0,00 8.402,96 24.358,03 31/03/2024
893 506100 ELLEM CRISTINA ROCHA FONSECA BOWEN ANALISTA DO MP GOVERNADOR VALADARES - COMARCA; COORD REG PJ DEF EDU DIR CRIANCA ADOL RIODOCE 12.343,61 2.468,72 0,00 0,00 0,00 0,00 0,00 3.729,58 18.541,91 2.142,79 2.588,12 0,00 0,00 4.730,91 13.811,00 31/03/2024
894 468200 ELLEN CRISTINA BERNARDES DARE ANALISTA DO MP TRÊS PONTAS - COMARCA; TRES PONTAS-PJ-02PJ 12.343,61 2.468,72 0,00 0,00 0,00 0,00 0,00 6.692,05 21.504,38 2.142,79 2.535,99 0,00 0,00 4.678,78 16.825,60 31/03/2024
895 418800 ELLEN CRISTINA DE QUEIROZ FERREIRA ANALISTA DO MP BELO HORIZONTE - COMARCA; CENTRAL DE APOIO TECNICO-SETOR CONTABIL 18.130,77 5.439,23 0,00 0,00 0,00 0,00 0,00 9.959,67 33.529,67 1.018,60 4.980,09 0,00 0,00 5.998,69 27.530,98 31/03/2024
896 328401 ELLEN CRISTINA FERREIRA MORAIS MONTEIRO ANALISTA DO MP CAMANDUCAIA - COMARCA; CAMANDUCAIA-PJ-UNPJ 17.308,84 6.527,08 0,00 0,00 0,00 0,00 0,00 2.493,09 26.329,01 3.718,08 4.532,13 0,00 0,00 8.250,21 18.078,80 31/03/2024
897 556100 ELLEN CRISTINE BIANCHIN DA SILVA OFICIAL DO MP SÃO GONÇALO DO SAPUCAÍ - COMARCA; SAO GONCALO DO SAPUCAI-PJ-02PJ 7.506,70 1.501,34 0,00 0,00 0,00 0,00 0,00 2.583,00 11.591,04 1.214,11 1.195,19 0,00 0,00 2.409,30 9.181,74 31/03/2024
898 714500 ELLEN PROENCA CARVALHO DE ARAUJO ASSESSOR PROMOTOR JUSTICA MARIANA - COMARCA; MARIANA-PJ-02PJ 0,00 0,00 8.810,89 0,00 0,00 0,00 0,00 2.583,00 11.393,89 908,85 1.821,01 0,00 0,00 2.729,86 8.664,03 31/03/2024
899 447100 ELLEN ROSANA DE MACEDO BORGES OFICIAL DO MP UBERLÂNDIA - COMARCA; UBERLANDIA-PJ-17PJ 11.212,54 2.242,51 0,00 0,00 0,00 0,00 0,00 4.197,61 17.652,66 1.925,63 2.274,59 0,00 0,00 4.200,22 13.452,44 31/03/2024
900 477700 ELMA JACOB OFICIAL DO MP BELO HORIZONTE - COMARCA; COORD DE GABINETE DO PGJ 10.858,90 8.687,12 0,00 0,00 0,00 2.900,18 493,81 7.970,09 30.910,10 2.900,18 4.479,16 0,00 0,00 7.379,34 23.530,76 31/03/2024
901 123300 ELMA PAULA DOS SANTOS COELHO OFICIAL DO MP BELO HORIZONTE - COMARCA; BH-19PJ SAUDE-SECRETARIA 130PJ 23.070,31 23.070,31 0,00 0,00 0,00 6.127,65 0,00 2.583,00 54.851,27 6.127,65 10.026,36 6.422,93 0,00 22.576,94 32.274,33 31/03/2024
902 728200 ELMITA XISTO DO VALLE ASSESSOR ADMINISTRATIVO I BELO HORIZONTE - COMARCA; DIRET DE FORMACAO, APERFEIC. E POS-GRADUACAO 0,00 0,00 4.872,71 0,00 0,00 0,00 0,00 2.583,00 7.455,71 777,91 774,02 0,00 0,00 1.551,93 5.903,78 31/03/2024
903 356500 ELOISA CARDOSO SILVA FRANCA OFICIAL DO MP PEÇANHA - COMARCA; PECANHA-PJ-SECRETARIA 7.506,70 2.252,01 0,00 0,00 0,00 0,00 0,00 2.583,00 12.341,71 1.334,22 1.368,60 0,00 0,00 2.702,82 9.638,89 31/03/2024
904 251901 ELOISA COSTA E SILVA ANALISTA DO MP BELO HORIZONTE - COMARCA; CENT ESTAD COOPERACAO TECNICO-JURIDICA 12.343,61 4.937,44 0,00 0,00 0,00 0,00 0,00 2.583,00 19.864,05 2.537,79 3.106,26 0,00 0,00 5.644,05 14.220,00 31/03/2024
905 400400 ELOIZA MARIA FERRI PIRES DA SILVA OFICIAL DO MP BELO HORIZONTE - COMARCA; ASSESSORIA DE COMUNICACAO INTEGRADA 11.212,54 3.363,76 4.020,58 0,00 0,00 0,00 0,00 8.534,00 27.130,88 2.105,03 3.639,26 0,00 0,00 5.744,29 21.386,59 31/03/2024
906 258000 ELSO CECIANO PALMEIRA OFICIAL DO MP BELO HORIZONTE - COMARCA; DIRET DE PESSOAL DO MINISTERIO PUBLICO - DPMP 17.559,01 14.047,21 5.928,90 0,00 0,00 0,00 0,00 8.588,62 46.123,74 4.829,82 8.097,96 0,00 0,00 12.927,78 33.195,96 31/03/2024
907 206900 ELVIRA RITA DOS SANTOS ANALISTA DO MP BELO HORIZONTE - COMARCA; CENTRAL DE APOIO TECNICO-SETOR CONTABIL 23.070,31 9.228,12 0,00 0,00 0,00 4.940,57 0,00 2.583,00 39.822,00 4.940,57 7.986,07 0,00 0,00 12.926,64 26.895,36 31/03/2024
908 506800 ELVIS FERREIRA DA SILVA ANALISTA DO MP BELO HORIZONTE - COMARCA; DIRETORIA DE SISTEMAS DE INFORMACAO 12.343,61 2.468,72 0,00 0,00 0,00 0,00 0,00 6.692,05 21.504,38 2.142,79 2.431,71 0,00 0,00 4.574,50 16.929,88 31/03/2024
909 602400 ELZA MARIA MOREIRA MUNIZ ANALISTA DO MP RIO PARANAÍBA - COMARCA; RIO PARANAIBA-PJ-UNPJ 12.343,61 3.703,08 0,00 0,00 0,00 0,00 411,86 7.076,07 23.534,62 2.340,29 2.768,99 0,00 0,00 5.109,28 18.425,34 31/03/2024
910 368401 ELZIRA SIMOES DOS SANTOS ASSESSOR DE GABINETE I BELO HORIZONTE - COMARCA; ASSESSORIA DE COMUNICACAO INTEGRADA 0,00 7.252,31 18.130,77 0,00 0,00 0,00 558,43 8.674,94 34.616,45 908,85 6.378,36 0,00 0,00 7.287,21 27.329,24 31/03/2024
911 437400 EMANOELLE DA SILVA RODRIGUES OFICIAL DO MP UNAÍ - COMARCA; UNAI-PJ-03PJ 10.341,72 2.068,34 0,00 0,00 0,00 0,00 0,00 4.225,98 16.636,04 1.758,43 1.981,06 0,00 0,00 3.739,49 12.896,55 31/03/2024
912 458900 EMANUELLE CONRAD SILVA FREDERICO NAVES ANALISTA DO MP ALFENAS - COMARCA; ALFENAS-PJ-05PJ 18.130,77 3.626,15 0,00 0,00 0,00 0,00 0,00 3.729,58 25.486,50 3.253,93 4.140,19 0,00 0,00 7.394,12 18.092,38 31/03/2024
913 284100 EMERSON MAGNO ALMEIDA PEDROSA DA FONSECA ANALISTA DO MP BELO HORIZONTE - COMARCA; CENTRAL DE APOIO TECNICO-SETOR CONTABIL 23.070,31 9.228,12 0,00 0,00 0,00 0,00 473,71 8.897,33 41.669,47 4.940,57 4.860,71 0,00 0,00 9.801,28 31.868,19 31/03/2024
914 179900 EMERSON MORAIS DIAS OFICIAL DO MP BELO HORIZONTE - COMARCA; SUPERINTENDÊNCIA DE ENGENHARIA E ARQUITETURA 22.191,68 11.095,84 0,00 0,00 0,00 0,00 0,00 7.909,00 41.196,52 5.098,82 6.855,89 0,00 0,00 11.954,71 29.241,81 31/03/2024
915 488700 EMERSON SIQUEIRA DE SOUSA TEIXEIRA ANALISTA DO MP ITANHOMI - COMARCA; ITANHOMI-PJ-UNPJ 12.343,61 3.209,34 0,00 0,00 0,00 0,00 0,00 5.693,59 21.246,54 2.261,29 2.602,79 0,00 0,00 4.864,08 16.382,46 31/03/2024
916 194200 EMILIA ALVES FERREIRA RAMOS OFICIAL DO MP UBERLÂNDIA - COMARCA; UBERLANDIA-PJ-SEC CIVEIS CRIMINAIS 15.447,01 6.178,80 0,00 0,00 0,00 0,00 0,00 8.638,23 30.264,04 3.232,95 4.162,04 0,00 0,00 7.394,99 22.869,05 31/03/2024
917 679500 EMILY DIAS LEMOS E SILVA ASSESSOR PROCURADOR JUSTICA BELO HORIZONTE - COMARCA; GABINETE DE PROCURADOR DE JUSTIÇA - SALA 307 0,00 0,00 8.810,89 0,00 0,00 0,00 0,00 3.729,58 12.540,47 908,85 1.716,74 0,00 0,00 2.625,59 9.914,88 31/03/2024
918 620700 EMILY FONTANA DE SIQUEIRA ANALISTA DO MP BELO HORIZONTE - COMARCA; BH-18PJ VIOLENCIA DOMESTICA-SECRETARIA 12.343,61 1.234,36 0,00 0,00 0,00 0,00 0,00 3.729,58 17.307,55 1.945,30 2.250,85 0,00 0,00 4.196,15 13.111,40 31/03/2024
919 755400 EMMANUELLE PINHEIRO PAIVA QUINTAS ASSESSOR PROMOTOR JUSTICA SABARÁ - COMARCA; SABARA-PJ-03PJ 0,00 0,00 8.810,89 0,00 0,00 0,00 0,00 2.583,00 11.393,89 908,85 1.821,01 0,00 0,00 2.729,86 8.664,03 31/03/2024
920 297000 ENEIDA SOARES COSTA MELO ANALISTA DO MP PIUMHI - COMARCA; PIUMHI-PJ-01PJ 23.070,31 9.228,12 0,00 0,00 0,00 0,00 2.780,74 7.750,75 42.829,92 5.309,70 7.160,33 0,00 0,00 12.470,03 30.359,89 31/03/2024
921 276000 ENEZIO RODRIGUES DE SOUZA FILHO OFICIAL DO MP UBERLÂNDIA - COMARCA; UBERLANDIA-PJ-10PJ 12.343,61 4.937,44 0,00 0,00 0,00 0,00 0,00 2.583,00 19.864,05 2.537,79 3.158,40 0,00 0,00 5.696,19 14.167,86 31/03/2024
922 387700 ENI MARIA DOS REIS OFICIAL DO MP POUSO ALEGRE - COMARCA; POUSO ALEGRE-PJ-07PJ 12.343,61 3.703,08 0,00 0,00 0,00 0,00 0,00 7.076,07 23.122,76 2.340,29 2.873,26 0,00 0,00 5.213,55 17.909,21 31/03/2024
923 605100 ENIA MAIA ASSESSOR ADMINISTRATIVO IV BELO HORIZONTE - COMARCA; DIRETORIA DE ORCAMENTO-DIOR/SPC 14.488,22 2.897,64 0,00 0,00 0,00 0,00 0,00 7.451,04 24.836,90 1.214,11 3.551,23 0,00 0,00 4.765,34 20.071,56 31/03/2024
924 612200 ENILDO GOMES MEIRA FILHO ANALISTA DO MP BELO HORIZONTE - COMARCA; BH-23PJ INFRACIONAL-ASS JURIDICA 12.343,61 2.468,72 0,00 0,00 0,00 0,00 4.535,40 6.593,30 25.941,03 2.340,29 3.624,63 0,00 0,00 5.964,92 19.976,11 31/03/2024
925 553700 ENIVALDO NOVATO PUBLIO ANALISTA DO MP DIVINÓPOLIS - COMARCA; DIVINOPOLIS-PJ-09PJ 12.343,61 2.468,72 0,00 0,00 0,00 0,00 0,00 2.583,00 17.395,33 2.142,79 2.535,99 0,00 0,00 4.678,78 12.716,55 31/03/2024
926 680600 ENZO JOSE FERES SOUZA JABER ASSESSOR PROMOTOR JUSTICA ARAÇUAÍ - COMARCA; ARACUAI-PJ-02PJ 0,00 0,00 8.810,89 0,00 0,00 0,00 0,00 2.583,00 11.393,89 908,85 1.821,01 0,00 0,00 2.729,86 8.664,03 31/03/2024
927 417300 ERIC BARATTI DA SILVA ANALISTA DO MP BELO HORIZONTE - COMARCA; SUPER DE GESTAO DE PESSOAS-LOTACAO TEMPORARIA 13.588,97 2.717,79 0,00 0,00 0,00 0,00 0,00 3.729,58 20.036,34 2.381,90 2.933,34 0,00 0,00 5.315,24 14.721,10 31/03/2024
928 637600 ERIC DA ROCHA CHEHUEN ANALISTA DO MP LIMA DUARTE - COMARCA; LIMA DUARTE-PJ-UNPJ 11.577,56 1.157,76 0,00 0,00 0,00 0,00 0,00 2.583,00 15.318,32 1.018,60 2.326,10 0,00 0,00 3.344,70 11.973,62 31/03/2024
929 398900 ERIC TEIXEIRA SILVA OFICIAL DO MP UBERLÂNDIA - COMARCA; UBERLANDIA-PJ-SEC CIVEIS CRIMINAIS 12.343,61 3.703,08 0,00 0,00 0,00 0,00 0,00 2.583,00 18.629,69 2.340,29 2.873,26 0,00 0,00 5.213,55 13.416,14 31/03/2024
930 751300 ERIC VINICIUS PONTES ALLGAYER OFICIAL DO MP RIO VERMELHO - COMARCA; RIO VERMELHO-PJ-UNPJ 4.570,25 0,00 0,00 0,00 0,00 0,00 0,00 2.745,72 7.315,97 544,12 238,46 0,00 0,00 782,58 6.533,39 31/03/2024
931 754300 ERICA APARECIDA FERREIRA OFICIAL DO MP BARÃO DE COCAIS - COMARCA; BARAO DE COCAIS-PJ-UNPJ 4.570,25 0,00 0,00 0,00 0,00 0,00 0,00 2.627,04 7.197,29 544,12 238,46 0,00 0,00 782,58 6.414,71 31/03/2024
932 703600 ERICA CORDEIRO SANTOS ASSESSOR PROMOTOR JUSTICA MINAS NOVAS - COMARCA; MINAS NOVAS-PJ-UNPJ 0,00 0,00 8.810,89 0,00 0,00 0,00 0,00 2.583,00 11.393,89 908,85 1.821,01 0,00 0,00 2.729,86 8.664,03 31/03/2024
933 274200 ERICA DE SOUZA ANDRADE OFICIAL DO MP CURVELO - COMARCA; CURVELO-PJ-03PJ 15.447,01 6.178,80 0,00 0,00 0,00 0,00 0,00 8.638,23 30.264,04 3.232,95 4.109,90 0,00 0,00 7.342,85 22.921,19 31/03/2024
934 225700 ERICA GOMES DO COUTO OFICIAL DO MP BELO HORIZONTE - COMARCA; BH-21PJ TUTELA FUNDACOES-SECRETARIA 20.533,67 8.213,47 0,00 0,00 0,00 0,00 0,00 3.729,58 32.476,72 4.372,36 5.807,06 0,00 0,00 10.179,42 22.297,30 31/03/2024
935 632600 ERICA LEONOR MARTINS OFICIAL DO MP RESENDE COSTA - COMARCA; RESENDE COSTA-PJ-UNPJ 7.506,70 750,67 0,00 0,00 0,00 0,00 0,00 2.583,00 10.840,37 1.094,00 1.073,93 0,00 0,00 2.167,93 8.672,44 31/03/2024
936 524800 ERICA MACHADO DA COSTA E SOUZA ANALISTA DO MP BELO HORIZONTE - COMARCA; ASSESS TECNICO-JUR JUNTO AS PROC. DE JUST 14.960,00 2.992,00 0,00 0,00 0,00 0,00 0,00 2.583,00 20.535,00 2.645,14 3.313,39 0,00 0,00 5.958,53 14.576,47 31/03/2024
937 249500 ERICA RODRIGUES ANDRADE OFICIAL DO MP SÃO FRANCISCO - COMARCA; SAO FRANCISCO-PJ-02PJ 12.343,61 4.937,44 0,00 0,00 0,00 0,00 0,00 7.421,69 24.702,74 2.537,79 3.106,26 0,00 0,00 5.644,05 19.058,69 31/03/2024
938 260800 ERICA VIANA GIARDINI DE OLIVEIRA OFICIAL DO MP BELO HORIZONTE - COMARCA; DIRETORIA GESTAO COMPRAS LICITACOES 13.588,97 5.435,59 4.940,75 0,00 0,00 0,00 0,00 2.583,00 26.548,31 2.816,75 4.919,85 0,00 0,00 7.736,60 18.811,71 31/03/2024
939 299800 ERICH DOUGLAS RIBEIRO GARCIA ANALISTA DO MP BELO HORIZONTE - COMARCA; CENTRAL DE APOIO TECNICO-SETOR CONTABIL 23.070,31 6.921,09 0,00 0,00 0,00 0,00 0,00 8.581,28 38.572,68 4.571,45 6.094,49 0,00 0,00 10.665,94 27.906,74 31/03/2024
940 365000 ERICK EDUARDO JOSE DA SILVA OFICIAL DO MP JUIZ DE FORA - COMARCA; JUIZ DE FORA-PJ-12PJ 7.506,70 2.252,01 0,00 0,00 0,00 0,00 0,00 2.583,00 12.341,71 1.334,22 1.420,73 0,00 0,00 2.754,95 9.586,76 31/03/2024
941 227400 ERIKA DE LAET GOULART BOECHAT OFICIAL DO MP BELO HORIZONTE - COMARCA; BH-17PJ PATRIMONIO PUBLICO-SECRETARIA 20.533,67 8.213,47 0,00 0,00 0,00 0,00 0,00 2.583,00 31.330,14 4.372,36 5.754,93 0,00 0,00 10.127,29 21.202,85 31/03/2024
942 681301 ERIKA FERNANDA ELISEU FERREIRA ASSESSOR PROCURADOR JUSTICA BELO HORIZONTE - COMARCA; GABINETE DE PROCURADOR DE JUSTIÇA - SALA 411 0,00 0,00 8.810,89 0,00 0,00 0,00 0,00 2.583,00 11.393,89 908,85 1.821,01 0,00 0,00 2.729,86 8.664,03 31/03/2024
943 285100 ERIKA FERREIRA DA SILVA OFICIAL DO MP JUIZ DE FORA - COMARCA; JUIZ DE FORA-PJ-11PJ 12.343,61 4.937,44 0,00 0,00 0,00 0,00 0,00 7.421,69 24.702,74 2.537,79 3.158,40 0,00 0,00 5.696,19 19.006,55 31/03/2024
944 420100 ERIKA JEANINE VERSIANI DE CASTRO ANALISTA DO MP BELO HORIZONTE - COMARCA; CAO-EDUCACAO 18.720,84 5.616,25 0,00 0,00 0,00 0,00 0,00 8.423,90 32.760,99 3.666,76 4.788,34 0,00 0,00 8.455,10 24.305,89 31/03/2024
945 677100 ERIKA LAYS CARDOSO FERNANDES ASSESSOR PROMOTOR JUSTICA GRAO MOGOL - COMARCA; GRAO MOGOL-PJ-UNPJ 0,00 0,00 8.810,89 0,00 0,00 0,00 0,00 2.583,00 11.393,89 908,85 1.821,01 0,00 0,00 2.729,86 8.664,03 31/03/2024
946 606900 ERIKA MARIA BARBOSA ANALISTA DO MP BELO HORIZONTE - COMARCA; CAO-SAUDE 11.954,43 2.390,89 0,00 0,00 0,00 0,00 526,00 8.321,13 23.192,45 2.068,07 2.428,11 0,00 0,00 4.496,18 18.696,27 31/03/2024
947 491000 ERIKA ROCHA PEREIRA E SILVA COORDENADOR II BELO HORIZONTE - COMARCA; DIR GOVERNANCA TECNOLOGIA INFORMACAO 20.533,67 4.106,73 0,00 0,00 0,00 0,00 0,00 8.496,70 33.137,10 2.381,90 5.225,09 0,00 0,00 7.606,99 25.530,11 31/03/2024
948 283201 ERIKA STEHLING COORDENADOR I BELO HORIZONTE - COMARCA; CENTRAL DE APOIO TECNICO-SETOR DE ENGENHARIA 16.469,17 4.940,75 0,00 0,00 0,00 0,00 235,51 5.152,19 26.797,62 2.340,29 4.348,15 0,00 0,00 6.688,44 20.109,18 31/03/2024
949 254000 ERLANDIA DA SILVA MENDES OFICIAL DO MP IPATINGA - COMARCA; IPATINGA-PJ-03PJ 18.130,77 9.065,39 0,00 0,00 0,00 4.124,21 0,00 7.594,27 38.914,64 4.124,21 6.426,53 0,00 0,00 10.550,74 28.363,90 31/03/2024
950 348500 ERNILANDIA DE OLIVEIRA DIAS OFICIAL DO MP MONTES CLAROS - COMARCA; MONTES CLAROS-PJ-16PJ 12.343,61 3.703,08 0,00 0,00 0,00 0,00 0,00 7.076,07 23.122,76 2.340,29 2.873,26 0,00 0,00 5.213,55 17.909,21 31/03/2024
951 199300 ERTON PORTINARI DE ANDRADE OFICIAL DO MP SETE LAGOAS - COMARCA; SETE LAGOAS-PJ-05PJ 21.346,53 10.673,27 0,00 0,00 0,00 0,00 0,00 7.706,17 39.725,97 4.895,99 6.097,09 0,00 0,00 10.993,08 28.732,89 31/03/2024
952 618800 ESLY DE CARLA AYALLA BARBOSA MENDES OFICIAL DO MP NOVA LIMA - COMARCA; NOVA LIMA-PJ-SECRETARIA 7.506,70 750,67 0,00 0,00 0,00 0,00 0,00 2.583,00 10.840,37 1.094,00 1.073,93 0,00 0,00 2.167,93 8.672,44 31/03/2024
953 537000 ESTANISLAU CORREIA ALMEIDA JUNIOR OFICIAL DO MP UBERLÂNDIA - COMARCA; UBERLANDIA-PJ-25PJ 7.506,70 1.501,34 0,00 0,00 0,00 0,00 0,00 2.583,00 11.591,04 1.214,11 1.247,33 0,00 0,00 2.461,44 9.129,60 31/03/2024
954 692100 ESTEFANIA FARIA FERREIRA ASSESSOR PROCURADOR JUSTICA BELO HORIZONTE - COMARCA; GABINETE DE PROCURADOR DE JUSTIÇA - SALA 814 0,00 0,00 8.810,89 0,00 0,00 0,00 0,00 3.729,58 12.540,47 908,85 1.821,01 0,00 0,00 2.729,86 9.810,61 31/03/2024
955 326900 ESTER ALICE PIMENTA OFICIAL DO MP BELO HORIZONTE - COMARCA; CAO APOIO COMUNIT INCLUSAO E MOB SOCIAIS 12.343,61 3.703,08 0,00 0,00 0,00 0,00 411,86 7.076,07 23.534,62 2.340,29 2.873,26 0,00 0,00 5.213,55 18.321,07 31/03/2024
956 503700 ESTHER GONCALVES FONSECA ANALISTA DO MP BELO HORIZONTE - COMARCA; DIR CRIACAO E MIDIAS 12.343,61 2.468,72 0,00 0,00 0,00 0,00 0,00 2.583,00 17.395,33 2.142,79 2.588,12 0,00 0,00 4.730,91 12.664,42 31/03/2024
957 475600 ETIENE DE FATIMA OLIVEIRA PEREIRA ANALISTA DO MP PATROCÍNIO - COMARCA; PATROCINIO-PJ-04PJ 12.343,61 2.468,72 0,00 0,00 0,00 0,00 0,00 5.545,47 20.357,80 1.018,60 2.686,73 0,00 0,00 3.705,33 16.652,47 31/03/2024
958 428800 EUGENIA RODRIGUES TRAJANO BORGES ANALISTA DO MP UBERABA - COMARCA; UBERABA-PJ-10PJ 18.130,77 3.626,15 0,00 0,00 0,00 0,00 0,00 3.729,58 25.486,50 3.253,93 4.192,32 0,00 0,00 7.446,25 18.040,25 31/03/2024
959 272700 EUGENIO DE BARCELOS FILHO OFICIAL DO MP FRUTAL - COMARCA; FRUTAL-PJ-SECRETARIA 12.343,61 4.937,44 0,00 0,00 0,00 0,00 0,00 2.583,00 19.864,05 2.537,79 3.158,40 0,00 0,00 5.696,19 14.167,86 31/03/2024
960 254100 EULALIA ALVES MIRANDA LUCAS OFICIAL DO MP ALMENARA - COMARCA; ALMENARA-PJ-02PJ 17.559,01 8.779,51 0,00 0,00 0,00 0,00 482,87 7.850,70 34.672,09 3.986,98 5.146,40 0,00 0,00 9.133,38 25.538,71 31/03/2024
961 641200 EUNICE ELVIRA DA SILVA MATOS OFICIAL DO MP BELO HORIZONTE - COMARCA; BH-14PJ DEFESA CONSUMIDOR-SECRETARIA 6.818,83 681,88 0,00 0,00 0,00 0,00 0,00 2.583,00 10.083,71 974,36 898,75 0,00 0,00 1.873,11 8.210,60 31/03/2024
962 557900 EURIPEDES JOSUE PERES OFICIAL DO MP IBIÁ - COMARCA; IBIA-PJ-UNPJ 7.506,70 1.501,34 0,00 0,00 0,00 0,00 264,24 5.465,57 14.737,85 1.214,11 1.247,33 0,00 0,00 2.461,44 12.276,41 31/03/2024
963 225800 EURO CESAR VIEIRA BARBOSA ANALISTA DO MP BELO HORIZONTE - COMARCA; BH-17PJ PATRIMONIO PUBLICO-SECRETARIA 23.070,31 9.228,12 0,00 0,00 0,00 0,00 0,00 7.750,75 40.049,18 4.940,57 6.523,14 0,00 0,00 11.463,71 28.585,47 31/03/2024
964 199400 EUSTAQUIO ADAILTON LIMA E SILVA OFICIAL DO MP MONTES CLAROS - COMARCA; MONTES CLAROS-PJ-15PJ 21.346,53 14.942,57 0,00 0,00 0,00 0,00 0,00 8.389,26 44.678,36 5.579,08 7.392,84 0,00 0,00 12.971,92 31.706,44 31/03/2024
965 548000 EVA VILMA LEAO REIS JULIO OFICIAL DO MP BELO HORIZONTE - COMARCA; BH-07PJ 01 TRIBUNAL JURI-SECRETARIA 7.506,70 3.002,68 0,00 0,00 0,00 0,00 0,00 2.583,00 13.092,38 1.454,32 1.594,14 0,00 0,00 3.048,46 10.043,92 31/03/2024
966 517000 EVALDO SENA COSTA FILHO ANALISTA DO MP BELO HORIZONTE - COMARCA; BH-08PJ JUIZADO ESPECIAL-GAB 067PJ 12.343,61 4.937,44 0,00 0,00 0,00 0,00 0,00 7.421,69 24.702,74 2.537,79 3.054,12 0,00 0,00 5.591,91 19.110,83 31/03/2024
967 217500 EVELANGE LEAO RABELO ASSESSOR ADMINISTRATIVO II BELO HORIZONTE - COMARCA; CAO-PESSOAS IDOSAS E PESSOAS COM DEFICIENCIA 0,00 3.002,68 7.506,70 0,00 0,00 0,00 0,00 2.583,00 13.092,38 908,85 2.288,10 0,00 0,00 3.196,95 9.895,43 31/03/2024
968 679600 EVERTON BARBOSA DA SILVA ASSESSOR PROCURADOR JUSTICA BELO HORIZONTE - COMARCA; GABINETE DE PROCURADOR DE JUSTIÇA - SALA 510 0,00 0,00 8.810,89 0,00 0,00 0,00 0,00 2.583,00 11.393,89 908,85 1.821,01 0,00 0,00 2.729,86 8.664,03 31/03/2024
969 540400 EVIE SARAMELLA DE RESENDE OFICIAL DO MP BARBACENA - COMARCA; BARBACENA-PJ-08PJ 7.506,70 1.501,34 0,00 0,00 0,00 0,00 561,50 8.708,47 18.278,01 1.214,11 1.247,33 0,00 0,00 2.461,44 15.816,57 31/03/2024
970 469000 EWERTON CARDOSO DE SA RODRIGUES ANALISTA DO MP CAMPO BELO - COMARCA; CAMPO BELO-PJ-02PJ 12.343,61 2.468,72 0,00 0,00 0,00 0,00 0,00 5.545,47 20.357,80 2.142,79 2.483,85 0,00 0,00 4.626,64 15.731,16 31/03/2024
971 368900 FABIANA BARBOSA SIQUEIRA OFICIAL DO MP BELO HORIZONTE - COMARCA; CAO-ORDEM ECONOMICA E TRIBUTARIA-SECRETARIA 14.960,00 4.488,00 0,00 0,00 0,00 0,00 0,00 8.806,36 28.254,36 2.884,50 3.606,83 0,00 0,00 6.491,33 21.763,03 31/03/2024
972 273800 FABIANA CARNEIRO AMORIM OFICIAL DO MP BELO HORIZONTE - COMARCA; BH-23PJ CIVEL-COORD ADM CIVEL 15.949,86 6.379,94 4.346,47 0,00 0,00 0,00 0,00 7.918,25 34.594,52 3.345,59 5.467,80 0,00 0,00 8.813,39 25.781,13 31/03/2024
973 519300 FABIANA DE OLIVEIRA LOUREIRO ANALISTA DO MP BELO HORIZONTE - COMARCA; BH-09PJ AUDITORIA MILITAR-GAB 002PJ 12.343,61 2.468,72 0,00 0,00 0,00 0,00 0,00 5.545,47 20.357,80 2.142,79 2.588,12 0,00 0,00 4.730,91 15.626,89 31/03/2024
974 363400 FABIANA DOURADO DUPIN VIEGAS ANALISTA DO MP BELO HORIZONTE - COMARCA; GABINETE DE PROCURADOR DE JUSTIÇA - SALA 705 22.191,68 6.657,50 0,00 0,00 0,00 0,00 0,00 2.583,00 31.432,18 4.388,69 5.778,50 0,00 0,00 10.167,19 21.264,99 31/03/2024
975 410800 FABIANA DUARTE QUITITE ANALISTA DO MP BELO HORIZONTE - COMARCA; BH-15PJ M AMB PAT HIST CULT-GAB 116PJ 18.720,84 5.616,25 0,00 0,00 0,00 0,00 0,00 8.423,90 32.760,99 3.666,76 4.788,34 0,00 0,00 8.455,10 24.305,89 31/03/2024
976 419500 FABIANA EULALIA DOS SANTOS ANALISTA DO MP SÃO JOÃO DEL REI - COMARCA; SAO JOAO DEL REI-PJ-01PJ 18.720,84 5.616,25 0,00 0,00 0,00 0,00 0,00 8.423,90 32.760,99 3.666,76 4.788,34 0,00 0,00 8.455,10 24.305,89 31/03/2024
977 725200 FABIANA LOPES DE JESUS ASSESSOR PROMOTOR JUSTICA CONTAGEM - COMARCA; CONTAGEM-PJ-01PJ 0,00 0,00 8.810,89 0,00 0,00 0,00 0,00 2.583,00 11.393,89 908,85 1.821,01 0,00 0,00 2.729,86 8.664,03 31/03/2024
978 700300 FABIANA MARCIA DE SOUZA ASSESSOR ADMINISTRATIVO II BELO HORIZONTE - COMARCA; DIRET DE CONTROLE E DE MANUTENCAO DE IMOVEIS 0,00 0,00 7.506,70 0,00 0,00 0,00 0,00 2.583,00 10.089,70 908,85 1.462,36 0,00 0,00 2.371,21 7.718,49 31/03/2024
979 331500 FABIANA PACHECO OFICIAL DO MP GUAXUPÉ - COMARCA; GUAXUPE-PJ-01PJ 12.343,61 3.703,08 0,00 0,00 0,00 0,00 0,00 2.583,00 18.629,69 2.340,29 2.768,99 0,00 0,00 5.109,28 13.520,41 31/03/2024
980 510700 FABIANA PEREIRA SANTOS BORGES ANALISTA DO MP BELO HORIZONTE - COMARCA; DIRETORIA DE SISTEMAS DE INFORMACAO 12.343,61 2.468,72 5.538,92 0,00 0,00 0,00 0,00 8.281,35 28.632,60 2.142,79 4.059,19 0,00 0,00 6.201,98 22.430,62 31/03/2024
981 749400 FABIANA SANTOS DE OLIVEIRA CARVALHO ASSESSOR ADMINISTRATIVO I BELO HORIZONTE - COMARCA; CAO-CRIANCAS E ADOLESCENTES-ASS TECNICA 0,00 0,00 4.872,71 0,00 0,00 0,00 0,00 2.583,00 7.455,71 777,91 774,02 0,00 0,00 1.551,93 5.903,78 31/03/2024
982 181700 FABIANA SOUZA FERREIRA OFICIAL DO MP BELO HORIZONTE - COMARCA; BH-19PJ SAUDE-SECRETARIA 150PJ 7.506,70 3.002,68 0,00 0,00 0,00 0,00 0,00 2.583,00 13.092,38 1.454,32 1.489,87 0,00 0,00 2.944,19 10.148,19 31/03/2024
983 272900 FABIANA STOCKLER LEITE OFICIAL DO MP LAJINHA - COMARCA; LAJINHA-PJ-SECRETARIA 12.343,61 6.171,81 0,00 0,00 0,00 0,00 0,00 8.507,93 27.023,35 2.735,29 3.391,40 0,00 0,00 6.126,69 20.896,66 31/03/2024
984 225500 FABIANE DE FATIMA PORTELLA ANALISTA DO MP BELO HORIZONTE - COMARCA; BH-18PJ DIREITOS HUMANOS-SECRETARIA 23.070,31 9.228,12 0,00 0,00 0,00 0,00 0,00 2.583,00 34.881,43 4.940,57 6.627,41 0,00 0,00 11.567,98 23.313,45 31/03/2024
985 433800 FABIANE DINIZ MATTOS ANALISTA DO MP BELO HORIZONTE - COMARCA; BH-23PJ INFRACIONAL-ASS JURIDICA 18.720,84 3.744,17 0,00 0,00 0,00 0,00 5.776,72 4.876,16 33.117,89 3.367,22 5.944,49 0,00 0,00 9.311,71 23.806,18 31/03/2024
986 455000 FABIANO CARVALHO DA SILVA ANALISTA DO MP LAVRAS - COMARCA; LAVRAS-PJ-05PJ 12.343,61 2.468,72 0,00 0,00 0,00 0,00 0,00 5.545,47 20.357,80 2.142,79 2.588,12 0,00 0,00 4.730,91 15.626,89 31/03/2024
987 498800 FABIANO FURTADO PESSOA COELHO ANALISTA DO MP BELO HORIZONTE - COMARCA; DIRETORIA DE REDES E BANCOS DE DADOS 12.343,61 2.468,72 0,00 0,00 0,00 0,00 0,00 2.583,00 17.395,33 2.142,79 2.483,85 0,00 0,00 4.626,64 12.768,69 31/03/2024
988 663000 FABIANO MARQUES CORREA ASSESSOR ADMINISTRATIVO II BELO HORIZONTE - COMARCA; DIRETORIA DE SUPORTE E MANUTENCAO 0,00 0,00 7.506,70 0,00 0,00 0,00 0,00 2.583,00 10.089,70 908,85 1.462,36 0,00 0,00 2.371,21 7.718,49 31/03/2024
989 394600 FABIANO PALHARES SILVA ANALISTA DO MP BELO HORIZONTE - COMARCA; CENTRAL DE APOIO TECN-SETOR DE MEIO AMBIENTE 20.533,67 6.160,10 0,00 0,00 0,00 0,00 0,00 2.583,00 29.276,77 4.043,82 5.280,60 0,00 0,00 9.324,42 19.952,35 31/03/2024
990 676600 FABIANO RESENDE VELOSO ASSESSOR PROCURADOR JUSTICA BELO HORIZONTE - COMARCA; GABINETE DE PROCURADOR DE JUSTIÇA - SALA 1002 0,00 0,00 8.810,89 0,00 0,00 0,00 0,00 2.583,00 11.393,89 908,85 1.821,01 0,00 0,00 2.729,86 8.664,03 31/03/2024
991 444400 FABIANO SARAIVA MEDEIROS ANALISTA DO MP BETIM - COMARCA; BETIM-PJ-11PJ 18.130,77 3.626,15 0,00 0,00 0,00 0,00 0,00 8.674,94 30.431,86 3.253,93 4.088,05 0,00 0,00 7.341,98 23.089,88 31/03/2024
992 408700 FABIANO SOARES PORTILHO ANALISTA DO MP JUIZ DE FORA - COMARCA; GAECO REGIONAL DA ZONA DA MATA-JUIZ DE FORA 18.720,84 5.616,25 0,00 0,00 0,00 0,00 0,00 8.423,90 32.760,99 3.666,76 4.788,34 0,00 0,00 8.455,10 24.305,89 31/03/2024
993 442600 FABIO CARVALHO VIEIRA ANALISTA DO MP MONTES CLAROS - COMARCA; MONTES CLAROS-PJ-06PJ 12.343,61 2.468,72 0,00 0,00 0,00 0,00 0,00 2.583,00 17.395,33 2.142,79 2.588,12 0,00 0,00 4.730,91 12.664,42 31/03/2024
994 716601 FABIO DAMASCENA MONTEIRO DE CARVALHO OFICIAL DO MP JACINTO - COMARCA; JACINTO-PJ-UNPJ 4.570,25 0,00 0,00 0,00 0,00 0,00 0,00 2.583,00 7.153,25 544,12 238,46 0,00 17,32 799,90 6.353,35 31/03/2024
995 702700 FABIO JUNIOR COSTA BARREIROS ASSESSOR ADMINISTRATIVO II BELO HORIZONTE - COMARCA; DIVISAO DE MANUTENCAO PREDIAL 0,00 0,00 7.506,70 0,00 0,00 0,00 0,00 2.583,00 10.089,70 908,85 1.014,23 0,00 0,00 1.923,08 8.166,62 31/03/2024
996 240101 FABIO JUNQUEIRA DE ASSIS FONSECA OFICIAL DO MP BELO HORIZONTE - COMARCA; BH-17PJ PATRIMONIO PUBLICO-SECRETARIA 10.341,72 3.102,52 0,00 0,00 0,00 0,00 542,25 8.498,47 22.484,96 1.923,90 2.272,09 0,00 0,00 4.195,99 18.288,97 31/03/2024
997 271500 FABIO LUIZ VIEIRA OFICIAL DO MP SANTA VITÓRIA - COMARCA; SANTA VITORIA-PJ-UNPJ 12.343,61 4.937,44 0,00 0,00 0,00 0,00 0,00 7.528,72 24.809,77 2.537,79 3.106,26 0,00 0,00 5.644,05 19.165,72 31/03/2024
998 213100 FABIO PRATES GONCALVES ASSESSOR ADMINISTRATIVO IV BELO HORIZONTE - COMARCA; DIR RELACOES INSTITUCIONAIS 0,00 5.795,29 14.488,22 0,00 0,00 0,00 0,00 2.583,00 22.866,51 908,85 4.819,57 0,00 0,00 5.728,42 17.138,09 31/03/2024
999 436700 FABIO SANTIAGO DE CARVALHO OFICIAL DO MP POÇO FUNDO - COMARCA; POCO FUNDO-PJ-UNPJ 12.343,61 2.468,72 0,00 0,00 0,00 0,00 0,00 5.545,47 20.357,80 2.142,79 2.588,12 0,00 0,00 4.730,91 15.626,89 31/03/2024
1000 208400 FABIOLA DE SOUSA CARDOSO ANALISTA DO MP BELO HORIZONTE - COMARCA; CGMP-DIR ESTAGIO PROBATORIO E ORIENT 23.070,31 9.228,12 6.160,10 0,00 0,00 0,00 0,00 8.736,36 47.194,89 4.940,57 8.321,44 0,00 0,00 13.262,01 33.932,88 31/03/2024
1001 392200 FABIOLA LEROY COSTA ANALISTA DO MP ESMERALDAS - COMARCA; ESMERALDAS-PJ-01PJ 12.343,61 3.703,08 0,00 0,00 0,00 0,00 0,00 4.876,16 20.922,85 2.340,29 2.873,26 0,00 0,00 5.213,55 15.709,30 31/03/2024
1002 409000 FABIOLA MONTEIRO DE CARVALHO CASTRO ANALISTA DO MP BOM SUCESSO - COMARCA; BOM SUCESSO-PJ-UNPJ 15.949,86 4.784,96 0,00 0,00 0,00 0,00 532,19 8.388,75 29.655,76 3.090,39 3.956,22 0,00 0,00 7.046,61 22.609,15 31/03/2024
1003 525800 FABRICIA ALVES DANTAS OFICIAL DO MP MONTES CLAROS - COMARCA; MONTES CLAROS-PJ-01PJ 10.516,49 2.103,30 0,00 0,00 0,00 0,00 0,00 3.087,79 15.707,58 1.791,99 2.029,51 0,00 0,00 3.821,50 11.886,08 31/03/2024
1004 263400 FABRICIA PINTO TEIXEIRA SANTIAGO OFICIAL DO MP BELO HORIZONTE - COMARCA; CAO-FUNDACOES-SECRETARIA 18.130,77 7.252,31 0,00 0,00 0,00 0,00 0,00 8.674,94 34.058,02 3.834,11 4.925,69 0,00 0,00 8.759,80 25.298,22 31/03/2024
1005 420800 FABRICIO BERNARDES DE OLIVEIRA OFICIAL DO MP ITURAMA - COMARCA; ITURAMA-PJ-02PJ 12.343,61 3.703,08 0,00 0,00 0,00 0,00 0,00 8.247,06 24.293,75 2.340,29 2.821,12 0,00 0,00 5.161,41 19.132,34 31/03/2024
1006 474000 FABRICIO DE FREITAS SALES ANALISTA DO MP MONTES CLAROS - COMARCA; COORD REG DEF ORDEM ECON TRIB MONTES CLAROS 12.343,61 2.468,72 0,00 0,00 0,00 0,00 0,00 5.545,47 20.357,80 2.142,79 2.588,12 0,00 0,00 4.730,91 15.626,89 31/03/2024
1007 510100 FABRICIO FURTADO ASSIS DO CARMO ANALISTA DO MP BELO HORIZONTE - COMARCA; SERVICO MEDICO-DEPTO PERIC MEDICA SAUDE OCUP 12.343,61 2.468,72 0,00 0,00 0,00 0,00 1.181,10 4.876,16 20.869,59 2.142,79 2.912,93 0,00 0,00 5.055,72 15.813,87 31/03/2024
1008 519600 FABRICIO GONTIJO SALVATI ANALISTA DO MP BELO HORIZONTE - COMARCA; CENTRAL DE APOIO TECNICO-SETOR CONTABIL 12.343,61 2.468,72 0,00 0,00 0,00 0,00 0,00 2.583,00 17.395,33 2.142,79 2.588,12 0,00 0,00 4.730,91 12.664,42 31/03/2024
1009 637400 FABRICIO HENRIQUE DA SILVA PASSOS ANALISTA DO MP BELO HORIZONTE - COMARCA; DIR CRIACAO E MIDIAS 12.343,61 1.234,36 4.020,58 0,00 0,00 0,00 0,00 2.583,00 20.181,55 1.945,30 3.408,64 0,00 0,00 5.353,94 14.827,61 31/03/2024
1010 428200 FABRICIO ORZIL VIANA ANALISTA DO MP SANTA LUZIA - COMARCA; SANTA LUZIA-PJ-04PJ 12.343,61 3.703,08 0,00 0,00 0,00 0,00 1.234,36 7.926,40 25.207,45 2.537,79 3.158,40 0,00 0,00 5.696,19 19.511,26 31/03/2024
1011 455600 FABRICIO PAIVA DA ROCHA ANALISTA DO MP SÃO JOÃO DEL REI - COMARCA; SAO JOAO DEL REI-PJ-06PJ 12.343,61 2.468,72 0,00 0,00 0,00 0,00 0,00 6.692,05 21.504,38 2.142,79 2.535,99 0,00 0,00 4.678,78 16.825,60 31/03/2024
1012 511500 FABRICIO RENE CARDOSO DE PADUA ANALISTA DO MP SÃO SEBASTIÃO DO PARAÍSO - COMARCA; SAO SEBASTIAO DO PARAISO-PJ-03PJ 12.343,61 2.468,72 0,00 0,00 0,00 0,00 271,56 5.545,47 20.629,36 2.142,79 2.588,12 0,00 0,00 4.730,91 15.898,45 31/03/2024
1013 496100 FABRICIO RESENDE GONCALVES OFICIAL DO MP ENTRE-RIOS DE MINAS - COMARCA; ENTRE RIOS DE MINAS-PJ-UNPJ 10.516,49 2.103,30 0,00 0,00 0,00 0,00 0,00 2.583,00 15.202,79 1.791,99 2.081,65 0,00 0,00 3.873,64 11.329,15 31/03/2024
1014 650300 FABRICIO ROBERTO AZEVEDO OFICIAL DO MP NOVA SERRANA - COMARCA; NOVA SERRANA-PJ-04PJ 7.270,07 727,01 0,00 0,00 0,00 0,00 0,00 2.583,00 10.580,08 1.052,35 1.013,80 0,00 0,00 2.066,15 8.513,93 31/03/2024
1015 514900 FADUA MARIA DRUMOND CHEQUER ANALISTA DO MP BETIM - COMARCA; BETIM-PJ-12PJ 12.343,61 2.468,72 0,00 0,00 0,00 0,00 543,12 8.507,93 23.863,38 2.142,79 2.483,85 0,00 0,00 4.626,64 19.236,74 31/03/2024
1016 282500 FANNY FERREIRA MELO OFICIAL DO MP ARAXÁ - COMARCA; ARAXA-PJ-03PJ 13.588,97 5.435,59 0,00 0,00 0,00 0,00 558,05 8.670,86 28.253,47 2.816,75 3.561,15 0,00 0,00 6.377,90 21.875,57 31/03/2024
1017 692500 FARID JUNIOR NUNES DA SILVA ASSESSOR PROCURADOR JUSTICA BELO HORIZONTE - COMARCA; GABINETE DE PROCURADOR DE JUSTIÇA - SALA 912 0,00 0,00 8.810,89 0,00 0,00 0,00 0,00 2.583,00 11.393,89 908,85 1.716,74 0,00 0,00 2.625,59 8.768,30 31/03/2024
1018 744000 FARLEY LOPES DE ALCANTARA OFICIAL DO MP RIBEIRÃO DAS NEVES - COMARCA; RIBEIRAO DAS NEVES-PJ-SEC CIVEL 4.570,25 0,00 0,00 0,00 0,00 0,00 0,00 3.729,58 8.299,83 544,12 238,46 0,00 0,00 782,58 7.517,25 31/03/2024
1019 382800 FATIMA DE OLIVEIRA COELHO E SILVA OFICIAL DO MP BELO HORIZONTE - COMARCA; DIRETORIA DE ADMINISTRACAO FINANCEIRA 12.343,61 4.937,44 4.020,58 0,00 0,00 0,00 0,00 8.547,46 29.849,09 2.537,79 4.211,92 0,00 0,00 6.749,71 23.099,38 31/03/2024
1020 398601 FELIPE ANTONIO HORTA DE PAULA ANALISTA DO MP BELO HORIZONTE - COMARCA; PROC. JUSTICA DIR. DIFUSOS E COLETIVOS-SEC 12.343,61 3.209,34 0,00 0,00 0,00 0,00 0,00 5.693,59 21.246,54 2.261,29 2.759,21 0,00 0,00 5.020,50 16.226,04 31/03/2024
1021 430900 FELIPE BOY VIEIRA ANALISTA DO MP BELO HORIZONTE - COMARCA; DIRETORIA DE SEGURANCA 17.559,01 3.511,80 6.160,10 0,00 0,00 0,00 0,00 2.583,00 29.813,91 1.018,60 5.911,33 0,00 0,00 6.929,93 22.883,98 31/03/2024
1022 631700 FELIPE DE MORAIS SIMOES COELHO ANALISTA DO MP BELO HORIZONTE - COMARCA; BH-18PJ VIOLENCIA DOMESTICA-SECRETARIA 11.577,56 1.157,76 0,00 0,00 0,00 0,00 0,00 2.583,00 15.318,32 1.810,47 2.108,33 0,00 0,00 3.918,80 11.399,52 31/03/2024
1023 549100 FELIPE FERNANDES ALVIM ANALISTA DO MP LAJINHA - COMARCA; LAJINHA-PJ-UNPJ 12.343,61 2.468,72 0,00 0,00 0,00 0,00 0,00 6.692,05 21.504,38 2.142,79 2.588,12 0,00 0,00 4.730,91 16.773,47 31/03/2024
1024 693100 FELIPE FROIS DO AMARAL ASSESSOR PROMOTOR JUSTICA RIBEIRÃO DAS NEVES - COMARCA; RIBEIRAO NEVES-SEC PJ EXECUCAO PENAL 0,00 0,00 8.810,89 0,00 0,00 0,00 0,00 2.583,00 11.393,89 908,85 1.768,87 0,00 0,00 2.677,72 8.716,17 31/03/2024
1025 759800 FELIPE FURTADO XAVIER SOARES ASSESSOR PROMOTOR JUSTICA GUARANI - COMARCA; GUARANI-PJ-UNPJ 0,00 0,00 8.810,89 0,00 0,00 0,00 0,00 2.583,00 11.393,89 908,85 1.821,01 0,00 0,00 2.729,86 8.664,03 31/03/2024
1026 620100 FELIPE GOMES DE AZEVEDO OFICIAL DO MP BELO HORIZONTE - COMARCA; DIVISAO DE SERVICOS 7.506,70 750,67 4.020,58 0,00 0,00 0,00 0,00 2.583,00 14.860,95 1.094,00 2.179,59 0,00 0,00 3.273,59 11.587,36 31/03/2024
1027 601600 FELIPE RODRIGUES DE SIQUEIRA ANALISTA DO MP BELO HORIZONTE - COMARCA; BH-02PJ FAMILIA-SECRETARIA 12.343,61 2.468,72 0,00 0,00 0,00 0,00 0,00 2.583,00 17.395,33 1.018,60 2.286,40 0,00 0,00 3.305,00 14.090,33 31/03/2024
1028 628900 FELIX FERNANDO JUNIO VIEIRA ANALISTA DO MP BELO HORIZONTE - COMARCA; BH-21PJ TUTELA DAS FUNDACOES-ASS CURADORES 12.343,61 1.974,98 0,00 0,00 0,00 0,00 0,00 6.593,30 20.911,89 2.063,80 2.369,79 0,00 0,00 4.433,59 16.478,30 31/03/2024
1029 544500 FELLIPE LEMOS MARCONDES BUENO ANALISTA DO MP SÃO SEBASTIÃO DO PARAÍSO - COMARCA; SAO SEBASTIAO DO PARAISO-PJ-04PJ 12.343,61 2.468,72 0,00 0,00 0,00 0,00 271,56 5.545,47 20.629,36 2.142,79 2.588,12 0,00 0,00 4.730,91 15.898,45 31/03/2024
1030 688500 FELLIPE TADEU DE ANDRADE RAMOS ASSESSOR PROCURADOR JUSTICA BELO HORIZONTE - COMARCA; GABINETE DE PROCURADOR DE JUSTIÇA - SALA 907 0,00 0,00 8.810,89 0,00 0,00 0,00 258,45 5.402,48 14.471,82 908,85 1.821,01 0,00 0,00 2.729,86 11.741,96 31/03/2024
1031 612600 FERNANDA ADRIANA DE PAULA GUIDO ANALISTA DO MP BELO HORIZONTE - COMARCA; CENT ESTAD COOPERACAO TECNICO-JURIDICA 12.343,61 2.468,72 0,00 0,00 0,00 0,00 1.234,36 8.886,46 24.933,15 2.340,29 2.821,12 0,00 0,00 5.161,41 19.771,74 31/03/2024
1032 508400 FERNANDA AGANETTI MATTOS DE OLIVEIRA ANALISTA DO MP BELO HORIZONTE - COMARCA; CENT ESTAD COOPERACAO TECNICO-JURIDICA 12.343,61 2.468,72 0,00 0,00 0,00 0,00 0,00 4.876,16 19.688,49 1.018,60 2.897,28 0,00 0,00 3.915,88 15.772,61 31/03/2024
1033 453600 FERNANDA ALBERNAZ RABELO ANALISTA DO MP BELO HORIZONTE - COMARCA; GABINETE DE PROCURADOR DE JUSTIÇA - SALA 616 12.343,61 2.468,72 0,00 0,00 0,00 0,00 0,00 3.729,58 18.541,91 2.142,79 2.588,12 0,00 0,00 4.730,91 13.811,00 31/03/2024
1034 255600 FERNANDA ALINA DE ALMEIDA ANDRADE OFICIAL DO MP BELO HORIZONTE - COMARCA; DIRETORIA DE CONTABILIDADE 12.343,61 4.937,44 0,00 0,00 0,00 0,00 0,00 2.583,00 19.864,05 2.537,79 3.158,40 0,00 0,00 5.696,19 14.167,86 31/03/2024
1035 443200 FERNANDA ALMEIDA LOPES ANALISTA DO MP CONTAGEM - COMARCA; CONTAGEM-PJ-10PJ 18.130,77 3.626,15 0,00 0,00 0,00 0,00 0,00 9.821,52 31.578,44 3.253,93 4.088,05 0,00 0,00 7.341,98 24.236,46 31/03/2024
1036 281100 FERNANDA ANANIAS MEIRA ANALISTA DO MP BELO HORIZONTE - COMARCA; BH-23PJ INFRACIONAL-ASS JURIDICA 23.070,31 9.228,12 0,00 0,00 0,00 0,00 7.117,96 7.750,75 47.167,14 4.940,57 8.454,58 0,00 0,00 13.395,15 33.771,99 31/03/2024
1037 539000 FERNANDA BARBOSA ALVES ANALISTA DO MP UBERLÂNDIA - COMARCA; GAECO REGIONAL DE UBERLANDIA 12.343,61 2.468,72 0,00 0,00 0,00 0,00 0,00 3.729,58 18.541,91 2.142,79 2.588,12 0,00 0,00 4.730,91 13.811,00 31/03/2024
1038 451200 FERNANDA BLOISE PRADO OFICIAL DO MP BELO HORIZONTE - COMARCA; GAECO - SECRETARIA 11.577,56 2.315,51 0,00 0,00 0,00 0,00 0,00 2.583,00 16.476,07 1.995,71 2.375,77 0,00 0,00 4.371,48 12.104,59 31/03/2024
1039 427900 FERNANDA BRAGA CARNEIRO BICALHO ANALISTA DO MP PEÇANHA - COMARCA; PECANHA-PJ-02PJ 12.343,61 3.703,08 0,00 0,00 0,00 0,00 1.234,36 2.583,00 19.864,05 2.537,79 3.106,26 0,00 0,00 5.644,05 14.220,00 31/03/2024
1040 507100 FERNANDA CABRINI VAZ MOTA ANALISTA DO MP BELO HORIZONTE - COMARCA; DIVISAO DE MATERIAIS 12.343,61 2.468,72 4.020,58 0,00 0,00 0,00 552,43 10.902,69 30.288,03 1.018,60 3.609,25 0,00 0,00 4.627,85 25.660,18 31/03/2024
1041 259800 FERNANDA CALZAVARA DE SOUSA OFICIAL DO MP BELO HORIZONTE - COMARCA; DIRET DE INFORMACAO E CONHECIMENTO-DINC/CEAF 18.130,77 7.252,31 6.160,10 0,00 0,00 0,00 0,00 8.776,49 40.319,67 3.834,11 6.671,86 0,00 0,00 10.505,97 29.813,70 31/03/2024
1042 494400 FERNANDA CAMPOS BARATA OFICIAL DO MP JUIZ DE FORA - COMARCA; JUIZ DE FORA-PJ-08PJ 7.506,70 1.501,34 0,00 0,00 0,00 0,00 0,00 8.708,47 17.716,51 1.214,11 1.247,33 0,00 0,00 2.461,44 15.255,07 31/03/2024
1043 555600 FERNANDA CAROLINE RIBEIRO ANALISTA DO MP BELO HORIZONTE - COMARCA; DIRETORIA GESTAO CONTRATOS CONVENIOS 12.343,61 2.468,72 0,00 0,00 0,00 0,00 0,00 2.583,00 17.395,33 2.142,79 2.588,12 0,00 0,00 4.730,91 12.664,42 31/03/2024
1044 692000 FERNANDA CESAR SILVA ASSESSOR PROCURADOR JUSTICA BELO HORIZONTE - COMARCA; GABINETE DE PROCURADOR DE JUSTIÇA - SALA 809 0,00 0,00 8.810,89 0,00